<?xml version="1.0" encoding="UTF-8" standalone="yes"?>
<gpx
 xmlns="http://www.topografix.com/GPX/1/1"
 creator="OziExplorer Version 3956f - http://www.oziexplorer.com"
 version="1.1"
 xmlns:xsi="http://www.w3.org/2001/XMLSchema-instance"
 xsi:schemaLocation="http://www.topografix.com/GPX/1/1 http://www.topografix.com/GPX/1/1/gpx.xsd">
<metadata>
 <time>2023-02-16T10:36:57Z</time>
 <bounds minlat="31.340070" minlon="34.395780" maxlat="31.444790" maxlon="34.496490"/>
</metadata>
<trk>
 <name>Beeri-Kissufim_Sin,51km</name>
 <desc>Beeri-Kissufim_Sin,51km</desc>
<trkseg>
<trkpt lat="31.4279800" lon="34.4929700">
<ele>81.330002</ele>
<time>2023-02-16T12:36:57.826Z</time>
</trkpt>
<trkpt lat="31.4280900" lon="34.4929300">
<ele>81.889999</ele>
<time>2023-02-16T12:36:57.826Z</time>
</trkpt>
<trkpt lat="31.4281200" lon="34.4930700">
<ele>81.920006</ele>
<time>2023-02-16T12:36:57.826Z</time>
</trkpt>
<trkpt lat="31.4282100" lon="34.4933900">
<ele>82.309998</ele>
<time>2023-02-16T12:36:57.826Z</time>
</trkpt>
<trkpt lat="31.4283100" lon="34.4938600">
<ele>84.380005</ele>
<time>2023-02-16T12:36:57.826Z</time>
</trkpt>
<trkpt lat="31.4283400" lon="34.4940400">
<ele>83.379997</ele>
<time>2023-02-16T12:36:57.826Z</time>
</trkpt>
<trkpt lat="31.4284000" lon="34.4942600">
<ele>81.230003</ele>
<time>2023-02-16T12:36:57.826Z</time>
</trkpt>
<trkpt lat="31.4282900" lon="34.4943800">
<ele>79.309998</ele>
<time>2023-02-16T12:36:57.826Z</time>
</trkpt>
<trkpt lat="31.4281300" lon="34.4945600">
<ele>77.010002</ele>
<time>2023-02-16T12:36:57.826Z</time>
</trkpt>
<trkpt lat="31.4286800" lon="34.4954500">
<ele>78.770004</ele>
<time>2023-02-16T12:36:57.826Z</time>
</trkpt>
<trkpt lat="31.4289200" lon="34.4959000">
<ele>81.950005</ele>
<time>2023-02-16T12:36:57.826Z</time>
</trkpt>
<trkpt lat="31.4292200" lon="34.4964900">
<ele>85.250000</ele>
<time>2023-02-16T12:36:57.826Z</time>
</trkpt>
<trkpt lat="31.4292400" lon="34.4963900">
<ele>86.980003</ele>
<time>2023-02-16T12:36:57.826Z</time>
</trkpt>
<trkpt lat="31.4292400" lon="34.4963900">
<ele>86.980003</ele>
<time>2023-02-16T12:36:57.826Z</time>
</trkpt>
<trkpt lat="31.4292400" lon="34.4963900">
<ele>86.980003</ele>
<time>2023-02-16T12:36:57.826Z</time>
</trkpt>
<trkpt lat="31.4292700" lon="34.4962000">
<ele>87.169998</ele>
<time>2023-02-16T12:36:57.827Z</time>
</trkpt>
<trkpt lat="31.4293700" lon="34.4961700">
<ele>86.629997</ele>
<time>2023-02-16T12:36:57.827Z</time>
</trkpt>
<trkpt lat="31.4297500" lon="34.4961100">
<ele>83.779999</ele>
<time>2023-02-16T12:36:57.827Z</time>
</trkpt>
<trkpt lat="31.4298200" lon="34.4960800">
<ele>82.779999</ele>
<time>2023-02-16T12:36:57.827Z</time>
</trkpt>
<trkpt lat="31.4299300" lon="34.4960100">
<ele>80.959999</ele>
<time>2023-02-16T12:36:57.827Z</time>
</trkpt>
<trkpt lat="31.4302300" lon="34.4956200">
<ele>76.309998</ele>
<time>2023-02-16T12:36:57.827Z</time>
</trkpt>
<trkpt lat="31.4302400" lon="34.4956000">
<ele>76.070000</ele>
<time>2023-02-16T12:36:57.827Z</time>
</trkpt>
<trkpt lat="31.4302400" lon="34.4956000">
<ele>76.070000</ele>
<time>2023-02-16T12:36:57.827Z</time>
</trkpt>
<trkpt lat="31.4302400" lon="34.4956000">
<ele>76.070000</ele>
<time>2023-02-16T12:36:57.827Z</time>
</trkpt>
<trkpt lat="31.4304700" lon="34.4951700">
<ele>76.979996</ele>
<time>2023-02-16T12:36:57.827Z</time>
</trkpt>
<trkpt lat="31.4307000" lon="34.4950200">
<ele>80.710007</ele>
<time>2023-02-16T12:36:57.827Z</time>
</trkpt>
<trkpt lat="31.4307400" lon="34.4949500">
<ele>81.299995</ele>
<time>2023-02-16T12:36:57.827Z</time>
</trkpt>
<trkpt lat="31.4305900" lon="34.4942000">
<ele>86.309998</ele>
<time>2023-02-16T12:36:57.827Z</time>
</trkpt>
<trkpt lat="31.4304800" lon="34.4939700">
<ele>87.440002</ele>
<time>2023-02-16T12:36:57.827Z</time>
</trkpt>
<trkpt lat="31.4301700" lon="34.4936500">
<ele>85.389999</ele>
<time>2023-02-16T12:36:57.827Z</time>
</trkpt>
<trkpt lat="31.4302100" lon="34.4935300">
<ele>84.930000</ele>
<time>2023-02-16T12:36:57.827Z</time>
</trkpt>
<trkpt lat="31.4303800" lon="34.4931900">
<ele>84.779999</ele>
<time>2023-02-16T12:36:57.828Z</time>
</trkpt>
<trkpt lat="31.4305000" lon="34.4929500">
<ele>84.320000</ele>
<time>2023-02-16T12:36:57.828Z</time>
</trkpt>
<trkpt lat="31.4305000" lon="34.4929500">
<ele>84.320000</ele>
<time>2023-02-16T12:36:57.828Z</time>
</trkpt>
<trkpt lat="31.4305000" lon="34.4929500">
<ele>84.320000</ele>
<time>2023-02-16T12:36:57.828Z</time>
</trkpt>
<trkpt lat="31.4305800" lon="34.4928200">
<ele>84.279999</ele>
<time>2023-02-16T12:36:57.828Z</time>
</trkpt>
<trkpt lat="31.4308600" lon="34.4922600">
<ele>82.090004</ele>
<time>2023-02-16T12:36:57.828Z</time>
</trkpt>
<trkpt lat="31.4310100" lon="34.4917600">
<ele>75.669998</ele>
<time>2023-02-16T12:36:57.828Z</time>
</trkpt>
<trkpt lat="31.4312200" lon="34.4911500">
<ele>70.770004</ele>
<time>2023-02-16T12:36:57.828Z</time>
</trkpt>
<trkpt lat="31.4313600" lon="34.4907100">
<ele>67.809998</ele>
<time>2023-02-16T12:36:57.828Z</time>
</trkpt>
<trkpt lat="31.4313900" lon="34.4905900">
<ele>67.879997</ele>
<time>2023-02-16T12:36:57.828Z</time>
</trkpt>
<trkpt lat="31.4312700" lon="34.4903800">
<ele>68.739998</ele>
<time>2023-02-16T12:36:57.828Z</time>
</trkpt>
<trkpt lat="31.4310600" lon="34.4902400">
<ele>69.759995</ele>
<time>2023-02-16T12:36:57.828Z</time>
</trkpt>
<trkpt lat="31.4308100" lon="34.4902100">
<ele>73.500000</ele>
<time>2023-02-16T12:36:57.828Z</time>
</trkpt>
<trkpt lat="31.4305600" lon="34.4899700">
<ele>74.000000</ele>
<time>2023-02-16T12:36:57.828Z</time>
</trkpt>
<trkpt lat="31.4305400" lon="34.4896900">
<ele>73.669998</ele>
<time>2023-02-16T12:36:57.828Z</time>
</trkpt>
<trkpt lat="31.4305500" lon="34.4894200">
<ele>72.790001</ele>
<time>2023-02-16T12:36:57.828Z</time>
</trkpt>
<trkpt lat="31.4302400" lon="34.4892400">
<ele>70.339996</ele>
<time>2023-02-16T12:36:57.828Z</time>
</trkpt>
<trkpt lat="31.4300800" lon="34.4890200">
<ele>69.540001</ele>
<time>2023-02-16T12:36:57.828Z</time>
</trkpt>
<trkpt lat="31.4300800" lon="34.4887800">
<ele>69.080002</ele>
<time>2023-02-16T12:36:57.828Z</time>
</trkpt>
<trkpt lat="31.4300000" lon="34.4885600">
<ele>68.820000</ele>
<time>2023-02-16T12:36:57.828Z</time>
</trkpt>
<trkpt lat="31.4300200" lon="34.4882200">
<ele>69.049995</ele>
<time>2023-02-16T12:36:57.828Z</time>
</trkpt>
<trkpt lat="31.4299600" lon="34.4881000">
<ele>69.680000</ele>
<time>2023-02-16T12:36:57.828Z</time>
</trkpt>
<trkpt lat="31.4299100" lon="34.4880100">
<ele>70.160004</ele>
<time>2023-02-16T12:36:57.828Z</time>
</trkpt>
<trkpt lat="31.4298500" lon="34.4878100">
<ele>71.430000</ele>
<time>2023-02-16T12:36:57.828Z</time>
</trkpt>
<trkpt lat="31.4298600" lon="34.4876300">
<ele>70.979996</ele>
<time>2023-02-16T12:36:57.828Z</time>
</trkpt>
<trkpt lat="31.4301300" lon="34.4874800">
<ele>67.660004</ele>
<time>2023-02-16T12:36:57.828Z</time>
</trkpt>
<trkpt lat="31.4302300" lon="34.4871400">
<ele>67.720001</ele>
<time>2023-02-16T12:36:57.828Z</time>
</trkpt>
<trkpt lat="31.4303100" lon="34.4867600">
<ele>65.470001</ele>
<time>2023-02-16T12:36:57.828Z</time>
</trkpt>
<trkpt lat="31.4302300" lon="34.4863800">
<ele>60.810001</ele>
<time>2023-02-16T12:36:57.828Z</time>
</trkpt>
<trkpt lat="31.4302500" lon="34.4862500">
<ele>60.500000</ele>
<time>2023-02-16T12:36:57.828Z</time>
</trkpt>
<trkpt lat="31.4303600" lon="34.4856700">
<ele>62.480000</ele>
<time>2023-02-16T12:36:57.828Z</time>
</trkpt>
<trkpt lat="31.4303100" lon="34.4854200">
<ele>62.349998</ele>
<time>2023-02-16T12:36:57.828Z</time>
</trkpt>
<trkpt lat="31.4302100" lon="34.4852500">
<ele>61.189999</ele>
<time>2023-02-16T12:36:57.828Z</time>
</trkpt>
<trkpt lat="31.4301900" lon="34.4851400">
<ele>60.710003</ele>
<time>2023-02-16T12:36:57.828Z</time>
</trkpt>
<trkpt lat="31.4301900" lon="34.4851400">
<ele>60.710003</ele>
<time>2023-02-16T12:36:57.828Z</time>
</trkpt>
<trkpt lat="31.4301900" lon="34.4851400">
<ele>60.710003</ele>
<time>2023-02-16T12:36:57.828Z</time>
</trkpt>
<trkpt lat="31.4301800" lon="34.4850600">
<ele>60.439999</ele>
<time>2023-02-16T12:36:57.828Z</time>
</trkpt>
<trkpt lat="31.4302600" lon="34.4849100">
<ele>60.570000</ele>
<time>2023-02-16T12:36:57.828Z</time>
</trkpt>
<trkpt lat="31.4304000" lon="34.4848200">
<ele>61.669998</ele>
<time>2023-02-16T12:36:57.828Z</time>
</trkpt>
<trkpt lat="31.4304600" lon="34.4847900">
<ele>62.209999</ele>
<time>2023-02-16T12:36:57.828Z</time>
</trkpt>
<trkpt lat="31.4304700" lon="34.4837700">
<ele>59.480003</ele>
<time>2023-02-16T12:36:57.828Z</time>
</trkpt>
<trkpt lat="31.4300300" lon="34.4829500">
<ele>60.340000</ele>
<time>2023-02-16T12:36:57.828Z</time>
</trkpt>
<trkpt lat="31.4298800" lon="34.4820600">
<ele>60.490002</ele>
<time>2023-02-16T12:36:57.828Z</time>
</trkpt>
<trkpt lat="31.4295900" lon="34.4816100">
<ele>61.730000</ele>
<time>2023-02-16T12:36:57.828Z</time>
</trkpt>
<trkpt lat="31.4295700" lon="34.4813400">
<ele>60.079998</ele>
<time>2023-02-16T12:36:57.828Z</time>
</trkpt>
<trkpt lat="31.4298700" lon="34.4805900">
<ele>59.290001</ele>
<time>2023-02-16T12:36:57.828Z</time>
</trkpt>
<trkpt lat="31.4300000" lon="34.4797900">
<ele>66.019997</ele>
<time>2023-02-16T12:36:57.828Z</time>
</trkpt>
<trkpt lat="31.4303200" lon="34.4796100">
<ele>55.090000</ele>
<time>2023-02-16T12:36:57.828Z</time>
</trkpt>
<trkpt lat="31.4305700" lon="34.4792100">
<ele>54.359997</ele>
<time>2023-02-16T12:36:57.828Z</time>
</trkpt>
<trkpt lat="31.4306600" lon="34.4789100">
<ele>55.389999</ele>
<time>2023-02-16T12:36:57.828Z</time>
</trkpt>
<trkpt lat="31.4311200" lon="34.4783800">
<ele>54.709999</ele>
<time>2023-02-16T12:36:57.828Z</time>
</trkpt>
<trkpt lat="31.4311200" lon="34.4783800">
<ele>54.709999</ele>
<time>2023-02-16T12:36:57.828Z</time>
</trkpt>
<trkpt lat="31.4311200" lon="34.4783800">
<ele>54.709999</ele>
<time>2023-02-16T12:36:57.828Z</time>
</trkpt>
<trkpt lat="31.4311600" lon="34.4783400">
<ele>54.279999</ele>
<time>2023-02-16T12:36:57.828Z</time>
</trkpt>
<trkpt lat="31.4317400" lon="34.4771300">
<ele>48.779999</ele>
<time>2023-02-16T12:36:57.828Z</time>
</trkpt>
<trkpt lat="31.4318700" lon="34.4763600">
<ele>49.570004</ele>
<time>2023-02-16T12:36:57.828Z</time>
</trkpt>
<trkpt lat="31.4321200" lon="34.4755500">
<ele>51.999996</ele>
<time>2023-02-16T12:36:57.828Z</time>
</trkpt>
<trkpt lat="31.4320600" lon="34.4747300">
<ele>49.160000</ele>
<time>2023-02-16T12:36:57.828Z</time>
</trkpt>
<trkpt lat="31.4322100" lon="34.4740000">
<ele>47.049999</ele>
<time>2023-02-16T12:36:57.828Z</time>
</trkpt>
<trkpt lat="31.4324900" lon="34.4735500">
<ele>49.160000</ele>
<time>2023-02-16T12:36:57.828Z</time>
</trkpt>
<trkpt lat="31.4333000" lon="34.4732300">
<ele>48.039997</ele>
<time>2023-02-16T12:36:57.828Z</time>
</trkpt>
<trkpt lat="31.4332200" lon="34.4727400">
<ele>44.810001</ele>
<time>2023-02-16T12:36:57.828Z</time>
</trkpt>
<trkpt lat="31.4332000" lon="34.4722800">
<ele>48.380001</ele>
<time>2023-02-16T12:36:57.828Z</time>
</trkpt>
<trkpt lat="31.4314700" lon="34.4717000">
<ele>59.200001</ele>
<time>2023-02-16T12:36:57.828Z</time>
</trkpt>
<trkpt lat="31.4313800" lon="34.4716900">
<ele>55.939999</ele>
<time>2023-02-16T12:36:57.828Z</time>
</trkpt>
<trkpt lat="31.4313400" lon="34.4716700">
<ele>56.160000</ele>
<time>2023-02-16T12:36:57.828Z</time>
</trkpt>
<trkpt lat="31.4312900" lon="34.4716300">
<ele>57.079998</ele>
<time>2023-02-16T12:36:57.828Z</time>
</trkpt>
<trkpt lat="31.4313500" lon="34.4715700">
<ele>55.990002</ele>
<time>2023-02-16T12:36:57.828Z</time>
</trkpt>
<trkpt lat="31.4314400" lon="34.4714800">
<ele>57.009998</ele>
<time>2023-02-16T12:36:57.828Z</time>
</trkpt>
<trkpt lat="31.4315000" lon="34.4713700">
<ele>57.859997</ele>
<time>2023-02-16T12:36:57.828Z</time>
</trkpt>
<trkpt lat="31.4315200" lon="34.4712700">
<ele>57.500000</ele>
<time>2023-02-16T12:36:57.828Z</time>
</trkpt>
<trkpt lat="31.4315300" lon="34.4710000">
<ele>55.930000</ele>
<time>2023-02-16T12:36:57.828Z</time>
</trkpt>
<trkpt lat="31.4315200" lon="34.4709200">
<ele>55.389999</ele>
<time>2023-02-16T12:36:57.828Z</time>
</trkpt>
<trkpt lat="31.4314500" lon="34.4707700">
<ele>54.289997</ele>
<time>2023-02-16T12:36:57.828Z</time>
</trkpt>
<trkpt lat="31.4314000" lon="34.4706300">
<ele>53.990002</ele>
<time>2023-02-16T12:36:57.828Z</time>
</trkpt>
<trkpt lat="31.4313800" lon="34.4703900">
<ele>53.460003</ele>
<time>2023-02-16T12:36:57.828Z</time>
</trkpt>
<trkpt lat="31.4313500" lon="34.4702800">
<ele>53.419998</ele>
<time>2023-02-16T12:36:57.828Z</time>
</trkpt>
<trkpt lat="31.4313500" lon="34.4701800">
<ele>52.720001</ele>
<time>2023-02-16T12:36:57.828Z</time>
</trkpt>
<trkpt lat="31.4314000" lon="34.4700400">
<ele>51.170002</ele>
<time>2023-02-16T12:36:57.828Z</time>
</trkpt>
<trkpt lat="31.4314200" lon="34.4698500">
<ele>50.180000</ele>
<time>2023-02-16T12:36:57.828Z</time>
</trkpt>
<trkpt lat="31.4314600" lon="34.4697800">
<ele>49.639999</ele>
<time>2023-02-16T12:36:57.828Z</time>
</trkpt>
<trkpt lat="31.4316500" lon="34.4695100">
<ele>49.599998</ele>
<time>2023-02-16T12:36:57.828Z</time>
</trkpt>
<trkpt lat="31.4317200" lon="34.4694700">
<ele>49.660000</ele>
<time>2023-02-16T12:36:57.828Z</time>
</trkpt>
<trkpt lat="31.4317600" lon="34.4694800">
<ele>49.489998</ele>
<time>2023-02-16T12:36:57.828Z</time>
</trkpt>
<trkpt lat="31.4317700" lon="34.4695200">
<ele>49.290001</ele>
<time>2023-02-16T12:36:57.828Z</time>
</trkpt>
<trkpt lat="31.4317600" lon="34.4696800">
<ele>48.540001</ele>
<time>2023-02-16T12:36:57.828Z</time>
</trkpt>
<trkpt lat="31.4317800" lon="34.4697500">
<ele>48.410000</ele>
<time>2023-02-16T12:36:57.828Z</time>
</trkpt>
<trkpt lat="31.4318500" lon="34.4697800">
<ele>48.660004</ele>
<time>2023-02-16T12:36:57.828Z</time>
</trkpt>
<trkpt lat="31.4318900" lon="34.4697700">
<ele>48.799999</ele>
<time>2023-02-16T12:36:57.828Z</time>
</trkpt>
<trkpt lat="31.4320600" lon="34.4696200">
<ele>49.259998</ele>
<time>2023-02-16T12:36:57.828Z</time>
</trkpt>
<trkpt lat="31.4321900" lon="34.4694300">
<ele>49.000000</ele>
<time>2023-02-16T12:36:57.828Z</time>
</trkpt>
<trkpt lat="31.4322600" lon="34.4693700">
<ele>49.070000</ele>
<time>2023-02-16T12:36:57.828Z</time>
</trkpt>
<trkpt lat="31.4323200" lon="34.4693000">
<ele>49.369999</ele>
<time>2023-02-16T12:36:57.828Z</time>
</trkpt>
<trkpt lat="31.4323300" lon="34.4692400">
<ele>49.570004</ele>
<time>2023-02-16T12:36:57.828Z</time>
</trkpt>
<trkpt lat="31.4323400" lon="34.4691600">
<ele>49.910000</ele>
<time>2023-02-16T12:36:57.828Z</time>
</trkpt>
<trkpt lat="31.4323200" lon="34.4690800">
<ele>50.529999</ele>
<time>2023-02-16T12:36:57.834Z</time>
</trkpt>
<trkpt lat="31.4322500" lon="34.4689500">
<ele>51.459999</ele>
<time>2023-02-16T12:36:57.834Z</time>
</trkpt>
<trkpt lat="31.4322300" lon="34.4688700">
<ele>52.160004</ele>
<time>2023-02-16T12:36:57.834Z</time>
</trkpt>
<trkpt lat="31.4322200" lon="34.4687600">
<ele>52.910000</ele>
<time>2023-02-16T12:36:57.834Z</time>
</trkpt>
<trkpt lat="31.4322400" lon="34.4687100">
<ele>53.349998</ele>
<time>2023-02-16T12:36:57.834Z</time>
</trkpt>
<trkpt lat="31.4322400" lon="34.4687100">
<ele>53.349998</ele>
<time>2023-02-16T12:36:57.834Z</time>
</trkpt>
<trkpt lat="31.4322400" lon="34.4687100">
<ele>53.349998</ele>
<time>2023-02-16T12:36:57.834Z</time>
</trkpt>
<trkpt lat="31.4322400" lon="34.4686900">
<ele>53.500000</ele>
<time>2023-02-16T12:36:57.834Z</time>
</trkpt>
<trkpt lat="31.4323100" lon="34.4686400">
<ele>54.110001</ele>
<time>2023-02-16T12:36:57.834Z</time>
</trkpt>
<trkpt lat="31.4325200" lon="34.4685900">
<ele>55.070000</ele>
<time>2023-02-16T12:36:57.835Z</time>
</trkpt>
<trkpt lat="31.4328600" lon="34.4685400">
<ele>49.559998</ele>
<time>2023-02-16T12:36:57.835Z</time>
</trkpt>
<trkpt lat="31.4329600" lon="34.4685600">
<ele>47.199997</ele>
<time>2023-02-16T12:36:57.835Z</time>
</trkpt>
<trkpt lat="31.4330900" lon="34.4687000">
<ele>43.430000</ele>
<time>2023-02-16T12:36:57.835Z</time>
</trkpt>
<trkpt lat="31.4330900" lon="34.4687000">
<ele>43.430000</ele>
<time>2023-02-16T12:36:57.835Z</time>
</trkpt>
<trkpt lat="31.4330900" lon="34.4687000">
<ele>43.430000</ele>
<time>2023-02-16T12:36:57.835Z</time>
</trkpt>
<trkpt lat="31.4331500" lon="34.4687700">
<ele>42.750000</ele>
<time>2023-02-16T12:36:57.835Z</time>
</trkpt>
<trkpt lat="31.4332400" lon="34.4687800">
<ele>42.060001</ele>
<time>2023-02-16T12:36:57.835Z</time>
</trkpt>
<trkpt lat="31.4333100" lon="34.4687400">
<ele>41.700001</ele>
<time>2023-02-16T12:36:57.835Z</time>
</trkpt>
<trkpt lat="31.4333400" lon="34.4686900">
<ele>41.740002</ele>
<time>2023-02-16T12:36:57.835Z</time>
</trkpt>
<trkpt lat="31.4334500" lon="34.4686800">
<ele>42.060001</ele>
<time>2023-02-16T12:36:57.835Z</time>
</trkpt>
<trkpt lat="31.4335600" lon="34.4685000">
<ele>43.669998</ele>
<time>2023-02-16T12:36:57.835Z</time>
</trkpt>
<trkpt lat="31.4337500" lon="34.4682500">
<ele>45.650002</ele>
<time>2023-02-16T12:36:57.835Z</time>
</trkpt>
<trkpt lat="31.4338200" lon="34.4681800">
<ele>45.889999</ele>
<time>2023-02-16T12:36:57.835Z</time>
</trkpt>
<trkpt lat="31.4338900" lon="34.4681400">
<ele>45.449997</ele>
<time>2023-02-16T12:36:57.835Z</time>
</trkpt>
<trkpt lat="31.4340300" lon="34.4680600">
<ele>42.880001</ele>
<time>2023-02-16T12:36:57.835Z</time>
</trkpt>
<trkpt lat="31.4341900" lon="34.4679300">
<ele>40.860001</ele>
<time>2023-02-16T12:36:57.836Z</time>
</trkpt>
<trkpt lat="31.4342600" lon="34.4679400">
<ele>39.510002</ele>
<time>2023-02-16T12:36:57.836Z</time>
</trkpt>
<trkpt lat="31.4343400" lon="34.4679900">
<ele>37.720001</ele>
<time>2023-02-16T12:36:57.836Z</time>
</trkpt>
<trkpt lat="31.4343700" lon="34.4680600">
<ele>36.799999</ele>
<time>2023-02-16T12:36:57.836Z</time>
</trkpt>
<trkpt lat="31.4344400" lon="34.4684900">
<ele>36.030003</ele>
<time>2023-02-16T12:36:57.836Z</time>
</trkpt>
<trkpt lat="31.4344300" lon="34.4688100">
<ele>36.270000</ele>
<time>2023-02-16T12:36:57.836Z</time>
</trkpt>
<trkpt lat="31.4343900" lon="34.4689000">
<ele>37.290001</ele>
<time>2023-02-16T12:36:57.836Z</time>
</trkpt>
<trkpt lat="31.4341300" lon="34.4690800">
<ele>43.689999</ele>
<time>2023-02-16T12:36:57.836Z</time>
</trkpt>
<trkpt lat="31.4340900" lon="34.4691800">
<ele>44.959999</ele>
<time>2023-02-16T12:36:57.836Z</time>
</trkpt>
<trkpt lat="31.4341000" lon="34.4693300">
<ele>46.340000</ele>
<time>2023-02-16T12:36:57.836Z</time>
</trkpt>
<trkpt lat="31.4341700" lon="34.4697800">
<ele>47.180000</ele>
<time>2023-02-16T12:36:57.836Z</time>
</trkpt>
<trkpt lat="31.4341400" lon="34.4704200">
<ele>52.410000</ele>
<time>2023-02-16T12:36:57.836Z</time>
</trkpt>
<trkpt lat="31.4340800" lon="34.4705800">
<ele>54.519997</ele>
<time>2023-02-16T12:36:57.836Z</time>
</trkpt>
<trkpt lat="31.4340600" lon="34.4706600">
<ele>54.899998</ele>
<time>2023-02-16T12:36:57.836Z</time>
</trkpt>
<trkpt lat="31.4340900" lon="34.4707600">
<ele>55.590004</ele>
<time>2023-02-16T12:36:57.836Z</time>
</trkpt>
<trkpt lat="31.4341700" lon="34.4708400">
<ele>55.840000</ele>
<time>2023-02-16T12:36:57.836Z</time>
</trkpt>
<trkpt lat="31.4343300" lon="34.4709300">
<ele>50.420002</ele>
<time>2023-02-16T12:36:57.837Z</time>
</trkpt>
<trkpt lat="31.4351300" lon="34.4712400">
<ele>42.660000</ele>
<time>2023-02-16T12:36:57.837Z</time>
</trkpt>
<trkpt lat="31.4355100" lon="34.4710000">
<ele>39.199997</ele>
<time>2023-02-16T12:36:57.837Z</time>
</trkpt>
<trkpt lat="31.4357700" lon="34.4712100">
<ele>36.490002</ele>
<time>2023-02-16T12:36:57.837Z</time>
</trkpt>
<trkpt lat="31.4358200" lon="34.4712300">
<ele>36.439999</ele>
<time>2023-02-16T12:36:57.837Z</time>
</trkpt>
<trkpt lat="31.4359200" lon="34.4712700">
<ele>37.820000</ele>
<time>2023-02-16T12:36:57.837Z</time>
</trkpt>
<trkpt lat="31.4361000" lon="34.4714300">
<ele>38.110001</ele>
<time>2023-02-16T12:36:57.837Z</time>
</trkpt>
<trkpt lat="31.4361700" lon="34.4714200">
<ele>39.010002</ele>
<time>2023-02-16T12:36:57.837Z</time>
</trkpt>
<trkpt lat="31.4362600" lon="34.4713500">
<ele>41.070000</ele>
<time>2023-02-16T12:36:57.837Z</time>
</trkpt>
<trkpt lat="31.4363500" lon="34.4713100">
<ele>42.539997</ele>
<time>2023-02-16T12:36:57.837Z</time>
</trkpt>
<trkpt lat="31.4365700" lon="34.4712600">
<ele>39.300003</ele>
<time>2023-02-16T12:36:57.837Z</time>
</trkpt>
<trkpt lat="31.4368400" lon="34.4711600">
<ele>38.720001</ele>
<time>2023-02-16T12:36:57.837Z</time>
</trkpt>
<trkpt lat="31.4369900" lon="34.4710100">
<ele>40.220001</ele>
<time>2023-02-16T12:36:57.837Z</time>
</trkpt>
<trkpt lat="31.4371300" lon="34.4708100">
<ele>43.000000</ele>
<time>2023-02-16T12:36:57.837Z</time>
</trkpt>
<trkpt lat="31.4371800" lon="34.4707500">
<ele>43.379997</ele>
<time>2023-02-16T12:36:57.837Z</time>
</trkpt>
<trkpt lat="31.4372800" lon="34.4706900">
<ele>43.889999</ele>
<time>2023-02-16T12:36:57.837Z</time>
</trkpt>
<trkpt lat="31.4373700" lon="34.4706000">
<ele>43.860001</ele>
<time>2023-02-16T12:36:57.838Z</time>
</trkpt>
<trkpt lat="31.4374500" lon="34.4705500">
<ele>43.840000</ele>
<time>2023-02-16T12:36:57.838Z</time>
</trkpt>
<trkpt lat="31.4376000" lon="34.4705200">
<ele>44.660000</ele>
<time>2023-02-16T12:36:57.838Z</time>
</trkpt>
<trkpt lat="31.4378500" lon="34.4705400">
<ele>46.119999</ele>
<time>2023-02-16T12:36:57.838Z</time>
</trkpt>
<trkpt lat="31.4379200" lon="34.4705500">
<ele>46.470001</ele>
<time>2023-02-16T12:36:57.838Z</time>
</trkpt>
<trkpt lat="31.4379700" lon="34.4705800">
<ele>47.189999</ele>
<time>2023-02-16T12:36:57.838Z</time>
</trkpt>
<trkpt lat="31.4380100" lon="34.4706400">
<ele>48.610001</ele>
<time>2023-02-16T12:36:57.838Z</time>
</trkpt>
<trkpt lat="31.4380400" lon="34.4708900">
<ele>52.899998</ele>
<time>2023-02-16T12:36:57.838Z</time>
</trkpt>
<trkpt lat="31.4381500" lon="34.4711200">
<ele>53.980000</ele>
<time>2023-02-16T12:36:57.838Z</time>
</trkpt>
<trkpt lat="31.4381900" lon="34.4714100">
<ele>64.119995</ele>
<time>2023-02-16T12:36:57.838Z</time>
</trkpt>
<trkpt lat="31.4382900" lon="34.4716900">
<ele>76.709999</ele>
<time>2023-02-16T12:36:57.838Z</time>
</trkpt>
<trkpt lat="31.4382900" lon="34.4718300">
<ele>75.129997</ele>
<time>2023-02-16T12:36:57.838Z</time>
</trkpt>
<trkpt lat="31.4382700" lon="34.4719900">
<ele>72.709999</ele>
<time>2023-02-16T12:36:57.838Z</time>
</trkpt>
<trkpt lat="31.4382700" lon="34.4721200">
<ele>69.690002</ele>
<time>2023-02-16T12:36:57.838Z</time>
</trkpt>
<trkpt lat="31.4383200" lon="34.4722200">
<ele>67.900002</ele>
<time>2023-02-16T12:36:57.838Z</time>
</trkpt>
<trkpt lat="31.4383800" lon="34.4723200">
<ele>66.370003</ele>
<time>2023-02-16T12:36:57.838Z</time>
</trkpt>
<trkpt lat="31.4384000" lon="34.4724400">
<ele>64.760002</ele>
<time>2023-02-16T12:36:57.838Z</time>
</trkpt>
<trkpt lat="31.4383600" lon="34.4725800">
<ele>62.090000</ele>
<time>2023-02-16T12:36:57.838Z</time>
</trkpt>
<trkpt lat="31.4383200" lon="34.4726600">
<ele>59.820000</ele>
<time>2023-02-16T12:36:57.838Z</time>
</trkpt>
<trkpt lat="31.4381800" lon="34.4728500">
<ele>56.099998</ele>
<time>2023-02-16T12:36:57.838Z</time>
</trkpt>
<trkpt lat="31.4381300" lon="34.4729600">
<ele>56.470001</ele>
<time>2023-02-16T12:36:57.839Z</time>
</trkpt>
<trkpt lat="31.4381200" lon="34.4730400">
<ele>57.020000</ele>
<time>2023-02-16T12:36:57.839Z</time>
</trkpt>
<trkpt lat="31.4381300" lon="34.4731100">
<ele>57.880001</ele>
<time>2023-02-16T12:36:57.839Z</time>
</trkpt>
<trkpt lat="31.4381700" lon="34.4731700">
<ele>59.130001</ele>
<time>2023-02-16T12:36:57.839Z</time>
</trkpt>
<trkpt lat="31.4383800" lon="34.4733400">
<ele>61.959999</ele>
<time>2023-02-16T12:36:57.839Z</time>
</trkpt>
<trkpt lat="31.4386100" lon="34.4734800">
<ele>55.900002</ele>
<time>2023-02-16T12:36:57.839Z</time>
</trkpt>
<trkpt lat="31.4387600" lon="34.4736300">
<ele>55.210003</ele>
<time>2023-02-16T12:36:57.839Z</time>
</trkpt>
<trkpt lat="31.4390500" lon="34.4740500">
<ele>61.449997</ele>
<time>2023-02-16T12:36:57.839Z</time>
</trkpt>
<trkpt lat="31.4391100" lon="34.4741500">
<ele>61.439999</ele>
<time>2023-02-16T12:36:57.839Z</time>
</trkpt>
<trkpt lat="31.4391500" lon="34.4744300">
<ele>64.799995</ele>
<time>2023-02-16T12:36:57.839Z</time>
</trkpt>
<trkpt lat="31.4391800" lon="34.4744900">
<ele>64.900002</ele>
<time>2023-02-16T12:36:57.840Z</time>
</trkpt>
<trkpt lat="31.4392500" lon="34.4745600">
<ele>64.279999</ele>
<time>2023-02-16T12:36:57.840Z</time>
</trkpt>
<trkpt lat="31.4393200" lon="34.4745700">
<ele>63.649998</ele>
<time>2023-02-16T12:36:57.840Z</time>
</trkpt>
<trkpt lat="31.4393700" lon="34.4745400">
<ele>63.279999</ele>
<time>2023-02-16T12:36:57.840Z</time>
</trkpt>
<trkpt lat="31.4394600" lon="34.4743800">
<ele>63.039997</ele>
<time>2023-02-16T12:36:57.840Z</time>
</trkpt>
<trkpt lat="31.4395400" lon="34.4743200">
<ele>62.110001</ele>
<time>2023-02-16T12:36:57.840Z</time>
</trkpt>
<trkpt lat="31.4398200" lon="34.4742200">
<ele>58.770000</ele>
<time>2023-02-16T12:36:57.840Z</time>
</trkpt>
<trkpt lat="31.4400000" lon="34.4741900">
<ele>58.000000</ele>
<time>2023-02-16T12:36:57.840Z</time>
</trkpt>
<trkpt lat="31.4400600" lon="34.4742100">
<ele>58.399998</ele>
<time>2023-02-16T12:36:57.840Z</time>
</trkpt>
<trkpt lat="31.4401000" lon="34.4742500">
<ele>58.610001</ele>
<time>2023-02-16T12:36:57.840Z</time>
</trkpt>
<trkpt lat="31.4402300" lon="34.4745100">
<ele>58.829998</ele>
<time>2023-02-16T12:36:57.840Z</time>
</trkpt>
<trkpt lat="31.4404500" lon="34.4746500">
<ele>58.859997</ele>
<time>2023-02-16T12:36:57.840Z</time>
</trkpt>
<trkpt lat="31.4405800" lon="34.4746900">
<ele>58.389999</ele>
<time>2023-02-16T12:36:57.840Z</time>
</trkpt>
<trkpt lat="31.4407700" lon="34.4746700">
<ele>59.139999</ele>
<time>2023-02-16T12:36:57.840Z</time>
</trkpt>
<trkpt lat="31.4409500" lon="34.4747100">
<ele>57.430000</ele>
<time>2023-02-16T12:36:57.840Z</time>
</trkpt>
<trkpt lat="31.4410100" lon="34.4746900">
<ele>57.389999</ele>
<time>2023-02-16T12:36:57.840Z</time>
</trkpt>
<trkpt lat="31.4410400" lon="34.4746600">
<ele>57.750000</ele>
<time>2023-02-16T12:36:57.840Z</time>
</trkpt>
<trkpt lat="31.4410400" lon="34.4746600">
<ele>57.750000</ele>
<time>2023-02-16T12:36:57.841Z</time>
</trkpt>
<trkpt lat="31.4410700" lon="34.4746400">
<ele>57.859997</ele>
<time>2023-02-16T12:36:57.841Z</time>
</trkpt>
<trkpt lat="31.4411400" lon="34.4745000">
<ele>59.710003</ele>
<time>2023-02-16T12:36:57.841Z</time>
</trkpt>
<trkpt lat="31.4411600" lon="34.4744300">
<ele>60.620003</ele>
<time>2023-02-16T12:36:57.841Z</time>
</trkpt>
<trkpt lat="31.4413000" lon="34.4740700">
<ele>61.639999</ele>
<time>2023-02-16T12:36:57.841Z</time>
</trkpt>
<trkpt lat="31.4413200" lon="34.4739200">
<ele>62.110001</ele>
<time>2023-02-16T12:36:57.841Z</time>
</trkpt>
<trkpt lat="31.4413300" lon="34.4736500">
<ele>62.709999</ele>
<time>2023-02-16T12:36:57.841Z</time>
</trkpt>
<trkpt lat="31.4413100" lon="34.4735000">
<ele>63.400002</ele>
<time>2023-02-16T12:36:57.841Z</time>
</trkpt>
<trkpt lat="31.4411100" lon="34.4731100">
<ele>61.369999</ele>
<time>2023-02-16T12:36:57.841Z</time>
</trkpt>
<trkpt lat="31.4409600" lon="34.4729000">
<ele>59.959999</ele>
<time>2023-02-16T12:36:57.841Z</time>
</trkpt>
<trkpt lat="31.4408200" lon="34.4728500">
<ele>58.110001</ele>
<time>2023-02-16T12:36:57.841Z</time>
</trkpt>
<trkpt lat="31.4407800" lon="34.4727900">
<ele>58.320000</ele>
<time>2023-02-16T12:36:57.841Z</time>
</trkpt>
<trkpt lat="31.4407900" lon="34.4727300">
<ele>58.439999</ele>
<time>2023-02-16T12:36:57.841Z</time>
</trkpt>
<trkpt lat="31.4408200" lon="34.4726700">
<ele>58.520000</ele>
<time>2023-02-16T12:36:57.841Z</time>
</trkpt>
<trkpt lat="31.4408900" lon="34.4726100">
<ele>58.919998</ele>
<time>2023-02-16T12:36:57.841Z</time>
</trkpt>
<trkpt lat="31.4410300" lon="34.4726300">
<ele>60.500000</ele>
<time>2023-02-16T12:36:57.841Z</time>
</trkpt>
<trkpt lat="31.4411000" lon="34.4726100">
<ele>60.880001</ele>
<time>2023-02-16T12:36:57.841Z</time>
</trkpt>
<trkpt lat="31.4412900" lon="34.4724400">
<ele>56.719997</ele>
<time>2023-02-16T12:36:57.841Z</time>
</trkpt>
<trkpt lat="31.4413400" lon="34.4723600">
<ele>54.680000</ele>
<time>2023-02-16T12:36:57.841Z</time>
</trkpt>
<trkpt lat="31.4413300" lon="34.4722700">
<ele>53.160000</ele>
<time>2023-02-16T12:36:57.841Z</time>
</trkpt>
<trkpt lat="31.4411900" lon="34.4718900">
<ele>51.239998</ele>
<time>2023-02-16T12:36:57.841Z</time>
</trkpt>
<trkpt lat="31.4411300" lon="34.4718200">
<ele>51.790001</ele>
<time>2023-02-16T12:36:57.841Z</time>
</trkpt>
<trkpt lat="31.4410400" lon="34.4717700">
<ele>51.550003</ele>
<time>2023-02-16T12:36:57.841Z</time>
</trkpt>
<trkpt lat="31.4409700" lon="34.4717000">
<ele>51.119999</ele>
<time>2023-02-16T12:36:57.841Z</time>
</trkpt>
<trkpt lat="31.4409400" lon="34.4716100">
<ele>50.539997</ele>
<time>2023-02-16T12:36:57.841Z</time>
</trkpt>
<trkpt lat="31.4409200" lon="34.4714800">
<ele>49.399998</ele>
<time>2023-02-16T12:36:57.841Z</time>
</trkpt>
<trkpt lat="31.4409400" lon="34.4710400">
<ele>48.639999</ele>
<time>2023-02-16T12:36:57.841Z</time>
</trkpt>
<trkpt lat="31.4409300" lon="34.4709600">
<ele>48.890003</ele>
<time>2023-02-16T12:36:57.841Z</time>
</trkpt>
<trkpt lat="31.4407900" lon="34.4707200">
<ele>48.939999</ele>
<time>2023-02-16T12:36:57.841Z</time>
</trkpt>
<trkpt lat="31.4407500" lon="34.4705700">
<ele>48.719997</ele>
<time>2023-02-16T12:36:57.841Z</time>
</trkpt>
<trkpt lat="31.4407000" lon="34.4704800">
<ele>48.370003</ele>
<time>2023-02-16T12:36:57.841Z</time>
</trkpt>
<trkpt lat="31.4405200" lon="34.4703600">
<ele>48.339996</ele>
<time>2023-02-16T12:36:57.841Z</time>
</trkpt>
<trkpt lat="31.4403100" lon="34.4701200">
<ele>44.759998</ele>
<time>2023-02-16T12:36:57.841Z</time>
</trkpt>
<trkpt lat="31.4402600" lon="34.4699800">
<ele>44.279999</ele>
<time>2023-02-16T12:36:57.841Z</time>
</trkpt>
<trkpt lat="31.4402100" lon="34.4696200">
<ele>48.350002</ele>
<time>2023-02-16T12:36:57.841Z</time>
</trkpt>
<trkpt lat="31.4401300" lon="34.4694200">
<ele>50.750000</ele>
<time>2023-02-16T12:36:57.841Z</time>
</trkpt>
<trkpt lat="31.4398300" lon="34.4691000">
<ele>50.110001</ele>
<time>2023-02-16T12:36:57.843Z</time>
</trkpt>
<trkpt lat="31.4397700" lon="34.4690500">
<ele>50.369999</ele>
<time>2023-02-16T12:36:57.843Z</time>
</trkpt>
<trkpt lat="31.4396800" lon="34.4690600">
<ele>48.310001</ele>
<time>2023-02-16T12:36:57.843Z</time>
</trkpt>
<trkpt lat="31.4395300" lon="34.4691300">
<ele>42.299999</ele>
<time>2023-02-16T12:36:57.843Z</time>
</trkpt>
<trkpt lat="31.4395000" lon="34.4691600">
<ele>40.459999</ele>
<time>2023-02-16T12:36:57.843Z</time>
</trkpt>
<trkpt lat="31.4394800" lon="34.4692400">
<ele>39.670002</ele>
<time>2023-02-16T12:36:57.843Z</time>
</trkpt>
<trkpt lat="31.4394700" lon="34.4693400">
<ele>39.380001</ele>
<time>2023-02-16T12:36:57.843Z</time>
</trkpt>
<trkpt lat="31.4394400" lon="34.4694300">
<ele>39.110001</ele>
<time>2023-02-16T12:36:57.843Z</time>
</trkpt>
<trkpt lat="31.4393400" lon="34.4695100">
<ele>42.580002</ele>
<time>2023-02-16T12:36:57.843Z</time>
</trkpt>
<trkpt lat="31.4392800" lon="34.4695200">
<ele>44.230000</ele>
<time>2023-02-16T12:36:57.843Z</time>
</trkpt>
<trkpt lat="31.4392300" lon="34.4695100">
<ele>45.349998</ele>
<time>2023-02-16T12:36:57.843Z</time>
</trkpt>
<trkpt lat="31.4391400" lon="34.4694300">
<ele>45.470001</ele>
<time>2023-02-16T12:36:57.843Z</time>
</trkpt>
<trkpt lat="31.4390400" lon="34.4692300">
<ele>42.560001</ele>
<time>2023-02-16T12:36:57.843Z</time>
</trkpt>
<trkpt lat="31.4388600" lon="34.4690000">
<ele>41.950001</ele>
<time>2023-02-16T12:36:57.843Z</time>
</trkpt>
<trkpt lat="31.4387900" lon="34.4688500">
<ele>41.840000</ele>
<time>2023-02-16T12:36:57.843Z</time>
</trkpt>
<trkpt lat="31.4387900" lon="34.4687200">
<ele>40.099998</ele>
<time>2023-02-16T12:36:57.843Z</time>
</trkpt>
<trkpt lat="31.4389100" lon="34.4684400">
<ele>38.090000</ele>
<time>2023-02-16T12:36:57.843Z</time>
</trkpt>
<trkpt lat="31.4390300" lon="34.4681400">
<ele>39.540001</ele>
<time>2023-02-16T12:36:57.844Z</time>
</trkpt>
<trkpt lat="31.4391000" lon="34.4679500">
<ele>41.559998</ele>
<time>2023-02-16T12:36:57.844Z</time>
</trkpt>
<trkpt lat="31.4392500" lon="34.4676900">
<ele>45.310001</ele>
<time>2023-02-16T12:36:57.844Z</time>
</trkpt>
<trkpt lat="31.4394600" lon="34.4675500">
<ele>47.540001</ele>
<time>2023-02-16T12:36:57.844Z</time>
</trkpt>
<trkpt lat="31.4395400" lon="34.4675400">
<ele>48.370003</ele>
<time>2023-02-16T12:36:57.844Z</time>
</trkpt>
<trkpt lat="31.4396200" lon="34.4675600">
<ele>49.459999</ele>
<time>2023-02-16T12:36:57.844Z</time>
</trkpt>
<trkpt lat="31.4400200" lon="34.4677500">
<ele>58.770000</ele>
<time>2023-02-16T12:36:57.844Z</time>
</trkpt>
<trkpt lat="31.4401300" lon="34.4677600">
<ele>59.410000</ele>
<time>2023-02-16T12:36:57.844Z</time>
</trkpt>
<trkpt lat="31.4404200" lon="34.4676700">
<ele>63.060001</ele>
<time>2023-02-16T12:36:57.844Z</time>
</trkpt>
<trkpt lat="31.4405100" lon="34.4676100">
<ele>65.279999</ele>
<time>2023-02-16T12:36:57.844Z</time>
</trkpt>
<trkpt lat="31.4405600" lon="34.4675400">
<ele>68.180000</ele>
<time>2023-02-16T12:36:57.844Z</time>
</trkpt>
<trkpt lat="31.4406500" lon="34.4673400">
<ele>66.050003</ele>
<time>2023-02-16T12:36:57.844Z</time>
</trkpt>
<trkpt lat="31.4407700" lon="34.4671400">
<ele>61.360001</ele>
<time>2023-02-16T12:36:57.844Z</time>
</trkpt>
<trkpt lat="31.4408600" lon="34.4670300">
<ele>58.410004</ele>
<time>2023-02-16T12:36:57.844Z</time>
</trkpt>
<trkpt lat="31.4412700" lon="34.4668100">
<ele>51.820000</ele>
<time>2023-02-16T12:36:57.844Z</time>
</trkpt>
<trkpt lat="31.4413500" lon="34.4667400">
<ele>51.219997</ele>
<time>2023-02-16T12:36:57.844Z</time>
</trkpt>
<trkpt lat="31.4413500" lon="34.4667400">
<ele>51.219997</ele>
<time>2023-02-16T12:36:57.845Z</time>
</trkpt>
<trkpt lat="31.4413500" lon="34.4667400">
<ele>51.219997</ele>
<time>2023-02-16T12:36:57.845Z</time>
</trkpt>
<trkpt lat="31.4413500" lon="34.4667400">
<ele>51.219997</ele>
<time>2023-02-16T12:36:57.845Z</time>
</trkpt>
<trkpt lat="31.4414300" lon="34.4666100">
<ele>51.609997</ele>
<time>2023-02-16T12:36:57.845Z</time>
</trkpt>
<trkpt lat="31.4415800" lon="34.4663500">
<ele>52.299999</ele>
<time>2023-02-16T12:36:57.845Z</time>
</trkpt>
<trkpt lat="31.4416600" lon="34.4660600">
<ele>48.169998</ele>
<time>2023-02-16T12:36:57.845Z</time>
</trkpt>
<trkpt lat="31.4418000" lon="34.4658500">
<ele>48.009998</ele>
<time>2023-02-16T12:36:57.845Z</time>
</trkpt>
<trkpt lat="31.4418300" lon="34.4657000">
<ele>49.150002</ele>
<time>2023-02-16T12:36:57.845Z</time>
</trkpt>
<trkpt lat="31.4419900" lon="34.4655100">
<ele>51.710003</ele>
<time>2023-02-16T12:36:57.845Z</time>
</trkpt>
<trkpt lat="31.4420000" lon="34.4654300">
<ele>52.739998</ele>
<time>2023-02-16T12:36:57.845Z</time>
</trkpt>
<trkpt lat="31.4420000" lon="34.4653300">
<ele>53.959999</ele>
<time>2023-02-16T12:36:57.845Z</time>
</trkpt>
<trkpt lat="31.4419700" lon="34.4652200">
<ele>54.730000</ele>
<time>2023-02-16T12:36:57.845Z</time>
</trkpt>
<trkpt lat="31.4419200" lon="34.4651200">
<ele>55.290001</ele>
<time>2023-02-16T12:36:57.846Z</time>
</trkpt>
<trkpt lat="31.4418200" lon="34.4650200">
<ele>57.099998</ele>
<time>2023-02-16T12:36:57.846Z</time>
</trkpt>
<trkpt lat="31.4416800" lon="34.4649400">
<ele>60.369999</ele>
<time>2023-02-16T12:36:57.846Z</time>
</trkpt>
<trkpt lat="31.4415400" lon="34.4649500">
<ele>60.470001</ele>
<time>2023-02-16T12:36:57.846Z</time>
</trkpt>
<trkpt lat="31.4412700" lon="34.4651000">
<ele>57.220001</ele>
<time>2023-02-16T12:36:57.846Z</time>
</trkpt>
<trkpt lat="31.4411900" lon="34.4651000">
<ele>56.570000</ele>
<time>2023-02-16T12:36:57.846Z</time>
</trkpt>
<trkpt lat="31.4411200" lon="34.4650600">
<ele>56.430000</ele>
<time>2023-02-16T12:36:57.846Z</time>
</trkpt>
<trkpt lat="31.4410700" lon="34.4650100">
<ele>56.450001</ele>
<time>2023-02-16T12:36:57.846Z</time>
</trkpt>
<trkpt lat="31.4410200" lon="34.4648900">
<ele>56.549999</ele>
<time>2023-02-16T12:36:57.846Z</time>
</trkpt>
<trkpt lat="31.4410100" lon="34.4647400">
<ele>57.099998</ele>
<time>2023-02-16T12:36:57.846Z</time>
</trkpt>
<trkpt lat="31.4410300" lon="34.4645700">
<ele>56.380001</ele>
<time>2023-02-16T12:36:57.846Z</time>
</trkpt>
<trkpt lat="31.4410300" lon="34.4643700">
<ele>53.920002</ele>
<time>2023-02-16T12:36:57.846Z</time>
</trkpt>
<trkpt lat="31.4410500" lon="34.4642800">
<ele>52.340000</ele>
<time>2023-02-16T12:36:57.846Z</time>
</trkpt>
<trkpt lat="31.4410800" lon="34.4642200">
<ele>51.560001</ele>
<time>2023-02-16T12:36:57.846Z</time>
</trkpt>
<trkpt lat="31.4411400" lon="34.4641500">
<ele>51.730000</ele>
<time>2023-02-16T12:36:57.846Z</time>
</trkpt>
<trkpt lat="31.4415100" lon="34.4639600">
<ele>56.649998</ele>
<time>2023-02-16T12:36:57.846Z</time>
</trkpt>
<trkpt lat="31.4418700" lon="34.4638300">
<ele>54.170002</ele>
<time>2023-02-16T12:36:57.846Z</time>
</trkpt>
<trkpt lat="31.4420500" lon="34.4638200">
<ele>55.630001</ele>
<time>2023-02-16T12:36:57.846Z</time>
</trkpt>
<trkpt lat="31.4421200" lon="34.4638500">
<ele>57.740002</ele>
<time>2023-02-16T12:36:57.847Z</time>
</trkpt>
<trkpt lat="31.4422700" lon="34.4639600">
<ele>61.560001</ele>
<time>2023-02-16T12:36:57.847Z</time>
</trkpt>
<trkpt lat="31.4423200" lon="34.4639700">
<ele>61.950001</ele>
<time>2023-02-16T12:36:57.847Z</time>
</trkpt>
<trkpt lat="31.4424300" lon="34.4639300">
<ele>62.230003</ele>
<time>2023-02-16T12:36:57.847Z</time>
</trkpt>
<trkpt lat="31.4424900" lon="34.4638700">
<ele>61.560001</ele>
<time>2023-02-16T12:36:57.847Z</time>
</trkpt>
<trkpt lat="31.4426400" lon="34.4635400">
<ele>55.869999</ele>
<time>2023-02-16T12:36:57.847Z</time>
</trkpt>
<trkpt lat="31.4426900" lon="34.4634900">
<ele>55.830002</ele>
<time>2023-02-16T12:36:57.847Z</time>
</trkpt>
<trkpt lat="31.4428000" lon="34.4634300">
<ele>56.860001</ele>
<time>2023-02-16T12:36:57.847Z</time>
</trkpt>
<trkpt lat="31.4429000" lon="34.4634400">
<ele>59.190002</ele>
<time>2023-02-16T12:36:57.847Z</time>
</trkpt>
<trkpt lat="31.4429800" lon="34.4634600">
<ele>61.160000</ele>
<time>2023-02-16T12:36:57.847Z</time>
</trkpt>
<trkpt lat="31.4431400" lon="34.4636100">
<ele>65.209999</ele>
<time>2023-02-16T12:36:57.848Z</time>
</trkpt>
<trkpt lat="31.4432500" lon="34.4636600">
<ele>66.980003</ele>
<time>2023-02-16T12:36:57.848Z</time>
</trkpt>
<trkpt lat="31.4437700" lon="34.4637600">
<ele>68.190002</ele>
<time>2023-02-16T12:36:57.848Z</time>
</trkpt>
<trkpt lat="31.4438300" lon="34.4637600">
<ele>67.860001</ele>
<time>2023-02-16T12:36:57.848Z</time>
</trkpt>
<trkpt lat="31.4440900" lon="34.4636800">
<ele>64.349998</ele>
<time>2023-02-16T12:36:57.848Z</time>
</trkpt>
<trkpt lat="31.4446100" lon="34.4636000">
<ele>54.779999</ele>
<time>2023-02-16T12:36:57.848Z</time>
</trkpt>
<trkpt lat="31.4446600" lon="34.4635700">
<ele>54.380001</ele>
<time>2023-02-16T12:36:57.848Z</time>
</trkpt>
<trkpt lat="31.4447100" lon="34.4635000">
<ele>54.049999</ele>
<time>2023-02-16T12:36:57.848Z</time>
</trkpt>
<trkpt lat="31.4447100" lon="34.4634200">
<ele>54.029999</ele>
<time>2023-02-16T12:36:57.848Z</time>
</trkpt>
<trkpt lat="31.4445400" lon="34.4628400">
<ele>58.529999</ele>
<time>2023-02-16T12:36:57.848Z</time>
</trkpt>
<trkpt lat="31.4445500" lon="34.4627600">
<ele>59.340000</ele>
<time>2023-02-16T12:36:57.848Z</time>
</trkpt>
<trkpt lat="31.4446000" lon="34.4627100">
<ele>60.439999</ele>
<time>2023-02-16T12:36:57.848Z</time>
</trkpt>
<trkpt lat="31.4447400" lon="34.4626100">
<ele>62.879997</ele>
<time>2023-02-16T12:36:57.848Z</time>
</trkpt>
<trkpt lat="31.4447900" lon="34.4625400">
<ele>64.060005</ele>
<time>2023-02-16T12:36:57.848Z</time>
</trkpt>
<trkpt lat="31.4447900" lon="34.4624400">
<ele>63.799999</ele>
<time>2023-02-16T12:36:57.848Z</time>
</trkpt>
<trkpt lat="31.4447400" lon="34.4623800">
<ele>63.070000</ele>
<time>2023-02-16T12:36:57.848Z</time>
</trkpt>
<trkpt lat="31.4447000" lon="34.4623600">
<ele>62.889999</ele>
<time>2023-02-16T12:36:57.848Z</time>
</trkpt>
<trkpt lat="31.4446400" lon="34.4623500">
<ele>62.669998</ele>
<time>2023-02-16T12:36:57.848Z</time>
</trkpt>
<trkpt lat="31.4446400" lon="34.4623500">
<ele>62.669998</ele>
<time>2023-02-16T12:36:57.849Z</time>
</trkpt>
<trkpt lat="31.4445300" lon="34.4623400">
<ele>62.270000</ele>
<time>2023-02-16T12:36:57.849Z</time>
</trkpt>
<trkpt lat="31.4444300" lon="34.4623800">
<ele>60.910000</ele>
<time>2023-02-16T12:36:57.849Z</time>
</trkpt>
<trkpt lat="31.4442300" lon="34.4625200">
<ele>55.990002</ele>
<time>2023-02-16T12:36:57.849Z</time>
</trkpt>
<trkpt lat="31.4441100" lon="34.4625500">
<ele>55.360001</ele>
<time>2023-02-16T12:36:57.849Z</time>
</trkpt>
<trkpt lat="31.4439900" lon="34.4625400">
<ele>55.290001</ele>
<time>2023-02-16T12:36:57.849Z</time>
</trkpt>
<trkpt lat="31.4438800" lon="34.4624800">
<ele>55.279999</ele>
<time>2023-02-16T12:36:57.849Z</time>
</trkpt>
<trkpt lat="31.4438000" lon="34.4624200">
<ele>55.879997</ele>
<time>2023-02-16T12:36:57.849Z</time>
</trkpt>
<trkpt lat="31.4435900" lon="34.4622300">
<ele>56.050003</ele>
<time>2023-02-16T12:36:57.849Z</time>
</trkpt>
<trkpt lat="31.4435000" lon="34.4621300">
<ele>57.200001</ele>
<time>2023-02-16T12:36:57.849Z</time>
</trkpt>
<trkpt lat="31.4434100" lon="34.4620700">
<ele>57.329998</ele>
<time>2023-02-16T12:36:57.849Z</time>
</trkpt>
<trkpt lat="31.4432100" lon="34.4620300">
<ele>57.480000</ele>
<time>2023-02-16T12:36:57.849Z</time>
</trkpt>
<trkpt lat="31.4431200" lon="34.4619900">
<ele>58.160000</ele>
<time>2023-02-16T12:36:57.849Z</time>
</trkpt>
<trkpt lat="31.4429500" lon="34.4618200">
<ele>56.450001</ele>
<time>2023-02-16T12:36:57.849Z</time>
</trkpt>
<trkpt lat="31.4428600" lon="34.4617100">
<ele>53.419998</ele>
<time>2023-02-16T12:36:57.849Z</time>
</trkpt>
<trkpt lat="31.4428000" lon="34.4615700">
<ele>51.450001</ele>
<time>2023-02-16T12:36:57.849Z</time>
</trkpt>
<trkpt lat="31.4427500" lon="34.4615000">
<ele>50.859997</ele>
<time>2023-02-16T12:36:57.849Z</time>
</trkpt>
<trkpt lat="31.4427200" lon="34.4614900">
<ele>50.720001</ele>
<time>2023-02-16T12:36:57.850Z</time>
</trkpt>
<trkpt lat="31.4426300" lon="34.4615000">
<ele>50.260002</ele>
<time>2023-02-16T12:36:57.850Z</time>
</trkpt>
<trkpt lat="31.4424200" lon="34.4617600">
<ele>50.149998</ele>
<time>2023-02-16T12:36:57.850Z</time>
</trkpt>
<trkpt lat="31.4422500" lon="34.4618400">
<ele>51.490002</ele>
<time>2023-02-16T12:36:57.850Z</time>
</trkpt>
<trkpt lat="31.4421800" lon="34.4619000">
<ele>51.910000</ele>
<time>2023-02-16T12:36:57.850Z</time>
</trkpt>
<trkpt lat="31.4420700" lon="34.4620300">
<ele>52.919998</ele>
<time>2023-02-16T12:36:57.850Z</time>
</trkpt>
<trkpt lat="31.4420000" lon="34.4620800">
<ele>53.460003</ele>
<time>2023-02-16T12:36:57.850Z</time>
</trkpt>
<trkpt lat="31.4419300" lon="34.4620900">
<ele>53.189999</ele>
<time>2023-02-16T12:36:57.850Z</time>
</trkpt>
<trkpt lat="31.4417000" lon="34.4621000">
<ele>47.240002</ele>
<time>2023-02-16T12:36:57.850Z</time>
</trkpt>
<trkpt lat="31.4409500" lon="34.4618900">
<ele>47.779999</ele>
<time>2023-02-16T12:36:57.850Z</time>
</trkpt>
<trkpt lat="31.4408600" lon="34.4619000">
<ele>49.020000</ele>
<time>2023-02-16T12:36:57.850Z</time>
</trkpt>
<trkpt lat="31.4406400" lon="34.4619800">
<ele>49.469997</ele>
<time>2023-02-16T12:36:57.850Z</time>
</trkpt>
<trkpt lat="31.4405900" lon="34.4620200">
<ele>49.430000</ele>
<time>2023-02-16T12:36:57.850Z</time>
</trkpt>
<trkpt lat="31.4405400" lon="34.4620800">
<ele>49.369999</ele>
<time>2023-02-16T12:36:57.850Z</time>
</trkpt>
<trkpt lat="31.4404900" lon="34.4621300">
<ele>49.350002</ele>
<time>2023-02-16T12:36:57.851Z</time>
</trkpt>
<trkpt lat="31.4405500" lon="34.4622800">
<ele>49.590000</ele>
<time>2023-02-16T12:36:57.851Z</time>
</trkpt>
<trkpt lat="31.4405400" lon="34.4623300">
<ele>49.270000</ele>
<time>2023-02-16T12:36:57.851Z</time>
</trkpt>
<trkpt lat="31.4403600" lon="34.4625600">
<ele>48.760002</ele>
<time>2023-02-16T12:36:57.851Z</time>
</trkpt>
<trkpt lat="31.4402500" lon="34.4626400">
<ele>48.440002</ele>
<time>2023-02-16T12:36:57.851Z</time>
</trkpt>
<trkpt lat="31.4402000" lon="34.4627000">
<ele>47.639999</ele>
<time>2023-02-16T12:36:57.851Z</time>
</trkpt>
<trkpt lat="31.4401900" lon="34.4628200">
<ele>46.530003</ele>
<time>2023-02-16T12:36:57.851Z</time>
</trkpt>
<trkpt lat="31.4402400" lon="34.4630500">
<ele>45.880001</ele>
<time>2023-02-16T12:36:57.851Z</time>
</trkpt>
<trkpt lat="31.4402300" lon="34.4631400">
<ele>46.180000</ele>
<time>2023-02-16T12:36:57.851Z</time>
</trkpt>
<trkpt lat="31.4401900" lon="34.4634900">
<ele>47.029999</ele>
<time>2023-02-16T12:36:57.851Z</time>
</trkpt>
<trkpt lat="31.4401600" lon="34.4635600">
<ele>46.779999</ele>
<time>2023-02-16T12:36:57.851Z</time>
</trkpt>
<trkpt lat="31.4401100" lon="34.4636300">
<ele>46.220001</ele>
<time>2023-02-16T12:36:57.851Z</time>
</trkpt>
<trkpt lat="31.4396500" lon="34.4638400">
<ele>44.920002</ele>
<time>2023-02-16T12:36:57.851Z</time>
</trkpt>
<trkpt lat="31.4395100" lon="34.4638900">
<ele>42.190002</ele>
<time>2023-02-16T12:36:57.851Z</time>
</trkpt>
<trkpt lat="31.4393500" lon="34.4640000">
<ele>41.459999</ele>
<time>2023-02-16T12:36:57.852Z</time>
</trkpt>
<trkpt lat="31.4392400" lon="34.4640300">
<ele>41.280003</ele>
<time>2023-02-16T12:36:57.852Z</time>
</trkpt>
<trkpt lat="31.4390100" lon="34.4640100">
<ele>42.070000</ele>
<time>2023-02-16T12:36:57.852Z</time>
</trkpt>
<trkpt lat="31.4387000" lon="34.4641300">
<ele>40.960003</ele>
<time>2023-02-16T12:36:57.852Z</time>
</trkpt>
<trkpt lat="31.4386000" lon="34.4641400">
<ele>39.959999</ele>
<time>2023-02-16T12:36:57.852Z</time>
</trkpt>
<trkpt lat="31.4384500" lon="34.4641400">
<ele>39.419998</ele>
<time>2023-02-16T12:36:57.852Z</time>
</trkpt>
<trkpt lat="31.4383800" lon="34.4641200">
<ele>39.169998</ele>
<time>2023-02-16T12:36:57.852Z</time>
</trkpt>
<trkpt lat="31.4382000" lon="34.4640500">
<ele>36.399998</ele>
<time>2023-02-16T12:36:57.852Z</time>
</trkpt>
<trkpt lat="31.4381000" lon="34.4640500">
<ele>34.450001</ele>
<time>2023-02-16T12:36:57.852Z</time>
</trkpt>
<trkpt lat="31.4378900" lon="34.4641000">
<ele>31.519999</ele>
<time>2023-02-16T12:36:57.852Z</time>
</trkpt>
<trkpt lat="31.4377500" lon="34.4641300">
<ele>30.210001</ele>
<time>2023-02-16T12:36:57.852Z</time>
</trkpt>
<trkpt lat="31.4377100" lon="34.4641900">
<ele>30.700001</ele>
<time>2023-02-16T12:36:57.852Z</time>
</trkpt>
<trkpt lat="31.4377500" lon="34.4645400">
<ele>32.930000</ele>
<time>2023-02-16T12:36:57.852Z</time>
</trkpt>
<trkpt lat="31.4378600" lon="34.4648700">
<ele>32.570000</ele>
<time>2023-02-16T12:36:57.852Z</time>
</trkpt>
<trkpt lat="31.4379400" lon="34.4650800">
<ele>31.000000</ele>
<time>2023-02-16T12:36:57.852Z</time>
</trkpt>
<trkpt lat="31.4379700" lon="34.4651600">
<ele>31.010000</ele>
<time>2023-02-16T12:36:57.852Z</time>
</trkpt>
<trkpt lat="31.4379700" lon="34.4652400">
<ele>31.209999</ele>
<time>2023-02-16T12:36:57.852Z</time>
</trkpt>
<trkpt lat="31.4379200" lon="34.4653400">
<ele>31.939999</ele>
<time>2023-02-16T12:36:57.852Z</time>
</trkpt>
<trkpt lat="31.4376900" lon="34.4656000">
<ele>33.680000</ele>
<time>2023-02-16T12:36:57.852Z</time>
</trkpt>
<trkpt lat="31.4375000" lon="34.4658800">
<ele>36.169998</ele>
<time>2023-02-16T12:36:57.853Z</time>
</trkpt>
<trkpt lat="31.4374200" lon="34.4661400">
<ele>36.529999</ele>
<time>2023-02-16T12:36:57.853Z</time>
</trkpt>
<trkpt lat="31.4373900" lon="34.4664800">
<ele>36.549999</ele>
<time>2023-02-16T12:36:57.853Z</time>
</trkpt>
<trkpt lat="31.4373100" lon="34.4667600">
<ele>34.070000</ele>
<time>2023-02-16T12:36:57.853Z</time>
</trkpt>
<trkpt lat="31.4372800" lon="34.4668300">
<ele>33.360001</ele>
<time>2023-02-16T12:36:57.853Z</time>
</trkpt>
<trkpt lat="31.4372200" lon="34.4668900">
<ele>32.410000</ele>
<time>2023-02-16T12:36:57.853Z</time>
</trkpt>
<trkpt lat="31.4371500" lon="34.4669200">
<ele>32.889999</ele>
<time>2023-02-16T12:36:57.853Z</time>
</trkpt>
<trkpt lat="31.4370700" lon="34.4669200">
<ele>33.680000</ele>
<time>2023-02-16T12:36:57.853Z</time>
</trkpt>
<trkpt lat="31.4368900" lon="34.4668700">
<ele>35.660000</ele>
<time>2023-02-16T12:36:57.853Z</time>
</trkpt>
<trkpt lat="31.4368200" lon="34.4668700">
<ele>36.849998</ele>
<time>2023-02-16T12:36:57.853Z</time>
</trkpt>
<trkpt lat="31.4367400" lon="34.4668900">
<ele>38.340000</ele>
<time>2023-02-16T12:36:57.853Z</time>
</trkpt>
<trkpt lat="31.4363800" lon="34.4670800">
<ele>43.149998</ele>
<time>2023-02-16T12:36:57.853Z</time>
</trkpt>
<trkpt lat="31.4362200" lon="34.4670600">
<ele>44.040001</ele>
<time>2023-02-16T12:36:57.854Z</time>
</trkpt>
<trkpt lat="31.4360200" lon="34.4670800">
<ele>43.049999</ele>
<time>2023-02-16T12:36:57.854Z</time>
</trkpt>
<trkpt lat="31.4356900" lon="34.4669800">
<ele>42.290001</ele>
<time>2023-02-16T12:36:57.854Z</time>
</trkpt>
<trkpt lat="31.4356100" lon="34.4670000">
<ele>41.720001</ele>
<time>2023-02-16T12:36:57.854Z</time>
</trkpt>
<trkpt lat="31.4355600" lon="34.4670600">
<ele>40.109997</ele>
<time>2023-02-16T12:36:57.854Z</time>
</trkpt>
<trkpt lat="31.4353700" lon="34.4675000">
<ele>34.329998</ele>
<time>2023-02-16T12:36:57.854Z</time>
</trkpt>
<trkpt lat="31.4353200" lon="34.4675400">
<ele>33.869999</ele>
<time>2023-02-16T12:36:57.854Z</time>
</trkpt>
<trkpt lat="31.4352800" lon="34.4675400">
<ele>33.320000</ele>
<time>2023-02-16T12:36:57.854Z</time>
</trkpt>
<trkpt lat="31.4351500" lon="34.4674500">
<ele>35.389999</ele>
<time>2023-02-16T12:36:57.854Z</time>
</trkpt>
<trkpt lat="31.4350200" lon="34.4674000">
<ele>35.790001</ele>
<time>2023-02-16T12:36:57.854Z</time>
</trkpt>
<trkpt lat="31.4348900" lon="34.4673800">
<ele>36.940002</ele>
<time>2023-02-16T12:36:57.854Z</time>
</trkpt>
<trkpt lat="31.4347800" lon="34.4674100">
<ele>38.950001</ele>
<time>2023-02-16T12:36:57.854Z</time>
</trkpt>
<trkpt lat="31.4346700" lon="34.4674700">
<ele>40.290001</ele>
<time>2023-02-16T12:36:57.854Z</time>
</trkpt>
<trkpt lat="31.4346100" lon="34.4675000">
<ele>40.189999</ele>
<time>2023-02-16T12:36:57.854Z</time>
</trkpt>
<trkpt lat="31.4344700" lon="34.4675900">
<ele>38.630001</ele>
<time>2023-02-16T12:36:57.854Z</time>
</trkpt>
<trkpt lat="31.4343900" lon="34.4676700">
<ele>39.680000</ele>
<time>2023-02-16T12:36:57.854Z</time>
</trkpt>
<trkpt lat="31.4343100" lon="34.4678000">
<ele>40.150002</ele>
<time>2023-02-16T12:36:57.855Z</time>
</trkpt>
<trkpt lat="31.4342000" lon="34.4679200">
<ele>40.849998</ele>
<time>2023-02-16T12:36:57.855Z</time>
</trkpt>
<trkpt lat="31.4341900" lon="34.4679300">
<ele>40.860001</ele>
<time>2023-02-16T12:36:57.855Z</time>
</trkpt>
<trkpt lat="31.4340300" lon="34.4680600">
<ele>42.880001</ele>
<time>2023-02-16T12:36:57.855Z</time>
</trkpt>
<trkpt lat="31.4338900" lon="34.4681400">
<ele>45.449997</ele>
<time>2023-02-16T12:36:57.855Z</time>
</trkpt>
<trkpt lat="31.4335500" lon="34.4681300">
<ele>51.580002</ele>
<time>2023-02-16T12:36:57.855Z</time>
</trkpt>
<trkpt lat="31.4333900" lon="34.4682100">
<ele>51.580002</ele>
<time>2023-02-16T12:36:57.855Z</time>
</trkpt>
<trkpt lat="31.4333700" lon="34.4681800">
<ele>53.049999</ele>
<time>2023-02-16T12:36:57.855Z</time>
</trkpt>
<trkpt lat="31.4332500" lon="34.4681200">
<ele>55.039997</ele>
<time>2023-02-16T12:36:57.855Z</time>
</trkpt>
<trkpt lat="31.4331500" lon="34.4680500">
<ele>55.090000</ele>
<time>2023-02-16T12:36:57.855Z</time>
</trkpt>
<trkpt lat="31.4330400" lon="34.4679900">
<ele>53.490002</ele>
<time>2023-02-16T12:36:57.855Z</time>
</trkpt>
<trkpt lat="31.4330400" lon="34.4679900">
<ele>53.490002</ele>
<time>2023-02-16T12:36:57.855Z</time>
</trkpt>
<trkpt lat="31.4330400" lon="34.4679900">
<ele>53.490002</ele>
<time>2023-02-16T12:36:57.855Z</time>
</trkpt>
<trkpt lat="31.4329500" lon="34.4679400">
<ele>52.480000</ele>
<time>2023-02-16T12:36:57.855Z</time>
</trkpt>
<trkpt lat="31.4327800" lon="34.4677700">
<ele>49.050003</ele>
<time>2023-02-16T12:36:57.855Z</time>
</trkpt>
<trkpt lat="31.4326700" lon="34.4676900">
<ele>48.900002</ele>
<time>2023-02-16T12:36:57.855Z</time>
</trkpt>
<trkpt lat="31.4324000" lon="34.4676300">
<ele>47.700001</ele>
<time>2023-02-16T12:36:57.855Z</time>
</trkpt>
<trkpt lat="31.4320300" lon="34.4676600">
<ele>46.739998</ele>
<time>2023-02-16T12:36:57.856Z</time>
</trkpt>
<trkpt lat="31.4318500" lon="34.4675700">
<ele>45.770000</ele>
<time>2023-02-16T12:36:57.856Z</time>
</trkpt>
<trkpt lat="31.4314500" lon="34.4674400">
<ele>55.920002</ele>
<time>2023-02-16T12:36:57.856Z</time>
</trkpt>
<trkpt lat="31.4314500" lon="34.4674400">
<ele>55.920002</ele>
<time>2023-02-16T12:36:57.856Z</time>
</trkpt>
<trkpt lat="31.4314500" lon="34.4674400">
<ele>55.920002</ele>
<time>2023-02-16T12:36:57.856Z</time>
</trkpt>
<trkpt lat="31.4312300" lon="34.4673800">
<ele>59.529999</ele>
<time>2023-02-16T12:36:57.856Z</time>
</trkpt>
<trkpt lat="31.4309900" lon="34.4672000">
<ele>61.000004</ele>
<time>2023-02-16T12:36:57.856Z</time>
</trkpt>
<trkpt lat="31.4308600" lon="34.4670000">
<ele>60.410000</ele>
<time>2023-02-16T12:36:57.856Z</time>
</trkpt>
<trkpt lat="31.4307700" lon="34.4669400">
<ele>60.130001</ele>
<time>2023-02-16T12:36:57.856Z</time>
</trkpt>
<trkpt lat="31.4307000" lon="34.4669200">
<ele>59.459999</ele>
<time>2023-02-16T12:36:57.856Z</time>
</trkpt>
<trkpt lat="31.4305300" lon="34.4669100">
<ele>58.280003</ele>
<time>2023-02-16T12:36:57.856Z</time>
</trkpt>
<trkpt lat="31.4304700" lon="34.4669100">
<ele>58.960003</ele>
<time>2023-02-16T12:36:57.856Z</time>
</trkpt>
<trkpt lat="31.4302300" lon="34.4668800">
<ele>61.230003</ele>
<time>2023-02-16T12:36:57.856Z</time>
</trkpt>
<trkpt lat="31.4300900" lon="34.4668900">
<ele>61.200001</ele>
<time>2023-02-16T12:36:57.856Z</time>
</trkpt>
<trkpt lat="31.4300000" lon="34.4668300">
<ele>61.410000</ele>
<time>2023-02-16T12:36:57.856Z</time>
</trkpt>
<trkpt lat="31.4299200" lon="34.4667100">
<ele>61.750000</ele>
<time>2023-02-16T12:36:57.856Z</time>
</trkpt>
<trkpt lat="31.4298600" lon="34.4665000">
<ele>61.690002</ele>
<time>2023-02-16T12:36:57.856Z</time>
</trkpt>
<trkpt lat="31.4298500" lon="34.4664100">
<ele>61.430000</ele>
<time>2023-02-16T12:36:57.856Z</time>
</trkpt>
<trkpt lat="31.4298900" lon="34.4662900">
<ele>62.820000</ele>
<time>2023-02-16T12:36:57.856Z</time>
</trkpt>
<trkpt lat="31.4300000" lon="34.4661900">
<ele>67.299995</ele>
<time>2023-02-16T12:36:57.856Z</time>
</trkpt>
<trkpt lat="31.4301400" lon="34.4661400">
<ele>67.680000</ele>
<time>2023-02-16T12:36:57.857Z</time>
</trkpt>
<trkpt lat="31.4302800" lon="34.4661400">
<ele>66.950005</ele>
<time>2023-02-16T12:36:57.857Z</time>
</trkpt>
<trkpt lat="31.4303500" lon="34.4661000">
<ele>65.420006</ele>
<time>2023-02-16T12:36:57.857Z</time>
</trkpt>
<trkpt lat="31.4303600" lon="34.4660700">
<ele>65.220001</ele>
<time>2023-02-16T12:36:57.857Z</time>
</trkpt>
<trkpt lat="31.4304000" lon="34.4658200">
<ele>65.590004</ele>
<time>2023-02-16T12:36:57.857Z</time>
</trkpt>
<trkpt lat="31.4304000" lon="34.4655200">
<ele>62.330002</ele>
<time>2023-02-16T12:36:57.857Z</time>
</trkpt>
<trkpt lat="31.4304800" lon="34.4652400">
<ele>64.740005</ele>
<time>2023-02-16T12:36:57.857Z</time>
</trkpt>
<trkpt lat="31.4305000" lon="34.4649900">
<ele>65.699997</ele>
<time>2023-02-16T12:36:57.857Z</time>
</trkpt>
<trkpt lat="31.4304700" lon="34.4649200">
<ele>64.379997</ele>
<time>2023-02-16T12:36:57.857Z</time>
</trkpt>
<trkpt lat="31.4303700" lon="34.4648000">
<ele>61.310001</ele>
<time>2023-02-16T12:36:57.857Z</time>
</trkpt>
<trkpt lat="31.4302100" lon="34.4647100">
<ele>56.770000</ele>
<time>2023-02-16T12:36:57.857Z</time>
</trkpt>
<trkpt lat="31.4301600" lon="34.4646700">
<ele>55.210003</ele>
<time>2023-02-16T12:36:57.857Z</time>
</trkpt>
<trkpt lat="31.4299800" lon="34.4645700">
<ele>51.500000</ele>
<time>2023-02-16T12:36:57.857Z</time>
</trkpt>
<trkpt lat="31.4298900" lon="34.4644400">
<ele>52.219997</ele>
<time>2023-02-16T12:36:57.857Z</time>
</trkpt>
<trkpt lat="31.4298000" lon="34.4642500">
<ele>52.570000</ele>
<time>2023-02-16T12:36:57.857Z</time>
</trkpt>
<trkpt lat="31.4297600" lon="34.4640900">
<ele>52.759998</ele>
<time>2023-02-16T12:36:57.857Z</time>
</trkpt>
<trkpt lat="31.4297400" lon="34.4636700">
<ele>52.059998</ele>
<time>2023-02-16T12:36:57.858Z</time>
</trkpt>
<trkpt lat="31.4295500" lon="34.4631200">
<ele>50.989998</ele>
<time>2023-02-16T12:36:57.858Z</time>
</trkpt>
<trkpt lat="31.4294800" lon="34.4627500">
<ele>49.029999</ele>
<time>2023-02-16T12:36:57.858Z</time>
</trkpt>
<trkpt lat="31.4293200" lon="34.4622800">
<ele>45.070000</ele>
<time>2023-02-16T12:36:57.858Z</time>
</trkpt>
<trkpt lat="31.4293200" lon="34.4619900">
<ele>41.689999</ele>
<time>2023-02-16T12:36:57.858Z</time>
</trkpt>
<trkpt lat="31.4293100" lon="34.4619000">
<ele>40.789997</ele>
<time>2023-02-16T12:36:57.858Z</time>
</trkpt>
<trkpt lat="31.4292200" lon="34.4617200">
<ele>38.920002</ele>
<time>2023-02-16T12:36:57.858Z</time>
</trkpt>
<trkpt lat="31.4290900" lon="34.4615200">
<ele>38.040001</ele>
<time>2023-02-16T12:36:57.858Z</time>
</trkpt>
<trkpt lat="31.4290300" lon="34.4614100">
<ele>38.480000</ele>
<time>2023-02-16T12:36:57.858Z</time>
</trkpt>
<trkpt lat="31.4289400" lon="34.4610100">
<ele>41.029999</ele>
<time>2023-02-16T12:36:57.858Z</time>
</trkpt>
<trkpt lat="31.4288900" lon="34.4609400">
<ele>41.009998</ele>
<time>2023-02-16T12:36:57.858Z</time>
</trkpt>
<trkpt lat="31.4288600" lon="34.4609400">
<ele>41.910000</ele>
<time>2023-02-16T12:36:57.858Z</time>
</trkpt>
<trkpt lat="31.4287900" lon="34.4609500">
<ele>43.860001</ele>
<time>2023-02-16T12:36:57.858Z</time>
</trkpt>
<trkpt lat="31.4284500" lon="34.4611900">
<ele>40.020000</ele>
<time>2023-02-16T12:36:57.858Z</time>
</trkpt>
<trkpt lat="31.4281900" lon="34.4614800">
<ele>43.209999</ele>
<time>2023-02-16T12:36:57.858Z</time>
</trkpt>
<trkpt lat="31.4279500" lon="34.4616800">
<ele>46.939999</ele>
<time>2023-02-16T12:36:57.858Z</time>
</trkpt>
<trkpt lat="31.4275900" lon="34.4618700">
<ele>47.349998</ele>
<time>2023-02-16T12:36:57.858Z</time>
</trkpt>
<trkpt lat="31.4275900" lon="34.4618700">
<ele>47.349998</ele>
<time>2023-02-16T12:36:57.858Z</time>
</trkpt>
<trkpt lat="31.4275900" lon="34.4618700">
<ele>47.349998</ele>
<time>2023-02-16T12:36:57.858Z</time>
</trkpt>
<trkpt lat="31.4275600" lon="34.4618900">
<ele>47.450001</ele>
<time>2023-02-16T12:36:57.858Z</time>
</trkpt>
<trkpt lat="31.4273900" lon="34.4619400">
<ele>51.030003</ele>
<time>2023-02-16T12:36:57.858Z</time>
</trkpt>
<trkpt lat="31.4273300" lon="34.4619900">
<ele>51.750000</ele>
<time>2023-02-16T12:36:57.858Z</time>
</trkpt>
<trkpt lat="31.4273000" lon="34.4620600">
<ele>50.190002</ele>
<time>2023-02-16T12:36:57.858Z</time>
</trkpt>
<trkpt lat="31.4273000" lon="34.4621500">
<ele>47.070000</ele>
<time>2023-02-16T12:36:57.858Z</time>
</trkpt>
<trkpt lat="31.4274100" lon="34.4625900">
<ele>43.270000</ele>
<time>2023-02-16T12:36:57.858Z</time>
</trkpt>
<trkpt lat="31.4274100" lon="34.4627200">
<ele>43.570000</ele>
<time>2023-02-16T12:36:57.858Z</time>
</trkpt>
<trkpt lat="31.4273600" lon="34.4628300">
<ele>45.139999</ele>
<time>2023-02-16T12:36:57.858Z</time>
</trkpt>
<trkpt lat="31.4271600" lon="34.4630700">
<ele>52.049999</ele>
<time>2023-02-16T12:36:57.859Z</time>
</trkpt>
<trkpt lat="31.4270700" lon="34.4631300">
<ele>55.610001</ele>
<time>2023-02-16T12:36:57.859Z</time>
</trkpt>
<trkpt lat="31.4269300" lon="34.4631800">
<ele>58.369999</ele>
<time>2023-02-16T12:36:57.859Z</time>
</trkpt>
<trkpt lat="31.4267900" lon="34.4633100">
<ele>60.260002</ele>
<time>2023-02-16T12:36:57.859Z</time>
</trkpt>
<trkpt lat="31.4265900" lon="34.4634100">
<ele>60.260002</ele>
<time>2023-02-16T12:36:57.859Z</time>
</trkpt>
<trkpt lat="31.4263100" lon="34.4634900">
<ele>59.030003</ele>
<time>2023-02-16T12:36:57.859Z</time>
</trkpt>
<trkpt lat="31.4260200" lon="34.4635200">
<ele>55.010002</ele>
<time>2023-02-16T12:36:57.859Z</time>
</trkpt>
<trkpt lat="31.4259600" lon="34.4635600">
<ele>54.879997</ele>
<time>2023-02-16T12:36:57.859Z</time>
</trkpt>
<trkpt lat="31.4257600" lon="34.4636700">
<ele>52.739998</ele>
<time>2023-02-16T12:36:57.860Z</time>
</trkpt>
<trkpt lat="31.4256300" lon="34.4638100">
<ele>49.459999</ele>
<time>2023-02-16T12:36:57.860Z</time>
</trkpt>
<trkpt lat="31.4253400" lon="34.4639900">
<ele>50.360001</ele>
<time>2023-02-16T12:36:57.860Z</time>
</trkpt>
<trkpt lat="31.4251600" lon="34.4641200">
<ele>52.160004</ele>
<time>2023-02-16T12:36:57.860Z</time>
</trkpt>
<trkpt lat="31.4250700" lon="34.4642500">
<ele>53.200001</ele>
<time>2023-02-16T12:36:57.860Z</time>
</trkpt>
<trkpt lat="31.4250100" lon="34.4643000">
<ele>53.889999</ele>
<time>2023-02-16T12:36:57.860Z</time>
</trkpt>
<trkpt lat="31.4249600" lon="34.4643500">
<ele>54.750004</ele>
<time>2023-02-16T12:36:57.860Z</time>
</trkpt>
<trkpt lat="31.4248700" lon="34.4645900">
<ele>57.450001</ele>
<time>2023-02-16T12:36:57.860Z</time>
</trkpt>
<trkpt lat="31.4248300" lon="34.4646600">
<ele>58.389999</ele>
<time>2023-02-16T12:36:57.860Z</time>
</trkpt>
<trkpt lat="31.4246900" lon="34.4647900">
<ele>60.299999</ele>
<time>2023-02-16T12:36:57.860Z</time>
</trkpt>
<trkpt lat="31.4245400" lon="34.4649000">
<ele>60.459999</ele>
<time>2023-02-16T12:36:57.860Z</time>
</trkpt>
<trkpt lat="31.4244300" lon="34.4650000">
<ele>59.899998</ele>
<time>2023-02-16T12:36:57.860Z</time>
</trkpt>
<trkpt lat="31.4242100" lon="34.4654400">
<ele>59.309998</ele>
<time>2023-02-16T12:36:57.860Z</time>
</trkpt>
<trkpt lat="31.4240400" lon="34.4655900">
<ele>59.410000</ele>
<time>2023-02-16T12:36:57.860Z</time>
</trkpt>
<trkpt lat="31.4239900" lon="34.4656500">
<ele>59.119999</ele>
<time>2023-02-16T12:36:57.860Z</time>
</trkpt>
<trkpt lat="31.4239500" lon="34.4657700">
<ele>58.880001</ele>
<time>2023-02-16T12:36:57.860Z</time>
</trkpt>
<trkpt lat="31.4238800" lon="34.4661000">
<ele>61.110001</ele>
<time>2023-02-16T12:36:57.860Z</time>
</trkpt>
<trkpt lat="31.4238400" lon="34.4662200">
<ele>63.029999</ele>
<time>2023-02-16T12:36:57.861Z</time>
</trkpt>
<trkpt lat="31.4238100" lon="34.4662400">
<ele>63.700001</ele>
<time>2023-02-16T12:36:57.861Z</time>
</trkpt>
<trkpt lat="31.4237100" lon="34.4662800">
<ele>65.510002</ele>
<time>2023-02-16T12:36:57.861Z</time>
</trkpt>
<trkpt lat="31.4233900" lon="34.4663200">
<ele>65.209999</ele>
<time>2023-02-16T12:36:57.861Z</time>
</trkpt>
<trkpt lat="31.4232800" lon="34.4663400">
<ele>65.239998</ele>
<time>2023-02-16T12:36:57.861Z</time>
</trkpt>
<trkpt lat="31.4232400" lon="34.4663600">
<ele>65.599998</ele>
<time>2023-02-16T12:36:57.861Z</time>
</trkpt>
<trkpt lat="31.4231300" lon="34.4661600">
<ele>66.239998</ele>
<time>2023-02-16T12:36:57.861Z</time>
</trkpt>
<trkpt lat="31.4230100" lon="34.4660000">
<ele>67.099998</ele>
<time>2023-02-16T12:36:57.861Z</time>
</trkpt>
<trkpt lat="31.4229900" lon="34.4659300">
<ele>67.080002</ele>
<time>2023-02-16T12:36:57.861Z</time>
</trkpt>
<trkpt lat="31.4230000" lon="34.4656700">
<ele>66.760002</ele>
<time>2023-02-16T12:36:57.861Z</time>
</trkpt>
<trkpt lat="31.4229200" lon="34.4653500">
<ele>66.349998</ele>
<time>2023-02-16T12:36:57.861Z</time>
</trkpt>
<trkpt lat="31.4230900" lon="34.4651700">
<ele>62.700001</ele>
<time>2023-02-16T12:36:57.861Z</time>
</trkpt>
<trkpt lat="31.4232500" lon="34.4649400">
<ele>60.200001</ele>
<time>2023-02-16T12:36:57.861Z</time>
</trkpt>
<trkpt lat="31.4232700" lon="34.4648600">
<ele>60.459999</ele>
<time>2023-02-16T12:36:57.861Z</time>
</trkpt>
<trkpt lat="31.4232700" lon="34.4643100">
<ele>61.850002</ele>
<time>2023-02-16T12:36:57.861Z</time>
</trkpt>
<trkpt lat="31.4232900" lon="34.4641800">
<ele>61.349998</ele>
<time>2023-02-16T12:36:57.861Z</time>
</trkpt>
<trkpt lat="31.4233900" lon="34.4639100">
<ele>59.309998</ele>
<time>2023-02-16T12:36:57.861Z</time>
</trkpt>
<trkpt lat="31.4234000" lon="34.4638300">
<ele>60.049999</ele>
<time>2023-02-16T12:36:57.861Z</time>
</trkpt>
<trkpt lat="31.4233900" lon="34.4637900">
<ele>60.620003</ele>
<time>2023-02-16T12:36:57.861Z</time>
</trkpt>
<trkpt lat="31.4233600" lon="34.4637800">
<ele>60.870003</ele>
<time>2023-02-16T12:36:57.861Z</time>
</trkpt>
<trkpt lat="31.4232900" lon="34.4637800">
<ele>61.869999</ele>
<time>2023-02-16T12:36:57.861Z</time>
</trkpt>
<trkpt lat="31.4231100" lon="34.4638100">
<ele>65.360001</ele>
<time>2023-02-16T12:36:57.861Z</time>
</trkpt>
<trkpt lat="31.4230200" lon="34.4638700">
<ele>65.860001</ele>
<time>2023-02-16T12:36:57.861Z</time>
</trkpt>
<trkpt lat="31.4230100" lon="34.4639500">
<ele>65.120003</ele>
<time>2023-02-16T12:36:57.861Z</time>
</trkpt>
<trkpt lat="31.4229800" lon="34.4639700">
<ele>64.820000</ele>
<time>2023-02-16T12:36:57.861Z</time>
</trkpt>
<trkpt lat="31.4228900" lon="34.4639800">
<ele>64.409996</ele>
<time>2023-02-16T12:36:57.861Z</time>
</trkpt>
<trkpt lat="31.4228900" lon="34.4639800">
<ele>64.409996</ele>
<time>2023-02-16T12:36:57.861Z</time>
</trkpt>
<trkpt lat="31.4228900" lon="34.4639800">
<ele>64.409996</ele>
<time>2023-02-16T12:36:57.861Z</time>
</trkpt>
<trkpt lat="31.4227700" lon="34.4639900">
<ele>63.970001</ele>
<time>2023-02-16T12:36:57.861Z</time>
</trkpt>
<trkpt lat="31.4227300" lon="34.4639900">
<ele>63.840000</ele>
<time>2023-02-16T12:36:57.861Z</time>
</trkpt>
<trkpt lat="31.4226700" lon="34.4639400">
<ele>63.440002</ele>
<time>2023-02-16T12:36:57.861Z</time>
</trkpt>
<trkpt lat="31.4226200" lon="34.4638300">
<ele>62.860001</ele>
<time>2023-02-16T12:36:57.861Z</time>
</trkpt>
<trkpt lat="31.4225600" lon="34.4637800">
<ele>62.430000</ele>
<time>2023-02-16T12:36:57.861Z</time>
</trkpt>
<trkpt lat="31.4224200" lon="34.4637400">
<ele>62.560001</ele>
<time>2023-02-16T12:36:57.861Z</time>
</trkpt>
<trkpt lat="31.4223100" lon="34.4637300">
<ele>63.269997</ele>
<time>2023-02-16T12:36:57.861Z</time>
</trkpt>
<trkpt lat="31.4222600" lon="34.4637300">
<ele>63.600002</ele>
<time>2023-02-16T12:36:57.861Z</time>
</trkpt>
<trkpt lat="31.4221300" lon="34.4637400">
<ele>65.590004</ele>
<time>2023-02-16T12:36:57.861Z</time>
</trkpt>
<trkpt lat="31.4219600" lon="34.4637700">
<ele>68.860001</ele>
<time>2023-02-16T12:36:57.861Z</time>
</trkpt>
<trkpt lat="31.4217800" lon="34.4637400">
<ele>68.340004</ele>
<time>2023-02-16T12:36:57.861Z</time>
</trkpt>
<trkpt lat="31.4215700" lon="34.4637600">
<ele>67.560005</ele>
<time>2023-02-16T12:36:57.861Z</time>
</trkpt>
<trkpt lat="31.4213500" lon="34.4637500">
<ele>66.010002</ele>
<time>2023-02-16T12:36:57.861Z</time>
</trkpt>
<trkpt lat="31.4210400" lon="34.4636300">
<ele>62.230003</ele>
<time>2023-02-16T12:36:57.861Z</time>
</trkpt>
<trkpt lat="31.4208700" lon="34.4636100">
<ele>60.400002</ele>
<time>2023-02-16T12:36:57.861Z</time>
</trkpt>
<trkpt lat="31.4207600" lon="34.4635800">
<ele>60.139999</ele>
<time>2023-02-16T12:36:57.861Z</time>
</trkpt>
<trkpt lat="31.4204700" lon="34.4634100">
<ele>61.000004</ele>
<time>2023-02-16T12:36:57.861Z</time>
</trkpt>
<trkpt lat="31.4198400" lon="34.4631100">
<ele>62.610001</ele>
<time>2023-02-16T12:36:57.861Z</time>
</trkpt>
<trkpt lat="31.4193500" lon="34.4629400">
<ele>58.110001</ele>
<time>2023-02-16T12:36:57.861Z</time>
</trkpt>
<trkpt lat="31.4192800" lon="34.4628800">
<ele>57.689999</ele>
<time>2023-02-16T12:36:57.861Z</time>
</trkpt>
<trkpt lat="31.4192200" lon="34.4628100">
<ele>56.760002</ele>
<time>2023-02-16T12:36:57.861Z</time>
</trkpt>
<trkpt lat="31.4191700" lon="34.4626900">
<ele>55.719997</ele>
<time>2023-02-16T12:36:57.861Z</time>
</trkpt>
<trkpt lat="31.4191600" lon="34.4625700">
<ele>55.320000</ele>
<time>2023-02-16T12:36:57.861Z</time>
</trkpt>
<trkpt lat="31.4191700" lon="34.4622300">
<ele>56.960003</ele>
<time>2023-02-16T12:36:57.861Z</time>
</trkpt>
<trkpt lat="31.4191400" lon="34.4619300">
<ele>60.049999</ele>
<time>2023-02-16T12:36:57.861Z</time>
</trkpt>
<trkpt lat="31.4191600" lon="34.4612200">
<ele>56.499996</ele>
<time>2023-02-16T12:36:57.861Z</time>
</trkpt>
<trkpt lat="31.4191700" lon="34.4608400">
<ele>55.110001</ele>
<time>2023-02-16T12:36:57.861Z</time>
</trkpt>
<trkpt lat="31.4191900" lon="34.4605400">
<ele>54.649998</ele>
<time>2023-02-16T12:36:57.861Z</time>
</trkpt>
<trkpt lat="31.4192400" lon="34.4603400">
<ele>55.290001</ele>
<time>2023-02-16T12:36:57.861Z</time>
</trkpt>
<trkpt lat="31.4193600" lon="34.4600700">
<ele>53.790001</ele>
<time>2023-02-16T12:36:57.864Z</time>
</trkpt>
<trkpt lat="31.4194900" lon="34.4598300">
<ele>54.690002</ele>
<time>2023-02-16T12:36:57.864Z</time>
</trkpt>
<trkpt lat="31.4197100" lon="34.4595400">
<ele>52.660000</ele>
<time>2023-02-16T12:36:57.864Z</time>
</trkpt>
<trkpt lat="31.4197600" lon="34.4593900">
<ele>54.340000</ele>
<time>2023-02-16T12:36:57.864Z</time>
</trkpt>
<trkpt lat="31.4196100" lon="34.4593000">
<ele>55.480000</ele>
<time>2023-02-16T12:36:57.864Z</time>
</trkpt>
<trkpt lat="31.4195800" lon="34.4592700">
<ele>55.809998</ele>
<time>2023-02-16T12:36:57.864Z</time>
</trkpt>
<trkpt lat="31.4194700" lon="34.4589500">
<ele>57.800003</ele>
<time>2023-02-16T12:36:57.864Z</time>
</trkpt>
<trkpt lat="31.4193600" lon="34.4587300">
<ele>59.060001</ele>
<time>2023-02-16T12:36:57.864Z</time>
</trkpt>
<trkpt lat="31.4192100" lon="34.4585800">
<ele>58.790001</ele>
<time>2023-02-16T12:36:57.864Z</time>
</trkpt>
<trkpt lat="31.4192200" lon="34.4585900">
<ele>58.790001</ele>
<time>2023-02-16T12:36:57.864Z</time>
</trkpt>
<trkpt lat="31.4190700" lon="34.4584600">
<ele>59.500000</ele>
<time>2023-02-16T12:36:57.864Z</time>
</trkpt>
<trkpt lat="31.4189700" lon="34.4584100">
<ele>60.290001</ele>
<time>2023-02-16T12:36:57.864Z</time>
</trkpt>
<trkpt lat="31.4188600" lon="34.4584000">
<ele>60.490002</ele>
<time>2023-02-16T12:36:57.864Z</time>
</trkpt>
<trkpt lat="31.4186500" lon="34.4585700">
<ele>54.690002</ele>
<time>2023-02-16T12:36:57.864Z</time>
</trkpt>
<trkpt lat="31.4184200" lon="34.4586100">
<ele>54.410000</ele>
<time>2023-02-16T12:36:57.864Z</time>
</trkpt>
<trkpt lat="31.4166100" lon="34.4575700">
<ele>47.879997</ele>
<time>2023-02-16T12:36:57.864Z</time>
</trkpt>
<trkpt lat="31.4166100" lon="34.4575700">
<ele>47.879997</ele>
<time>2023-02-16T12:36:57.864Z</time>
</trkpt>
<trkpt lat="31.4166100" lon="34.4575700">
<ele>47.879997</ele>
<time>2023-02-16T12:36:57.864Z</time>
</trkpt>
<trkpt lat="31.4154900" lon="34.4569200">
<ele>49.420002</ele>
<time>2023-02-16T12:36:57.864Z</time>
</trkpt>
<trkpt lat="31.4153000" lon="34.4568700">
<ele>49.740002</ele>
<time>2023-02-16T12:36:57.864Z</time>
</trkpt>
<trkpt lat="31.4152100" lon="34.4568500">
<ele>49.740002</ele>
<time>2023-02-16T12:36:57.864Z</time>
</trkpt>
<trkpt lat="31.4150600" lon="34.4568500">
<ele>49.930000</ele>
<time>2023-02-16T12:36:57.864Z</time>
</trkpt>
<trkpt lat="31.4147800" lon="34.4570100">
<ele>50.180000</ele>
<time>2023-02-16T12:36:57.864Z</time>
</trkpt>
<trkpt lat="31.4147100" lon="34.4569900">
<ele>50.239998</ele>
<time>2023-02-16T12:36:57.864Z</time>
</trkpt>
<trkpt lat="31.4145300" lon="34.4569700">
<ele>46.570000</ele>
<time>2023-02-16T12:36:57.864Z</time>
</trkpt>
<trkpt lat="31.4143300" lon="34.4568900">
<ele>40.549999</ele>
<time>2023-02-16T12:36:57.864Z</time>
</trkpt>
<trkpt lat="31.4142600" lon="34.4568800">
<ele>37.790001</ele>
<time>2023-02-16T12:36:57.864Z</time>
</trkpt>
<trkpt lat="31.4140300" lon="34.4567600">
<ele>37.180000</ele>
<time>2023-02-16T12:36:57.864Z</time>
</trkpt>
<trkpt lat="31.4137700" lon="34.4564800">
<ele>46.220001</ele>
<time>2023-02-16T12:36:57.864Z</time>
</trkpt>
<trkpt lat="31.4136700" lon="34.4564200">
<ele>50.599998</ele>
<time>2023-02-16T12:36:57.864Z</time>
</trkpt>
<trkpt lat="31.4135100" lon="34.4563300">
<ele>51.290001</ele>
<time>2023-02-16T12:36:57.864Z</time>
</trkpt>
<trkpt lat="31.4134100" lon="34.4563200">
<ele>50.369999</ele>
<time>2023-02-16T12:36:57.864Z</time>
</trkpt>
<trkpt lat="31.4133000" lon="34.4562900">
<ele>49.139999</ele>
<time>2023-02-16T12:36:57.864Z</time>
</trkpt>
<trkpt lat="31.4129600" lon="34.4560600">
<ele>48.039997</ele>
<time>2023-02-16T12:36:57.864Z</time>
</trkpt>
<trkpt lat="31.4125000" lon="34.4556000">
<ele>45.360001</ele>
<time>2023-02-16T12:36:57.864Z</time>
</trkpt>
<trkpt lat="31.4122900" lon="34.4554300">
<ele>49.730003</ele>
<time>2023-02-16T12:36:57.864Z</time>
</trkpt>
<trkpt lat="31.4121900" lon="34.4553900">
<ele>50.049999</ele>
<time>2023-02-16T12:36:57.864Z</time>
</trkpt>
<trkpt lat="31.4121200" lon="34.4553800">
<ele>48.430000</ele>
<time>2023-02-16T12:36:57.864Z</time>
</trkpt>
<trkpt lat="31.4120200" lon="34.4553400">
<ele>45.519997</ele>
<time>2023-02-16T12:36:57.864Z</time>
</trkpt>
<trkpt lat="31.4118600" lon="34.4552600">
<ele>40.900002</ele>
<time>2023-02-16T12:36:57.864Z</time>
</trkpt>
<trkpt lat="31.4117500" lon="34.4552500">
<ele>39.600002</ele>
<time>2023-02-16T12:36:57.864Z</time>
</trkpt>
<trkpt lat="31.4116800" lon="34.4552200">
<ele>38.520000</ele>
<time>2023-02-16T12:36:57.864Z</time>
</trkpt>
<trkpt lat="31.4116100" lon="34.4552100">
<ele>37.660000</ele>
<time>2023-02-16T12:36:57.864Z</time>
</trkpt>
<trkpt lat="31.4113500" lon="34.4550800">
<ele>32.020000</ele>
<time>2023-02-16T12:36:57.864Z</time>
</trkpt>
<trkpt lat="31.4113000" lon="34.4550200">
<ele>30.500002</ele>
<time>2023-02-16T12:36:57.864Z</time>
</trkpt>
<trkpt lat="31.4112400" lon="34.4549100">
<ele>27.559999</ele>
<time>2023-02-16T12:36:57.864Z</time>
</trkpt>
<trkpt lat="31.4111600" lon="34.4548300">
<ele>25.210001</ele>
<time>2023-02-16T12:36:57.864Z</time>
</trkpt>
<trkpt lat="31.4109000" lon="34.4546900">
<ele>21.559999</ele>
<time>2023-02-16T12:36:57.864Z</time>
</trkpt>
<trkpt lat="31.4107800" lon="34.4546000">
<ele>20.350000</ele>
<time>2023-02-16T12:36:57.864Z</time>
</trkpt>
<trkpt lat="31.4106100" lon="34.4544400">
<ele>24.380001</ele>
<time>2023-02-16T12:36:57.867Z</time>
</trkpt>
<trkpt lat="31.4104300" lon="34.4543300">
<ele>31.720001</ele>
<time>2023-02-16T12:36:57.867Z</time>
</trkpt>
<trkpt lat="31.4103300" lon="34.4542100">
<ele>35.690002</ele>
<time>2023-02-16T12:36:57.867Z</time>
</trkpt>
<trkpt lat="31.4102100" lon="34.4539900">
<ele>40.050003</ele>
<time>2023-02-16T12:36:57.867Z</time>
</trkpt>
<trkpt lat="31.4099000" lon="34.4536500">
<ele>49.759998</ele>
<time>2023-02-16T12:36:57.867Z</time>
</trkpt>
<trkpt lat="31.4096700" lon="34.4533300">
<ele>42.450001</ele>
<time>2023-02-16T12:36:57.867Z</time>
</trkpt>
<trkpt lat="31.4095900" lon="34.4531900">
<ele>39.329998</ele>
<time>2023-02-16T12:36:57.867Z</time>
</trkpt>
<trkpt lat="31.4094000" lon="34.4527800">
<ele>37.040001</ele>
<time>2023-02-16T12:36:57.867Z</time>
</trkpt>
<trkpt lat="31.4093600" lon="34.4526600">
<ele>35.880001</ele>
<time>2023-02-16T12:36:57.867Z</time>
</trkpt>
<trkpt lat="31.4093000" lon="34.4514900">
<ele>35.470001</ele>
<time>2023-02-16T12:36:57.867Z</time>
</trkpt>
<trkpt lat="31.4092600" lon="34.4505200">
<ele>34.060001</ele>
<time>2023-02-16T12:36:57.867Z</time>
</trkpt>
<trkpt lat="31.4092200" lon="34.4502700">
<ele>33.330002</ele>
<time>2023-02-16T12:36:57.867Z</time>
</trkpt>
<trkpt lat="31.4091600" lon="34.4495500">
<ele>30.550001</ele>
<time>2023-02-16T12:36:57.867Z</time>
</trkpt>
<trkpt lat="31.4090800" lon="34.4489700">
<ele>30.200001</ele>
<time>2023-02-16T12:36:57.867Z</time>
</trkpt>
<trkpt lat="31.4090200" lon="34.4486800">
<ele>29.820002</ele>
<time>2023-02-16T12:36:57.867Z</time>
</trkpt>
<trkpt lat="31.4089900" lon="34.4483900">
<ele>30.410000</ele>
<time>2023-02-16T12:36:57.867Z</time>
</trkpt>
<trkpt lat="31.4088500" lon="34.4477800">
<ele>31.830000</ele>
<time>2023-02-16T12:36:57.867Z</time>
</trkpt>
<trkpt lat="31.4087100" lon="34.4474900">
<ele>34.889999</ele>
<time>2023-02-16T12:36:57.867Z</time>
</trkpt>
<trkpt lat="31.4086500" lon="34.4472500">
<ele>36.410000</ele>
<time>2023-02-16T12:36:57.867Z</time>
</trkpt>
<trkpt lat="31.4085300" lon="34.4467000">
<ele>30.639999</ele>
<time>2023-02-16T12:36:57.867Z</time>
</trkpt>
<trkpt lat="31.4085300" lon="34.4467000">
<ele>30.639999</ele>
<time>2023-02-16T12:36:57.867Z</time>
</trkpt>
<trkpt lat="31.4085300" lon="34.4467000">
<ele>30.639999</ele>
<time>2023-02-16T12:36:57.868Z</time>
</trkpt>
<trkpt lat="31.4083300" lon="34.4457300">
<ele>34.920002</ele>
<time>2023-02-16T12:36:57.868Z</time>
</trkpt>
<trkpt lat="31.4083200" lon="34.4456000">
<ele>34.630001</ele>
<time>2023-02-16T12:36:57.868Z</time>
</trkpt>
<trkpt lat="31.4083400" lon="34.4454800">
<ele>34.740002</ele>
<time>2023-02-16T12:36:57.868Z</time>
</trkpt>
<trkpt lat="31.4083900" lon="34.4453200">
<ele>34.500000</ele>
<time>2023-02-16T12:36:57.868Z</time>
</trkpt>
<trkpt lat="31.4085200" lon="34.4450200">
<ele>35.040001</ele>
<time>2023-02-16T12:36:57.868Z</time>
</trkpt>
<trkpt lat="31.4085600" lon="34.4448100">
<ele>34.209999</ele>
<time>2023-02-16T12:36:57.868Z</time>
</trkpt>
<trkpt lat="31.4086500" lon="34.4445400">
<ele>32.450001</ele>
<time>2023-02-16T12:36:57.868Z</time>
</trkpt>
<trkpt lat="31.4086600" lon="34.4443300">
<ele>28.929998</ele>
<time>2023-02-16T12:36:57.868Z</time>
</trkpt>
<trkpt lat="31.4086900" lon="34.4441200">
<ele>26.350000</ele>
<time>2023-02-16T12:36:57.868Z</time>
</trkpt>
<trkpt lat="31.4086800" lon="34.4439500">
<ele>27.500000</ele>
<time>2023-02-16T12:36:57.868Z</time>
</trkpt>
<trkpt lat="31.4086300" lon="34.4436600">
<ele>32.820000</ele>
<time>2023-02-16T12:36:57.868Z</time>
</trkpt>
<trkpt lat="31.4086200" lon="34.4435400">
<ele>34.470001</ele>
<time>2023-02-16T12:36:57.868Z</time>
</trkpt>
<trkpt lat="31.4086400" lon="34.4434100">
<ele>35.070000</ele>
<time>2023-02-16T12:36:57.868Z</time>
</trkpt>
<trkpt lat="31.4087200" lon="34.4432800">
<ele>33.419998</ele>
<time>2023-02-16T12:36:57.868Z</time>
</trkpt>
<trkpt lat="31.4088100" lon="34.4432200">
<ele>31.369999</ele>
<time>2023-02-16T12:36:57.868Z</time>
</trkpt>
<trkpt lat="31.4088900" lon="34.4431300">
<ele>29.539999</ele>
<time>2023-02-16T12:36:57.868Z</time>
</trkpt>
<trkpt lat="31.4089900" lon="34.4429500">
<ele>28.330002</ele>
<time>2023-02-16T12:36:57.868Z</time>
</trkpt>
<trkpt lat="31.4091100" lon="34.4428100">
<ele>26.620001</ele>
<time>2023-02-16T12:36:57.869Z</time>
</trkpt>
<trkpt lat="31.4091800" lon="34.4427000">
<ele>25.020000</ele>
<time>2023-02-16T12:36:57.869Z</time>
</trkpt>
<trkpt lat="31.4092000" lon="34.4425400">
<ele>22.650000</ele>
<time>2023-02-16T12:36:57.869Z</time>
</trkpt>
<trkpt lat="31.4091800" lon="34.4422400">
<ele>21.150000</ele>
<time>2023-02-16T12:36:57.869Z</time>
</trkpt>
<trkpt lat="31.4092100" lon="34.4420100">
<ele>22.839998</ele>
<time>2023-02-16T12:36:57.869Z</time>
</trkpt>
<trkpt lat="31.4092300" lon="34.4419100">
<ele>23.920000</ele>
<time>2023-02-16T12:36:57.869Z</time>
</trkpt>
<trkpt lat="31.4092800" lon="34.4417600">
<ele>26.200001</ele>
<time>2023-02-16T12:36:57.869Z</time>
</trkpt>
<trkpt lat="31.4096500" lon="34.4409800">
<ele>30.150000</ele>
<time>2023-02-16T12:36:57.869Z</time>
</trkpt>
<trkpt lat="31.4097500" lon="34.4406200">
<ele>26.799999</ele>
<time>2023-02-16T12:36:57.869Z</time>
</trkpt>
<trkpt lat="31.4098000" lon="34.4403300">
<ele>24.230000</ele>
<time>2023-02-16T12:36:57.869Z</time>
</trkpt>
<trkpt lat="31.4099000" lon="34.4400400">
<ele>21.580000</ele>
<time>2023-02-16T12:36:57.869Z</time>
</trkpt>
<trkpt lat="31.4098800" lon="34.4398300">
<ele>21.890001</ele>
<time>2023-02-16T12:36:57.869Z</time>
</trkpt>
<trkpt lat="31.4099000" lon="34.4397400">
<ele>21.959999</ele>
<time>2023-02-16T12:36:57.869Z</time>
</trkpt>
<trkpt lat="31.4101100" lon="34.4394900">
<ele>22.880001</ele>
<time>2023-02-16T12:36:57.869Z</time>
</trkpt>
<trkpt lat="31.4103800" lon="34.4392100">
<ele>24.359999</ele>
<time>2023-02-16T12:36:57.869Z</time>
</trkpt>
<trkpt lat="31.4105500" lon="34.4389700">
<ele>29.250000</ele>
<time>2023-02-16T12:36:57.870Z</time>
</trkpt>
<trkpt lat="31.4106500" lon="34.4388600">
<ele>29.980000</ele>
<time>2023-02-16T12:36:57.870Z</time>
</trkpt>
<trkpt lat="31.4108200" lon="34.4386000">
<ele>27.900000</ele>
<time>2023-02-16T12:36:57.870Z</time>
</trkpt>
<trkpt lat="31.4110200" lon="34.4383500">
<ele>26.780001</ele>
<time>2023-02-16T12:36:57.870Z</time>
</trkpt>
<trkpt lat="31.4114100" lon="34.4376400">
<ele>19.820000</ele>
<time>2023-02-16T12:36:57.870Z</time>
</trkpt>
<trkpt lat="31.4115000" lon="34.4372400">
<ele>19.080000</ele>
<time>2023-02-16T12:36:57.870Z</time>
</trkpt>
<trkpt lat="31.4114500" lon="34.4369500">
<ele>23.400000</ele>
<time>2023-02-16T12:36:57.870Z</time>
</trkpt>
<trkpt lat="31.4114500" lon="34.4368200">
<ele>24.010000</ele>
<time>2023-02-16T12:36:57.870Z</time>
</trkpt>
<trkpt lat="31.4114800" lon="34.4367000">
<ele>23.870001</ele>
<time>2023-02-16T12:36:57.870Z</time>
</trkpt>
<trkpt lat="31.4115300" lon="34.4365900">
<ele>23.090000</ele>
<time>2023-02-16T12:36:57.870Z</time>
</trkpt>
<trkpt lat="31.4116500" lon="34.4363800">
<ele>21.199999</ele>
<time>2023-02-16T12:36:57.870Z</time>
</trkpt>
<trkpt lat="31.4117600" lon="34.4361200">
<ele>19.680000</ele>
<time>2023-02-16T12:36:57.870Z</time>
</trkpt>
<trkpt lat="31.4120500" lon="34.4356300">
<ele>22.400000</ele>
<time>2023-02-16T12:36:57.870Z</time>
</trkpt>
<trkpt lat="31.4120800" lon="34.4355600">
<ele>22.969999</ele>
<time>2023-02-16T12:36:57.870Z</time>
</trkpt>
<trkpt lat="31.4121200" lon="34.4353100">
<ele>25.420000</ele>
<time>2023-02-16T12:36:57.870Z</time>
</trkpt>
<trkpt lat="31.4121600" lon="34.4351900">
<ele>25.450001</ele>
<time>2023-02-16T12:36:57.870Z</time>
</trkpt>
<trkpt lat="31.4122300" lon="34.4351000">
<ele>24.959999</ele>
<time>2023-02-16T12:36:57.870Z</time>
</trkpt>
<trkpt lat="31.4123500" lon="34.4350000">
<ele>24.539999</ele>
<time>2023-02-16T12:36:57.870Z</time>
</trkpt>
<trkpt lat="31.4127800" lon="34.4348200">
<ele>23.280001</ele>
<time>2023-02-16T12:36:57.870Z</time>
</trkpt>
<trkpt lat="31.4130600" lon="34.4347600">
<ele>21.240000</ele>
<time>2023-02-16T12:36:57.870Z</time>
</trkpt>
<trkpt lat="31.4130900" lon="34.4347300">
<ele>20.809999</ele>
<time>2023-02-16T12:36:57.870Z</time>
</trkpt>
<trkpt lat="31.4133100" lon="34.4347200">
<ele>19.219999</ele>
<time>2023-02-16T12:36:57.870Z</time>
</trkpt>
<trkpt lat="31.4133700" lon="34.4346900">
<ele>20.150000</ele>
<time>2023-02-16T12:36:57.870Z</time>
</trkpt>
<trkpt lat="31.4141300" lon="34.4346700">
<ele>22.449999</ele>
<time>2023-02-16T12:36:57.870Z</time>
</trkpt>
<trkpt lat="31.4142900" lon="34.4345900">
<ele>21.330000</ele>
<time>2023-02-16T12:36:57.870Z</time>
</trkpt>
<trkpt lat="31.4143800" lon="34.4345200">
<ele>20.300001</ele>
<time>2023-02-16T12:36:57.870Z</time>
</trkpt>
<trkpt lat="31.4148000" lon="34.4342900">
<ele>19.469999</ele>
<time>2023-02-16T12:36:57.870Z</time>
</trkpt>
<trkpt lat="31.4150000" lon="34.4341200">
<ele>21.830000</ele>
<time>2023-02-16T12:36:57.870Z</time>
</trkpt>
<trkpt lat="31.4152000" lon="34.4338800">
<ele>19.709999</ele>
<time>2023-02-16T12:36:57.870Z</time>
</trkpt>
<trkpt lat="31.4152700" lon="34.4337800">
<ele>21.710001</ele>
<time>2023-02-16T12:36:57.870Z</time>
</trkpt>
<trkpt lat="31.4152900" lon="34.4337000">
<ele>23.430000</ele>
<time>2023-02-16T12:36:57.870Z</time>
</trkpt>
<trkpt lat="31.4153000" lon="34.4335300">
<ele>25.320002</ele>
<time>2023-02-16T12:36:57.870Z</time>
</trkpt>
<trkpt lat="31.4153200" lon="34.4334600">
<ele>24.889999</ele>
<time>2023-02-16T12:36:57.870Z</time>
</trkpt>
<trkpt lat="31.4154600" lon="34.4334400">
<ele>21.459999</ele>
<time>2023-02-16T12:36:57.870Z</time>
</trkpt>
<trkpt lat="31.4155400" lon="34.4333500">
<ele>21.000000</ele>
<time>2023-02-16T12:36:57.870Z</time>
</trkpt>
<trkpt lat="31.4155600" lon="34.4331900">
<ele>19.809999</ele>
<time>2023-02-16T12:36:57.870Z</time>
</trkpt>
<trkpt lat="31.4154000" lon="34.4329500">
<ele>18.780001</ele>
<time>2023-02-16T12:36:57.870Z</time>
</trkpt>
<trkpt lat="31.4153100" lon="34.4328300">
<ele>20.010000</ele>
<time>2023-02-16T12:36:57.870Z</time>
</trkpt>
<trkpt lat="31.4151300" lon="34.4327500">
<ele>21.009998</ele>
<time>2023-02-16T12:36:57.870Z</time>
</trkpt>
<trkpt lat="31.4150800" lon="34.4326900">
<ele>19.039999</ele>
<time>2023-02-16T12:36:57.870Z</time>
</trkpt>
<trkpt lat="31.4149000" lon="34.4323300">
<ele>12.429999</ele>
<time>2023-02-16T12:36:57.870Z</time>
</trkpt>
<trkpt lat="31.4148300" lon="34.4322600">
<ele>13.440001</ele>
<time>2023-02-16T12:36:57.870Z</time>
</trkpt>
<trkpt lat="31.4146500" lon="34.4321600">
<ele>16.870001</ele>
<time>2023-02-16T12:36:57.870Z</time>
</trkpt>
<trkpt lat="31.4145900" lon="34.4321100">
<ele>17.330000</ele>
<time>2023-02-16T12:36:57.870Z</time>
</trkpt>
<trkpt lat="31.4145000" lon="34.4319500">
<ele>16.850000</ele>
<time>2023-02-16T12:36:57.870Z</time>
</trkpt>
<trkpt lat="31.4143400" lon="34.4315800">
<ele>17.439999</ele>
<time>2023-02-16T12:36:57.870Z</time>
</trkpt>
<trkpt lat="31.4142700" lon="34.4315400">
<ele>17.799999</ele>
<time>2023-02-16T12:36:57.870Z</time>
</trkpt>
<trkpt lat="31.4140200" lon="34.4315600">
<ele>20.530001</ele>
<time>2023-02-16T12:36:57.870Z</time>
</trkpt>
<trkpt lat="31.4138900" lon="34.4315900">
<ele>22.430000</ele>
<time>2023-02-16T12:36:57.870Z</time>
</trkpt>
<trkpt lat="31.4137900" lon="34.4316800">
<ele>23.540001</ele>
<time>2023-02-16T12:36:57.870Z</time>
</trkpt>
<trkpt lat="31.4137200" lon="34.4316800">
<ele>23.850000</ele>
<time>2023-02-16T12:36:57.870Z</time>
</trkpt>
<trkpt lat="31.4135800" lon="34.4315800">
<ele>22.670000</ele>
<time>2023-02-16T12:36:57.870Z</time>
</trkpt>
<trkpt lat="31.4135000" lon="34.4315700">
<ele>23.040001</ele>
<time>2023-02-16T12:36:57.870Z</time>
</trkpt>
<trkpt lat="31.4133200" lon="34.4316300">
<ele>25.809999</ele>
<time>2023-02-16T12:36:57.870Z</time>
</trkpt>
<trkpt lat="31.4131400" lon="34.4316700">
<ele>24.910000</ele>
<time>2023-02-16T12:36:57.870Z</time>
</trkpt>
<trkpt lat="31.4130200" lon="34.4315100">
<ele>19.770000</ele>
<time>2023-02-16T12:36:57.870Z</time>
</trkpt>
<trkpt lat="31.4128900" lon="34.4313800">
<ele>16.900000</ele>
<time>2023-02-16T12:36:57.870Z</time>
</trkpt>
<trkpt lat="31.4128500" lon="34.4312600">
<ele>15.390000</ele>
<time>2023-02-16T12:36:57.870Z</time>
</trkpt>
<trkpt lat="31.4128400" lon="34.4311000">
<ele>13.370000</ele>
<time>2023-02-16T12:36:57.870Z</time>
</trkpt>
<trkpt lat="31.4128400" lon="34.4311000">
<ele>13.370000</ele>
<time>2023-02-16T12:36:57.870Z</time>
</trkpt>
<trkpt lat="31.4128400" lon="34.4311000">
<ele>13.370000</ele>
<time>2023-02-16T12:36:57.870Z</time>
</trkpt>
<trkpt lat="31.4128300" lon="34.4310500">
<ele>12.940000</ele>
<time>2023-02-16T12:36:57.870Z</time>
</trkpt>
<trkpt lat="31.4128000" lon="34.4309800">
<ele>12.219999</ele>
<time>2023-02-16T12:36:57.870Z</time>
</trkpt>
<trkpt lat="31.4127700" lon="34.4309500">
<ele>12.030000</ele>
<time>2023-02-16T12:36:57.870Z</time>
</trkpt>
<trkpt lat="31.4126700" lon="34.4309300">
<ele>14.080000</ele>
<time>2023-02-16T12:36:57.870Z</time>
</trkpt>
<trkpt lat="31.4125500" lon="34.4308300">
<ele>13.430000</ele>
<time>2023-02-16T12:36:57.870Z</time>
</trkpt>
<trkpt lat="31.4124400" lon="34.4307300">
<ele>14.880000</ele>
<time>2023-02-16T12:36:57.870Z</time>
</trkpt>
<trkpt lat="31.4124300" lon="34.4306900">
<ele>14.710000</ele>
<time>2023-02-16T12:36:57.870Z</time>
</trkpt>
<trkpt lat="31.4124200" lon="34.4306000">
<ele>13.880000</ele>
<time>2023-02-16T12:36:57.870Z</time>
</trkpt>
<trkpt lat="31.4124400" lon="34.4302500">
<ele>13.500000</ele>
<time>2023-02-16T12:36:57.870Z</time>
</trkpt>
<trkpt lat="31.4124400" lon="34.4301200">
<ele>14.429999</ele>
<time>2023-02-16T12:36:57.870Z</time>
</trkpt>
<trkpt lat="31.4123300" lon="34.4298400">
<ele>15.560000</ele>
<time>2023-02-16T12:36:57.870Z</time>
</trkpt>
<trkpt lat="31.4122900" lon="34.4297200">
<ele>13.980000</ele>
<time>2023-02-16T12:36:57.870Z</time>
</trkpt>
<trkpt lat="31.4122200" lon="34.4295700">
<ele>12.440000</ele>
<time>2023-02-16T12:36:57.870Z</time>
</trkpt>
<trkpt lat="31.4120900" lon="34.4293100">
<ele>17.469999</ele>
<time>2023-02-16T12:36:57.870Z</time>
</trkpt>
<trkpt lat="31.4119900" lon="34.4292700">
<ele>21.340000</ele>
<time>2023-02-16T12:36:57.870Z</time>
</trkpt>
<trkpt lat="31.4115100" lon="34.4291800">
<ele>20.560001</ele>
<time>2023-02-16T12:36:57.870Z</time>
</trkpt>
<trkpt lat="31.4113300" lon="34.4291300">
<ele>19.439999</ele>
<time>2023-02-16T12:36:57.870Z</time>
</trkpt>
<trkpt lat="31.4112900" lon="34.4291400">
<ele>18.709999</ele>
<time>2023-02-16T12:36:57.870Z</time>
</trkpt>
<trkpt lat="31.4112300" lon="34.4292000">
<ele>17.650000</ele>
<time>2023-02-16T12:36:57.870Z</time>
</trkpt>
<trkpt lat="31.4112300" lon="34.4292100">
<ele>17.680000</ele>
<time>2023-02-16T12:36:57.870Z</time>
</trkpt>
<trkpt lat="31.4112300" lon="34.4292100">
<ele>17.680000</ele>
<time>2023-02-16T12:36:57.870Z</time>
</trkpt>
<trkpt lat="31.4112300" lon="34.4292100">
<ele>17.680000</ele>
<time>2023-02-16T12:36:57.870Z</time>
</trkpt>
<trkpt lat="31.4111800" lon="34.4293500">
<ele>17.320000</ele>
<time>2023-02-16T12:36:57.870Z</time>
</trkpt>
<trkpt lat="31.4109500" lon="34.4296500">
<ele>18.250000</ele>
<time>2023-02-16T12:36:57.870Z</time>
</trkpt>
<trkpt lat="31.4108500" lon="34.4297700">
<ele>17.450001</ele>
<time>2023-02-16T12:36:57.874Z</time>
</trkpt>
<trkpt lat="31.4106300" lon="34.4299200">
<ele>15.730000</ele>
<time>2023-02-16T12:36:57.874Z</time>
</trkpt>
<trkpt lat="31.4105100" lon="34.4300700">
<ele>15.799999</ele>
<time>2023-02-16T12:36:57.874Z</time>
</trkpt>
<trkpt lat="31.4104700" lon="34.4301900">
<ele>16.730000</ele>
<time>2023-02-16T12:36:57.874Z</time>
</trkpt>
<trkpt lat="31.4104200" lon="34.4303900">
<ele>17.240000</ele>
<time>2023-02-16T12:36:57.874Z</time>
</trkpt>
<trkpt lat="31.4102700" lon="34.4307800">
<ele>18.190001</ele>
<time>2023-02-16T12:36:57.874Z</time>
</trkpt>
<trkpt lat="31.4101600" lon="34.4312200">
<ele>21.100000</ele>
<time>2023-02-16T12:36:57.874Z</time>
</trkpt>
<trkpt lat="31.4100000" lon="34.4316000">
<ele>20.799999</ele>
<time>2023-02-16T12:36:57.874Z</time>
</trkpt>
<trkpt lat="31.4099700" lon="34.4317000">
<ele>21.849998</ele>
<time>2023-02-16T12:36:57.874Z</time>
</trkpt>
<trkpt lat="31.4099100" lon="34.4319400">
<ele>23.289999</ele>
<time>2023-02-16T12:36:57.874Z</time>
</trkpt>
<trkpt lat="31.4098300" lon="34.4321000">
<ele>22.620001</ele>
<time>2023-02-16T12:36:57.874Z</time>
</trkpt>
<trkpt lat="31.4097000" lon="34.4324100">
<ele>22.480000</ele>
<time>2023-02-16T12:36:57.874Z</time>
</trkpt>
<trkpt lat="31.4093900" lon="34.4333800">
<ele>19.650002</ele>
<time>2023-02-16T12:36:57.874Z</time>
</trkpt>
<trkpt lat="31.4093200" lon="34.4335000">
<ele>19.720001</ele>
<time>2023-02-16T12:36:57.874Z</time>
</trkpt>
<trkpt lat="31.4092500" lon="34.4335400">
<ele>19.720001</ele>
<time>2023-02-16T12:36:57.874Z</time>
</trkpt>
<trkpt lat="31.4090500" lon="34.4335000">
<ele>20.350000</ele>
<time>2023-02-16T12:36:57.874Z</time>
</trkpt>
<trkpt lat="31.4087800" lon="34.4335200">
<ele>24.670002</ele>
<time>2023-02-16T12:36:57.874Z</time>
</trkpt>
<trkpt lat="31.4085200" lon="34.4334900">
<ele>31.289999</ele>
<time>2023-02-16T12:36:57.874Z</time>
</trkpt>
<trkpt lat="31.4081100" lon="34.4336200">
<ele>30.010000</ele>
<time>2023-02-16T12:36:57.874Z</time>
</trkpt>
<trkpt lat="31.4079100" lon="34.4337300">
<ele>28.580000</ele>
<time>2023-02-16T12:36:57.874Z</time>
</trkpt>
<trkpt lat="31.4077200" lon="34.4338200">
<ele>27.179998</ele>
<time>2023-02-16T12:36:57.874Z</time>
</trkpt>
<trkpt lat="31.4076400" lon="34.4338700">
<ele>26.480000</ele>
<time>2023-02-16T12:36:57.874Z</time>
</trkpt>
<trkpt lat="31.4076400" lon="34.4338700">
<ele>26.480000</ele>
<time>2023-02-16T12:36:57.874Z</time>
</trkpt>
<trkpt lat="31.4076400" lon="34.4338700">
<ele>26.480000</ele>
<time>2023-02-16T12:36:57.874Z</time>
</trkpt>
<trkpt lat="31.4074200" lon="34.4340200">
<ele>26.820000</ele>
<time>2023-02-16T12:36:57.874Z</time>
</trkpt>
<trkpt lat="31.4072300" lon="34.4341100">
<ele>28.929998</ele>
<time>2023-02-16T12:36:57.874Z</time>
</trkpt>
<trkpt lat="31.4068800" lon="34.4343100">
<ele>24.779999</ele>
<time>2023-02-16T12:36:57.874Z</time>
</trkpt>
<trkpt lat="31.4067200" lon="34.4343700">
<ele>26.550001</ele>
<time>2023-02-16T12:36:57.874Z</time>
</trkpt>
<trkpt lat="31.4063900" lon="34.4345400">
<ele>26.289999</ele>
<time>2023-02-16T12:36:57.874Z</time>
</trkpt>
<trkpt lat="31.4061400" lon="34.4347100">
<ele>27.460001</ele>
<time>2023-02-16T12:36:57.874Z</time>
</trkpt>
<trkpt lat="31.4057300" lon="34.4349400">
<ele>28.119999</ele>
<time>2023-02-16T12:36:57.874Z</time>
</trkpt>
<trkpt lat="31.4053300" lon="34.4351200">
<ele>22.799999</ele>
<time>2023-02-16T12:36:57.874Z</time>
</trkpt>
<trkpt lat="31.4052500" lon="34.4352000">
<ele>22.020000</ele>
<time>2023-02-16T12:36:57.874Z</time>
</trkpt>
<trkpt lat="31.4051300" lon="34.4352900">
<ele>22.280001</ele>
<time>2023-02-16T12:36:57.874Z</time>
</trkpt>
<trkpt lat="31.4050700" lon="34.4353300">
<ele>23.330000</ele>
<time>2023-02-16T12:36:57.874Z</time>
</trkpt>
<trkpt lat="31.4050000" lon="34.4353400">
<ele>23.690001</ele>
<time>2023-02-16T12:36:57.874Z</time>
</trkpt>
<trkpt lat="31.4048800" lon="34.4353300">
<ele>22.910000</ele>
<time>2023-02-16T12:36:57.874Z</time>
</trkpt>
<trkpt lat="31.4046400" lon="34.4353100">
<ele>22.799999</ele>
<time>2023-02-16T12:36:57.874Z</time>
</trkpt>
<trkpt lat="31.4045400" lon="34.4353300">
<ele>24.650000</ele>
<time>2023-02-16T12:36:57.874Z</time>
</trkpt>
<trkpt lat="31.4044600" lon="34.4353700">
<ele>25.590000</ele>
<time>2023-02-16T12:36:57.874Z</time>
</trkpt>
<trkpt lat="31.4043900" lon="34.4354300">
<ele>25.520000</ele>
<time>2023-02-16T12:36:57.874Z</time>
</trkpt>
<trkpt lat="31.4039600" lon="34.4361100">
<ele>23.010000</ele>
<time>2023-02-16T12:36:57.874Z</time>
</trkpt>
<trkpt lat="31.4038400" lon="34.4364000">
<ele>22.780001</ele>
<time>2023-02-16T12:36:57.874Z</time>
</trkpt>
<trkpt lat="31.4037700" lon="34.4365400">
<ele>24.010000</ele>
<time>2023-02-16T12:36:57.874Z</time>
</trkpt>
<trkpt lat="31.4036700" lon="34.4366400">
<ele>24.850000</ele>
<time>2023-02-16T12:36:57.874Z</time>
</trkpt>
<trkpt lat="31.4035800" lon="34.4366800">
<ele>23.530001</ele>
<time>2023-02-16T12:36:57.874Z</time>
</trkpt>
<trkpt lat="31.4035100" lon="34.4366900">
<ele>20.770000</ele>
<time>2023-02-16T12:36:57.874Z</time>
</trkpt>
<trkpt lat="31.4034000" lon="34.4366700">
<ele>16.650000</ele>
<time>2023-02-16T12:36:57.874Z</time>
</trkpt>
<trkpt lat="31.4032500" lon="34.4365900">
<ele>18.410000</ele>
<time>2023-02-16T12:36:57.874Z</time>
</trkpt>
<trkpt lat="31.4031700" lon="34.4365700">
<ele>20.350000</ele>
<time>2023-02-16T12:36:57.874Z</time>
</trkpt>
<trkpt lat="31.4031100" lon="34.4365700">
<ele>21.530001</ele>
<time>2023-02-16T12:36:57.874Z</time>
</trkpt>
<trkpt lat="31.4030400" lon="34.4365900">
<ele>23.120001</ele>
<time>2023-02-16T12:36:57.874Z</time>
</trkpt>
<trkpt lat="31.4029000" lon="34.4366800">
<ele>25.990000</ele>
<time>2023-02-16T12:36:57.874Z</time>
</trkpt>
<trkpt lat="31.4027400" lon="34.4367300">
<ele>25.659998</ele>
<time>2023-02-16T12:36:57.874Z</time>
</trkpt>
<trkpt lat="31.4025500" lon="34.4367400">
<ele>20.770000</ele>
<time>2023-02-16T12:36:57.874Z</time>
</trkpt>
<trkpt lat="31.4021600" lon="34.4366700">
<ele>20.670002</ele>
<time>2023-02-16T12:36:57.874Z</time>
</trkpt>
<trkpt lat="31.4015700" lon="34.4365200">
<ele>20.209999</ele>
<time>2023-02-16T12:36:57.874Z</time>
</trkpt>
<trkpt lat="31.4013300" lon="34.4364400">
<ele>16.980000</ele>
<time>2023-02-16T12:36:57.874Z</time>
</trkpt>
<trkpt lat="31.4008200" lon="34.4363400">
<ele>15.209999</ele>
<time>2023-02-16T12:36:57.874Z</time>
</trkpt>
<trkpt lat="31.4006800" lon="34.4363300">
<ele>17.439999</ele>
<time>2023-02-16T12:36:57.874Z</time>
</trkpt>
<trkpt lat="31.4003700" lon="34.4363400">
<ele>21.240000</ele>
<time>2023-02-16T12:36:57.874Z</time>
</trkpt>
<trkpt lat="31.4002100" lon="34.4363600">
<ele>23.029999</ele>
<time>2023-02-16T12:36:57.874Z</time>
</trkpt>
<trkpt lat="31.4000000" lon="34.4364200">
<ele>26.219999</ele>
<time>2023-02-16T12:36:57.874Z</time>
</trkpt>
<trkpt lat="31.3999500" lon="34.4361800">
<ele>25.110001</ele>
<time>2023-02-16T12:36:57.874Z</time>
</trkpt>
<trkpt lat="31.3998900" lon="34.4360400">
<ele>24.330002</ele>
<time>2023-02-16T12:36:57.874Z</time>
</trkpt>
<trkpt lat="31.3998400" lon="34.4359800">
<ele>23.859999</ele>
<time>2023-02-16T12:36:57.874Z</time>
</trkpt>
<trkpt lat="31.3997900" lon="34.4359400">
<ele>23.620001</ele>
<time>2023-02-16T12:36:57.874Z</time>
</trkpt>
<trkpt lat="31.3995300" lon="34.4358300">
<ele>21.580000</ele>
<time>2023-02-16T12:36:57.874Z</time>
</trkpt>
<trkpt lat="31.3994800" lon="34.4357800">
<ele>20.539999</ele>
<time>2023-02-16T12:36:57.874Z</time>
</trkpt>
<trkpt lat="31.3994400" lon="34.4357300">
<ele>19.469999</ele>
<time>2023-02-16T12:36:57.874Z</time>
</trkpt>
<trkpt lat="31.3993600" lon="34.4356300">
<ele>17.520000</ele>
<time>2023-02-16T12:36:57.874Z</time>
</trkpt>
<trkpt lat="31.3994400" lon="34.4353200">
<ele>17.850000</ele>
<time>2023-02-16T12:36:57.874Z</time>
</trkpt>
<trkpt lat="31.3994100" lon="34.4352500">
<ele>18.309999</ele>
<time>2023-02-16T12:36:57.874Z</time>
</trkpt>
<trkpt lat="31.3993700" lon="34.4351800">
<ele>19.150000</ele>
<time>2023-02-16T12:36:57.874Z</time>
</trkpt>
<trkpt lat="31.3992900" lon="34.4351200">
<ele>20.019999</ele>
<time>2023-02-16T12:36:57.874Z</time>
</trkpt>
<trkpt lat="31.3993300" lon="34.4347700">
<ele>22.730001</ele>
<time>2023-02-16T12:36:57.874Z</time>
</trkpt>
<trkpt lat="31.3988100" lon="34.4349100">
<ele>24.459999</ele>
<time>2023-02-16T12:36:57.874Z</time>
</trkpt>
<trkpt lat="31.3982600" lon="34.4352500">
<ele>18.459999</ele>
<time>2023-02-16T12:36:57.874Z</time>
</trkpt>
<trkpt lat="31.3981100" lon="34.4350100">
<ele>15.410000</ele>
<time>2023-02-16T12:36:57.874Z</time>
</trkpt>
<trkpt lat="31.3981600" lon="34.4348500">
<ele>16.969999</ele>
<time>2023-02-16T12:36:57.874Z</time>
</trkpt>
<trkpt lat="31.3978800" lon="34.4343300">
<ele>16.780001</ele>
<time>2023-02-16T12:36:57.874Z</time>
</trkpt>
<trkpt lat="31.3971900" lon="34.4337800">
<ele>17.280001</ele>
<time>2023-02-16T12:36:57.874Z</time>
</trkpt>
<trkpt lat="31.3971500" lon="34.4336200">
<ele>20.740000</ele>
<time>2023-02-16T12:36:57.874Z</time>
</trkpt>
<trkpt lat="31.3966900" lon="34.4328300">
<ele>25.130001</ele>
<time>2023-02-16T12:36:57.874Z</time>
</trkpt>
<trkpt lat="31.3966900" lon="34.4328300">
<ele>25.130001</ele>
<time>2023-02-16T12:36:57.874Z</time>
</trkpt>
<trkpt lat="31.3966900" lon="34.4328300">
<ele>25.130001</ele>
<time>2023-02-16T12:36:57.874Z</time>
</trkpt>
<trkpt lat="31.3966500" lon="34.4327600">
<ele>25.999998</ele>
<time>2023-02-16T12:36:57.874Z</time>
</trkpt>
<trkpt lat="31.3957500" lon="34.4325800">
<ele>25.230000</ele>
<time>2023-02-16T12:36:57.874Z</time>
</trkpt>
<trkpt lat="31.3954300" lon="34.4326400">
<ele>24.080000</ele>
<time>2023-02-16T12:36:57.874Z</time>
</trkpt>
<trkpt lat="31.3950200" lon="34.4325100">
<ele>25.849998</ele>
<time>2023-02-16T12:36:57.874Z</time>
</trkpt>
<trkpt lat="31.3947400" lon="34.4325900">
<ele>25.639999</ele>
<time>2023-02-16T12:36:57.874Z</time>
</trkpt>
<trkpt lat="31.3942900" lon="34.4330500">
<ele>25.580000</ele>
<time>2023-02-16T12:36:57.874Z</time>
</trkpt>
<trkpt lat="31.3938100" lon="34.4329400">
<ele>30.050001</ele>
<time>2023-02-16T12:36:57.874Z</time>
</trkpt>
<trkpt lat="31.3933600" lon="34.4329600">
<ele>37.469997</ele>
<time>2023-02-16T12:36:57.874Z</time>
</trkpt>
<trkpt lat="31.3929600" lon="34.4332400">
<ele>37.730000</ele>
<time>2023-02-16T12:36:57.874Z</time>
</trkpt>
<trkpt lat="31.3925300" lon="34.4331300">
<ele>37.900002</ele>
<time>2023-02-16T12:36:57.874Z</time>
</trkpt>
<trkpt lat="31.3923500" lon="34.4329300">
<ele>39.559998</ele>
<time>2023-02-16T12:36:57.874Z</time>
</trkpt>
<trkpt lat="31.3919500" lon="34.4330200">
<ele>35.090000</ele>
<time>2023-02-16T12:36:57.874Z</time>
</trkpt>
<trkpt lat="31.3915300" lon="34.4333400">
<ele>30.719999</ele>
<time>2023-02-16T12:36:57.874Z</time>
</trkpt>
<trkpt lat="31.3911000" lon="34.4335500">
<ele>30.559999</ele>
<time>2023-02-16T12:36:57.874Z</time>
</trkpt>
<trkpt lat="31.3907400" lon="34.4339100">
<ele>44.590000</ele>
<time>2023-02-16T12:36:57.874Z</time>
</trkpt>
<trkpt lat="31.3901100" lon="34.4340500">
<ele>33.060001</ele>
<time>2023-02-16T12:36:57.874Z</time>
</trkpt>
<trkpt lat="31.3898800" lon="34.4341200">
<ele>30.770000</ele>
<time>2023-02-16T12:36:57.874Z</time>
</trkpt>
<trkpt lat="31.3895100" lon="34.4339900">
<ele>34.430000</ele>
<time>2023-02-16T12:36:57.880Z</time>
</trkpt>
<trkpt lat="31.3892900" lon="34.4341000">
<ele>33.469997</ele>
<time>2023-02-16T12:36:57.880Z</time>
</trkpt>
<trkpt lat="31.3889300" lon="34.4345100">
<ele>29.790001</ele>
<time>2023-02-16T12:36:57.880Z</time>
</trkpt>
<trkpt lat="31.3887400" lon="34.4345000">
<ele>29.990000</ele>
<time>2023-02-16T12:36:57.880Z</time>
</trkpt>
<trkpt lat="31.3882000" lon="34.4343400">
<ele>27.660000</ele>
<time>2023-02-16T12:36:57.880Z</time>
</trkpt>
<trkpt lat="31.3878000" lon="34.4338900">
<ele>34.820000</ele>
<time>2023-02-16T12:36:57.880Z</time>
</trkpt>
<trkpt lat="31.3877900" lon="34.4335200">
<ele>33.740002</ele>
<time>2023-02-16T12:36:57.880Z</time>
</trkpt>
<trkpt lat="31.3875600" lon="34.4332600">
<ele>31.709999</ele>
<time>2023-02-16T12:36:57.880Z</time>
</trkpt>
<trkpt lat="31.3875700" lon="34.4329700">
<ele>33.970001</ele>
<time>2023-02-16T12:36:57.880Z</time>
</trkpt>
<trkpt lat="31.3874300" lon="34.4328500">
<ele>35.299999</ele>
<time>2023-02-16T12:36:57.880Z</time>
</trkpt>
<trkpt lat="31.3871300" lon="34.4331100">
<ele>33.070000</ele>
<time>2023-02-16T12:36:57.880Z</time>
</trkpt>
<trkpt lat="31.3867500" lon="34.4329900">
<ele>30.630001</ele>
<time>2023-02-16T12:36:57.880Z</time>
</trkpt>
<trkpt lat="31.3865100" lon="34.4331600">
<ele>28.400000</ele>
<time>2023-02-16T12:36:57.880Z</time>
</trkpt>
<trkpt lat="31.3860900" lon="34.4334600">
<ele>28.750000</ele>
<time>2023-02-16T12:36:57.880Z</time>
</trkpt>
<trkpt lat="31.3855300" lon="34.4339800">
<ele>32.900002</ele>
<time>2023-02-16T12:36:57.880Z</time>
</trkpt>
<trkpt lat="31.3852300" lon="34.4343200">
<ele>42.779999</ele>
<time>2023-02-16T12:36:57.880Z</time>
</trkpt>
<trkpt lat="31.3847100" lon="34.4348100">
<ele>40.280003</ele>
<time>2023-02-16T12:36:57.880Z</time>
</trkpt>
<trkpt lat="31.3845100" lon="34.4352800">
<ele>31.230001</ele>
<time>2023-02-16T12:36:57.880Z</time>
</trkpt>
<trkpt lat="31.3842500" lon="34.4357200">
<ele>28.249998</ele>
<time>2023-02-16T12:36:57.880Z</time>
</trkpt>
<trkpt lat="31.3841300" lon="34.4360900">
<ele>29.030001</ele>
<time>2023-02-16T12:36:57.880Z</time>
</trkpt>
<trkpt lat="31.3838600" lon="34.4365400">
<ele>32.040001</ele>
<time>2023-02-16T12:36:57.880Z</time>
</trkpt>
<trkpt lat="31.3838600" lon="34.4365400">
<ele>32.040001</ele>
<time>2023-02-16T12:36:57.880Z</time>
</trkpt>
<trkpt lat="31.3838600" lon="34.4365400">
<ele>32.040001</ele>
<time>2023-02-16T12:36:57.880Z</time>
</trkpt>
<trkpt lat="31.3838400" lon="34.4365800">
<ele>32.320000</ele>
<time>2023-02-16T12:36:57.880Z</time>
</trkpt>
<trkpt lat="31.3835800" lon="34.4368400">
<ele>33.450001</ele>
<time>2023-02-16T12:36:57.880Z</time>
</trkpt>
<trkpt lat="31.3834700" lon="34.4372000">
<ele>30.039999</ele>
<time>2023-02-16T12:36:57.880Z</time>
</trkpt>
<trkpt lat="31.3832900" lon="34.4374500">
<ele>26.010000</ele>
<time>2023-02-16T12:36:57.880Z</time>
</trkpt>
<trkpt lat="31.3830900" lon="34.4379600">
<ele>33.009998</ele>
<time>2023-02-16T12:36:57.880Z</time>
</trkpt>
<trkpt lat="31.3829900" lon="34.4387200">
<ele>27.969999</ele>
<time>2023-02-16T12:36:57.880Z</time>
</trkpt>
<trkpt lat="31.3828500" lon="34.4393800">
<ele>27.519999</ele>
<time>2023-02-16T12:36:57.880Z</time>
</trkpt>
<trkpt lat="31.3828900" lon="34.4396300">
<ele>27.010000</ele>
<time>2023-02-16T12:36:57.880Z</time>
</trkpt>
<trkpt lat="31.3829800" lon="34.4400100">
<ele>29.160000</ele>
<time>2023-02-16T12:36:57.880Z</time>
</trkpt>
<trkpt lat="31.3828000" lon="34.4404700">
<ele>38.779999</ele>
<time>2023-02-16T12:36:57.880Z</time>
</trkpt>
<trkpt lat="31.3823800" lon="34.4409500">
<ele>48.939999</ele>
<time>2023-02-16T12:36:57.880Z</time>
</trkpt>
<trkpt lat="31.3821200" lon="34.4411500">
<ele>53.560001</ele>
<time>2023-02-16T12:36:57.880Z</time>
</trkpt>
<trkpt lat="31.3818600" lon="34.4410200">
<ele>48.200001</ele>
<time>2023-02-16T12:36:57.880Z</time>
</trkpt>
<trkpt lat="31.3817400" lon="34.4413900">
<ele>52.579998</ele>
<time>2023-02-16T12:36:57.880Z</time>
</trkpt>
<trkpt lat="31.3816600" lon="34.4415500">
<ele>50.299999</ele>
<time>2023-02-16T12:36:57.880Z</time>
</trkpt>
<trkpt lat="31.3814300" lon="34.4417100">
<ele>42.539997</ele>
<time>2023-02-16T12:36:57.880Z</time>
</trkpt>
<trkpt lat="31.3813200" lon="34.4419300">
<ele>27.020000</ele>
<time>2023-02-16T12:36:57.880Z</time>
</trkpt>
<trkpt lat="31.3811000" lon="34.4422800">
<ele>28.840000</ele>
<time>2023-02-16T12:36:57.880Z</time>
</trkpt>
<trkpt lat="31.3809300" lon="34.4422600">
<ele>27.869999</ele>
<time>2023-02-16T12:36:57.880Z</time>
</trkpt>
<trkpt lat="31.3808400" lon="34.4422500">
<ele>27.510000</ele>
<time>2023-02-16T12:36:57.880Z</time>
</trkpt>
<trkpt lat="31.3807700" lon="34.4422700">
<ele>28.580000</ele>
<time>2023-02-16T12:36:57.880Z</time>
</trkpt>
<trkpt lat="31.3805600" lon="34.4423800">
<ele>33.349998</ele>
<time>2023-02-16T12:36:57.880Z</time>
</trkpt>
<trkpt lat="31.3803400" lon="34.4423800">
<ele>31.540001</ele>
<time>2023-02-16T12:36:57.880Z</time>
</trkpt>
<trkpt lat="31.3801200" lon="34.4423000">
<ele>31.160000</ele>
<time>2023-02-16T12:36:57.880Z</time>
</trkpt>
<trkpt lat="31.3800400" lon="34.4422500">
<ele>31.090000</ele>
<time>2023-02-16T12:36:57.880Z</time>
</trkpt>
<trkpt lat="31.3799300" lon="34.4421700">
<ele>31.629999</ele>
<time>2023-02-16T12:36:57.880Z</time>
</trkpt>
<trkpt lat="31.3796800" lon="34.4419300">
<ele>37.049999</ele>
<time>2023-02-16T12:36:57.880Z</time>
</trkpt>
<trkpt lat="31.3795200" lon="34.4418400">
<ele>35.840000</ele>
<time>2023-02-16T12:36:57.880Z</time>
</trkpt>
<trkpt lat="31.3793900" lon="34.4417900">
<ele>34.110001</ele>
<time>2023-02-16T12:36:57.880Z</time>
</trkpt>
<trkpt lat="31.3789000" lon="34.4417800">
<ele>26.160002</ele>
<time>2023-02-16T12:36:57.880Z</time>
</trkpt>
<trkpt lat="31.3787600" lon="34.4418200">
<ele>26.459999</ele>
<time>2023-02-16T12:36:57.880Z</time>
</trkpt>
<trkpt lat="31.3785500" lon="34.4418200">
<ele>26.120001</ele>
<time>2023-02-16T12:36:57.880Z</time>
</trkpt>
<trkpt lat="31.3784700" lon="34.4418700">
<ele>26.369999</ele>
<time>2023-02-16T12:36:57.880Z</time>
</trkpt>
<trkpt lat="31.3784000" lon="34.4419400">
<ele>26.750000</ele>
<time>2023-02-16T12:36:57.880Z</time>
</trkpt>
<trkpt lat="31.3781500" lon="34.4423800">
<ele>26.020000</ele>
<time>2023-02-16T12:36:57.880Z</time>
</trkpt>
<trkpt lat="31.3779200" lon="34.4426700">
<ele>28.809999</ele>
<time>2023-02-16T12:36:57.880Z</time>
</trkpt>
<trkpt lat="31.3777900" lon="34.4428100">
<ele>30.590000</ele>
<time>2023-02-16T12:36:57.880Z</time>
</trkpt>
<trkpt lat="31.3775600" lon="34.4429800">
<ele>31.980000</ele>
<time>2023-02-16T12:36:57.880Z</time>
</trkpt>
<trkpt lat="31.3773900" lon="34.4430600">
<ele>30.410000</ele>
<time>2023-02-16T12:36:57.880Z</time>
</trkpt>
<trkpt lat="31.3772200" lon="34.4431100">
<ele>28.809999</ele>
<time>2023-02-16T12:36:57.880Z</time>
</trkpt>
<trkpt lat="31.3771700" lon="34.4431000">
<ele>29.170000</ele>
<time>2023-02-16T12:36:57.880Z</time>
</trkpt>
<trkpt lat="31.3770400" lon="34.4430200">
<ele>30.609999</ele>
<time>2023-02-16T12:36:57.880Z</time>
</trkpt>
<trkpt lat="31.3767800" lon="34.4429300">
<ele>34.369999</ele>
<time>2023-02-16T12:36:57.880Z</time>
</trkpt>
<trkpt lat="31.3764300" lon="34.4428500">
<ele>38.700001</ele>
<time>2023-02-16T12:36:57.880Z</time>
</trkpt>
<trkpt lat="31.3760900" lon="34.4426700">
<ele>41.670002</ele>
<time>2023-02-16T12:36:57.880Z</time>
</trkpt>
<trkpt lat="31.3758600" lon="34.4425100">
<ele>37.510002</ele>
<time>2023-02-16T12:36:57.880Z</time>
</trkpt>
<trkpt lat="31.3757200" lon="34.4424700">
<ele>35.860001</ele>
<time>2023-02-16T12:36:57.880Z</time>
</trkpt>
<trkpt lat="31.3754900" lon="34.4424700">
<ele>35.060001</ele>
<time>2023-02-16T12:36:57.884Z</time>
</trkpt>
<trkpt lat="31.3753100" lon="34.4425100">
<ele>37.279999</ele>
<time>2023-02-16T12:36:57.884Z</time>
</trkpt>
<trkpt lat="31.3749000" lon="34.4426500">
<ele>34.079998</ele>
<time>2023-02-16T12:36:57.884Z</time>
</trkpt>
<trkpt lat="31.3745100" lon="34.4428100">
<ele>37.230000</ele>
<time>2023-02-16T12:36:57.884Z</time>
</trkpt>
<trkpt lat="31.3743400" lon="34.4428500">
<ele>37.360001</ele>
<time>2023-02-16T12:36:57.884Z</time>
</trkpt>
<trkpt lat="31.3740200" lon="34.4428500">
<ele>35.570000</ele>
<time>2023-02-16T12:36:57.884Z</time>
</trkpt>
<trkpt lat="31.3735000" lon="34.4426900">
<ele>32.100002</ele>
<time>2023-02-16T12:36:57.884Z</time>
</trkpt>
<trkpt lat="31.3732900" lon="34.4426800">
<ele>32.450001</ele>
<time>2023-02-16T12:36:57.884Z</time>
</trkpt>
<trkpt lat="31.3731500" lon="34.4426400">
<ele>32.830002</ele>
<time>2023-02-16T12:36:57.884Z</time>
</trkpt>
<trkpt lat="31.3728900" lon="34.4426800">
<ele>34.369999</ele>
<time>2023-02-16T12:36:57.884Z</time>
</trkpt>
<trkpt lat="31.3728500" lon="34.4426900">
<ele>34.750000</ele>
<time>2023-02-16T12:36:57.885Z</time>
</trkpt>
<trkpt lat="31.3726100" lon="34.4427800">
<ele>35.400002</ele>
<time>2023-02-16T12:36:57.885Z</time>
</trkpt>
<trkpt lat="31.3724200" lon="34.4429100">
<ele>34.860001</ele>
<time>2023-02-16T12:36:57.885Z</time>
</trkpt>
<trkpt lat="31.3718500" lon="34.4434600">
<ele>34.010002</ele>
<time>2023-02-16T12:36:57.885Z</time>
</trkpt>
<trkpt lat="31.3712800" lon="34.4439200">
<ele>33.500000</ele>
<time>2023-02-16T12:36:57.885Z</time>
</trkpt>
<trkpt lat="31.3708800" lon="34.4441900">
<ele>30.520000</ele>
<time>2023-02-16T12:36:57.885Z</time>
</trkpt>
<trkpt lat="31.3704400" lon="34.4444200">
<ele>28.019999</ele>
<time>2023-02-16T12:36:57.885Z</time>
</trkpt>
<trkpt lat="31.3699800" lon="34.4446100">
<ele>29.420000</ele>
<time>2023-02-16T12:36:57.885Z</time>
</trkpt>
<trkpt lat="31.3699000" lon="34.4446200">
<ele>29.269999</ele>
<time>2023-02-16T12:36:57.885Z</time>
</trkpt>
<trkpt lat="31.3698100" lon="34.4446600">
<ele>28.950001</ele>
<time>2023-02-16T12:36:57.885Z</time>
</trkpt>
<trkpt lat="31.3685900" lon="34.4446600">
<ele>36.340000</ele>
<time>2023-02-16T12:36:57.885Z</time>
</trkpt>
<trkpt lat="31.3684500" lon="34.4446200">
<ele>38.639999</ele>
<time>2023-02-16T12:36:57.885Z</time>
</trkpt>
<trkpt lat="31.3683200" lon="34.4446200">
<ele>41.340004</ele>
<time>2023-02-16T12:36:57.885Z</time>
</trkpt>
<trkpt lat="31.3682000" lon="34.4445800">
<ele>42.369999</ele>
<time>2023-02-16T12:36:57.885Z</time>
</trkpt>
<trkpt lat="31.3680400" lon="34.4445700">
<ele>44.330002</ele>
<time>2023-02-16T12:36:57.885Z</time>
</trkpt>
<trkpt lat="31.3678400" lon="34.4445100">
<ele>43.520000</ele>
<time>2023-02-16T12:36:57.885Z</time>
</trkpt>
<trkpt lat="31.3676500" lon="34.4443900">
<ele>41.869999</ele>
<time>2023-02-16T12:36:57.886Z</time>
</trkpt>
<trkpt lat="31.3676100" lon="34.4442700">
<ele>41.290001</ele>
<time>2023-02-16T12:36:57.886Z</time>
</trkpt>
<trkpt lat="31.3676900" lon="34.4441200">
<ele>41.450001</ele>
<time>2023-02-16T12:36:57.886Z</time>
</trkpt>
<trkpt lat="31.3677700" lon="34.4438800">
<ele>44.040001</ele>
<time>2023-02-16T12:36:57.886Z</time>
</trkpt>
<trkpt lat="31.3678000" lon="34.4437000">
<ele>45.630001</ele>
<time>2023-02-16T12:36:57.886Z</time>
</trkpt>
<trkpt lat="31.3677100" lon="34.4433000">
<ele>46.579998</ele>
<time>2023-02-16T12:36:57.886Z</time>
</trkpt>
<trkpt lat="31.3675100" lon="34.4431300">
<ele>47.949997</ele>
<time>2023-02-16T12:36:57.886Z</time>
</trkpt>
<trkpt lat="31.3672600" lon="34.4431600">
<ele>48.210003</ele>
<time>2023-02-16T12:36:57.886Z</time>
</trkpt>
<trkpt lat="31.3669900" lon="34.4428000">
<ele>49.789997</ele>
<time>2023-02-16T12:36:57.886Z</time>
</trkpt>
<trkpt lat="31.3667900" lon="34.4425700">
<ele>50.889999</ele>
<time>2023-02-16T12:36:57.886Z</time>
</trkpt>
<trkpt lat="31.3664700" lon="34.4428600">
<ele>48.590000</ele>
<time>2023-02-16T12:36:57.886Z</time>
</trkpt>
<trkpt lat="31.3663000" lon="34.4431200">
<ele>49.000000</ele>
<time>2023-02-16T12:36:57.886Z</time>
</trkpt>
<trkpt lat="31.3659700" lon="34.4431400">
<ele>47.610001</ele>
<time>2023-02-16T12:36:57.886Z</time>
</trkpt>
<trkpt lat="31.3655500" lon="34.4431600">
<ele>46.910004</ele>
<time>2023-02-16T12:36:57.886Z</time>
</trkpt>
<trkpt lat="31.3653100" lon="34.4431900">
<ele>42.989998</ele>
<time>2023-02-16T12:36:57.886Z</time>
</trkpt>
<trkpt lat="31.3648900" lon="34.4431300">
<ele>44.759998</ele>
<time>2023-02-16T12:36:57.887Z</time>
</trkpt>
<trkpt lat="31.3647100" lon="34.4428100">
<ele>47.980003</ele>
<time>2023-02-16T12:36:57.887Z</time>
</trkpt>
<trkpt lat="31.3645600" lon="34.4422700">
<ele>50.340000</ele>
<time>2023-02-16T12:36:57.887Z</time>
</trkpt>
<trkpt lat="31.3643300" lon="34.4418600">
<ele>49.160000</ele>
<time>2023-02-16T12:36:57.887Z</time>
</trkpt>
<trkpt lat="31.3640400" lon="34.4417700">
<ele>48.910000</ele>
<time>2023-02-16T12:36:57.887Z</time>
</trkpt>
<trkpt lat="31.3636900" lon="34.4421100">
<ele>50.439999</ele>
<time>2023-02-16T12:36:57.887Z</time>
</trkpt>
<trkpt lat="31.3634900" lon="34.4421300">
<ele>49.420002</ele>
<time>2023-02-16T12:36:57.887Z</time>
</trkpt>
<trkpt lat="31.3634100" lon="34.4417900">
<ele>54.330002</ele>
<time>2023-02-16T12:36:57.887Z</time>
</trkpt>
<trkpt lat="31.3632400" lon="34.4417400">
<ele>55.389999</ele>
<time>2023-02-16T12:36:57.887Z</time>
</trkpt>
<trkpt lat="31.3625700" lon="34.4418500">
<ele>51.580002</ele>
<time>2023-02-16T12:36:57.887Z</time>
</trkpt>
<trkpt lat="31.3623000" lon="34.4418000">
<ele>49.719997</ele>
<time>2023-02-16T12:36:57.888Z</time>
</trkpt>
<trkpt lat="31.3619900" lon="34.4415800">
<ele>50.309998</ele>
<time>2023-02-16T12:36:57.888Z</time>
</trkpt>
<trkpt lat="31.3618400" lon="34.4412100">
<ele>54.779999</ele>
<time>2023-02-16T12:36:57.888Z</time>
</trkpt>
<trkpt lat="31.3617800" lon="34.4410500">
<ele>54.950001</ele>
<time>2023-02-16T12:36:57.888Z</time>
</trkpt>
<trkpt lat="31.3612900" lon="34.4409600">
<ele>52.660000</ele>
<time>2023-02-16T12:36:57.888Z</time>
</trkpt>
<trkpt lat="31.3610400" lon="34.4408200">
<ele>53.010002</ele>
<time>2023-02-16T12:36:57.888Z</time>
</trkpt>
<trkpt lat="31.3606300" lon="34.4410400">
<ele>53.980000</ele>
<time>2023-02-16T12:36:57.888Z</time>
</trkpt>
<trkpt lat="31.3601900" lon="34.4407900">
<ele>51.009998</ele>
<time>2023-02-16T12:36:57.888Z</time>
</trkpt>
<trkpt lat="31.3600500" lon="34.4402200">
<ele>47.549999</ele>
<time>2023-02-16T12:36:57.888Z</time>
</trkpt>
<trkpt lat="31.3596900" lon="34.4398200">
<ele>55.380001</ele>
<time>2023-02-16T12:36:57.888Z</time>
</trkpt>
<trkpt lat="31.3593600" lon="34.4399800">
<ele>55.520000</ele>
<time>2023-02-16T12:36:57.888Z</time>
</trkpt>
<trkpt lat="31.3589000" lon="34.4401800">
<ele>51.740002</ele>
<time>2023-02-16T12:36:57.888Z</time>
</trkpt>
<trkpt lat="31.3586200" lon="34.4403900">
<ele>46.480000</ele>
<time>2023-02-16T12:36:57.888Z</time>
</trkpt>
<trkpt lat="31.3583600" lon="34.4399800">
<ele>51.870003</ele>
<time>2023-02-16T12:36:57.888Z</time>
</trkpt>
<trkpt lat="31.3580900" lon="34.4397200">
<ele>52.980000</ele>
<time>2023-02-16T12:36:57.888Z</time>
</trkpt>
<trkpt lat="31.3580300" lon="34.4396800">
<ele>52.299999</ele>
<time>2023-02-16T12:36:57.888Z</time>
</trkpt>
<trkpt lat="31.3580900" lon="34.4393900">
<ele>50.619999</ele>
<time>2023-02-16T12:36:57.888Z</time>
</trkpt>
<trkpt lat="31.3579800" lon="34.4389800">
<ele>53.620003</ele>
<time>2023-02-16T12:36:57.888Z</time>
</trkpt>
<trkpt lat="31.3575300" lon="34.4384200">
<ele>49.510002</ele>
<time>2023-02-16T12:36:57.888Z</time>
</trkpt>
<trkpt lat="31.3573700" lon="34.4380600">
<ele>52.480000</ele>
<time>2023-02-16T12:36:57.888Z</time>
</trkpt>
<trkpt lat="31.3571000" lon="34.4380400">
<ele>55.029999</ele>
<time>2023-02-16T12:36:57.888Z</time>
</trkpt>
<trkpt lat="31.3569100" lon="34.4379800">
<ele>57.420002</ele>
<time>2023-02-16T12:36:57.888Z</time>
</trkpt>
<trkpt lat="31.3565800" lon="34.4375800">
<ele>54.519997</ele>
<time>2023-02-16T12:36:57.888Z</time>
</trkpt>
<trkpt lat="31.3560700" lon="34.4375300">
<ele>60.580002</ele>
<time>2023-02-16T12:36:57.888Z</time>
</trkpt>
<trkpt lat="31.3558200" lon="34.4373800">
<ele>63.150002</ele>
<time>2023-02-16T12:36:57.888Z</time>
</trkpt>
<trkpt lat="31.3554500" lon="34.4369900">
<ele>63.649998</ele>
<time>2023-02-16T12:36:57.888Z</time>
</trkpt>
<trkpt lat="31.3551800" lon="34.4369000">
<ele>64.290001</ele>
<time>2023-02-16T12:36:57.888Z</time>
</trkpt>
<trkpt lat="31.3547900" lon="34.4369700">
<ele>57.890003</ele>
<time>2023-02-16T12:36:57.888Z</time>
</trkpt>
<trkpt lat="31.3544100" lon="34.4365100">
<ele>57.869999</ele>
<time>2023-02-16T12:36:57.888Z</time>
</trkpt>
<trkpt lat="31.3544900" lon="34.4363700">
<ele>60.470001</ele>
<time>2023-02-16T12:36:57.888Z</time>
</trkpt>
<trkpt lat="31.3544900" lon="34.4361600">
<ele>62.230003</ele>
<time>2023-02-16T12:36:57.888Z</time>
</trkpt>
<trkpt lat="31.3545200" lon="34.4359600">
<ele>66.139999</ele>
<time>2023-02-16T12:36:57.888Z</time>
</trkpt>
<trkpt lat="31.3545500" lon="34.4358400">
<ele>68.940002</ele>
<time>2023-02-16T12:36:57.888Z</time>
</trkpt>
<trkpt lat="31.3545500" lon="34.4358400">
<ele>68.940002</ele>
<time>2023-02-16T12:36:57.888Z</time>
</trkpt>
<trkpt lat="31.3545500" lon="34.4358400">
<ele>68.940002</ele>
<time>2023-02-16T12:36:57.888Z</time>
</trkpt>
<trkpt lat="31.3545500" lon="34.4358400">
<ele>68.940002</ele>
<time>2023-02-16T12:36:57.888Z</time>
</trkpt>
<trkpt lat="31.3544400" lon="34.4357800">
<ele>67.159996</ele>
<time>2023-02-16T12:36:57.888Z</time>
</trkpt>
<trkpt lat="31.3542000" lon="34.4354200">
<ele>67.519997</ele>
<time>2023-02-16T12:36:57.888Z</time>
</trkpt>
<trkpt lat="31.3540000" lon="34.4351600">
<ele>61.550003</ele>
<time>2023-02-16T12:36:57.888Z</time>
</trkpt>
<trkpt lat="31.3538200" lon="34.4350900">
<ele>56.680000</ele>
<time>2023-02-16T12:36:57.888Z</time>
</trkpt>
<trkpt lat="31.3536500" lon="34.4352300">
<ele>55.010002</ele>
<time>2023-02-16T12:36:57.888Z</time>
</trkpt>
<trkpt lat="31.3535700" lon="34.4354600">
<ele>55.849998</ele>
<time>2023-02-16T12:36:57.888Z</time>
</trkpt>
<trkpt lat="31.3534000" lon="34.4357500">
<ele>55.060001</ele>
<time>2023-02-16T12:36:57.888Z</time>
</trkpt>
<trkpt lat="31.3527500" lon="34.4356700">
<ele>54.589996</ele>
<time>2023-02-16T12:36:57.888Z</time>
</trkpt>
<trkpt lat="31.3524800" lon="34.4361700">
<ele>53.070000</ele>
<time>2023-02-16T12:36:57.888Z</time>
</trkpt>
<trkpt lat="31.3523600" lon="34.4368700">
<ele>54.739998</ele>
<time>2023-02-16T12:36:57.888Z</time>
</trkpt>
<trkpt lat="31.3521300" lon="34.4369700">
<ele>56.849998</ele>
<time>2023-02-16T12:36:57.888Z</time>
</trkpt>
<trkpt lat="31.3514500" lon="34.4367700">
<ele>59.079998</ele>
<time>2023-02-16T12:36:57.888Z</time>
</trkpt>
<trkpt lat="31.3510700" lon="34.4365100">
<ele>62.049999</ele>
<time>2023-02-16T12:36:57.888Z</time>
</trkpt>
<trkpt lat="31.3502100" lon="34.4360800">
<ele>63.900002</ele>
<time>2023-02-16T12:36:57.888Z</time>
</trkpt>
<trkpt lat="31.3495400" lon="34.4352000">
<ele>62.560001</ele>
<time>2023-02-16T12:36:57.888Z</time>
</trkpt>
<trkpt lat="31.3492000" lon="34.4339400">
<ele>59.239998</ele>
<time>2023-02-16T12:36:57.888Z</time>
</trkpt>
<trkpt lat="31.3488900" lon="34.4337500">
<ele>55.020000</ele>
<time>2023-02-16T12:36:57.888Z</time>
</trkpt>
<trkpt lat="31.3486200" lon="34.4335900">
<ele>52.100002</ele>
<time>2023-02-16T12:36:57.888Z</time>
</trkpt>
<trkpt lat="31.3481600" lon="34.4328800">
<ele>55.459999</ele>
<time>2023-02-16T12:36:57.888Z</time>
</trkpt>
<trkpt lat="31.3480500" lon="34.4325800">
<ele>52.630001</ele>
<time>2023-02-16T12:36:57.888Z</time>
</trkpt>
<trkpt lat="31.3477000" lon="34.4320400">
<ele>57.290001</ele>
<time>2023-02-16T12:36:57.888Z</time>
</trkpt>
<trkpt lat="31.3476700" lon="34.4318800">
<ele>58.610001</ele>
<time>2023-02-16T12:36:57.888Z</time>
</trkpt>
<trkpt lat="31.3473600" lon="34.4317700">
<ele>61.369999</ele>
<time>2023-02-16T12:36:57.888Z</time>
</trkpt>
<trkpt lat="31.3470600" lon="34.4313300">
<ele>60.420002</ele>
<time>2023-02-16T12:36:57.888Z</time>
</trkpt>
<trkpt lat="31.3470700" lon="34.4311300">
<ele>61.119999</ele>
<time>2023-02-16T12:36:57.888Z</time>
</trkpt>
<trkpt lat="31.3468900" lon="34.4308400">
<ele>57.299999</ele>
<time>2023-02-16T12:36:57.888Z</time>
</trkpt>
<trkpt lat="31.3469100" lon="34.4306600">
<ele>58.410004</ele>
<time>2023-02-16T12:36:57.888Z</time>
</trkpt>
<trkpt lat="31.3471100" lon="34.4308200">
<ele>57.639999</ele>
<time>2023-02-16T12:36:57.888Z</time>
</trkpt>
<trkpt lat="31.3472000" lon="34.4305700">
<ele>59.030003</ele>
<time>2023-02-16T12:36:57.888Z</time>
</trkpt>
<trkpt lat="31.3470400" lon="34.4301100">
<ele>56.619999</ele>
<time>2023-02-16T12:36:57.888Z</time>
</trkpt>
<trkpt lat="31.3469000" lon="34.4298600">
<ele>56.340000</ele>
<time>2023-02-16T12:36:57.888Z</time>
</trkpt>
<trkpt lat="31.3467600" lon="34.4298000">
<ele>56.060001</ele>
<time>2023-02-16T12:36:57.888Z</time>
</trkpt>
<trkpt lat="31.3466800" lon="34.4296300">
<ele>56.020000</ele>
<time>2023-02-16T12:36:57.888Z</time>
</trkpt>
<trkpt lat="31.3466500" lon="34.4293700">
<ele>55.340000</ele>
<time>2023-02-16T12:36:57.888Z</time>
</trkpt>
<trkpt lat="31.3464000" lon="34.4288700">
<ele>49.239998</ele>
<time>2023-02-16T12:36:57.888Z</time>
</trkpt>
<trkpt lat="31.3463800" lon="34.4288200">
<ele>49.889999</ele>
<time>2023-02-16T12:36:57.888Z</time>
</trkpt>
<trkpt lat="31.3463800" lon="34.4288200">
<ele>49.889999</ele>
<time>2023-02-16T12:36:57.888Z</time>
</trkpt>
<trkpt lat="31.3463800" lon="34.4288200">
<ele>49.889999</ele>
<time>2023-02-16T12:36:57.888Z</time>
</trkpt>
<trkpt lat="31.3462500" lon="34.4285600">
<ele>53.959999</ele>
<time>2023-02-16T12:36:57.888Z</time>
</trkpt>
<trkpt lat="31.3461300" lon="34.4283700">
<ele>55.090000</ele>
<time>2023-02-16T12:36:57.888Z</time>
</trkpt>
<trkpt lat="31.3457900" lon="34.4279300">
<ele>59.609997</ele>
<time>2023-02-16T12:36:57.888Z</time>
</trkpt>
<trkpt lat="31.3453600" lon="34.4277000">
<ele>64.089996</ele>
<time>2023-02-16T12:36:57.888Z</time>
</trkpt>
<trkpt lat="31.3453200" lon="34.4275400">
<ele>63.470001</ele>
<time>2023-02-16T12:36:57.888Z</time>
</trkpt>
<trkpt lat="31.3453600" lon="34.4273700">
<ele>60.270000</ele>
<time>2023-02-16T12:36:57.888Z</time>
</trkpt>
<trkpt lat="31.3447000" lon="34.4265300">
<ele>60.139999</ele>
<time>2023-02-16T12:36:57.888Z</time>
</trkpt>
<trkpt lat="31.3443400" lon="34.4260600">
<ele>55.180000</ele>
<time>2023-02-16T12:36:57.888Z</time>
</trkpt>
<trkpt lat="31.3441000" lon="34.4259600">
<ele>60.100002</ele>
<time>2023-02-16T12:36:57.888Z</time>
</trkpt>
<trkpt lat="31.3438900" lon="34.4259000">
<ele>71.419998</ele>
<time>2023-02-16T12:36:57.888Z</time>
</trkpt>
<trkpt lat="31.3437900" lon="34.4255500">
<ele>66.389999</ele>
<time>2023-02-16T12:36:57.888Z</time>
</trkpt>
<trkpt lat="31.3439300" lon="34.4254200">
<ele>62.639999</ele>
<time>2023-02-16T12:36:57.888Z</time>
</trkpt>
<trkpt lat="31.3438700" lon="34.4253000">
<ele>62.760002</ele>
<time>2023-02-16T12:36:57.888Z</time>
</trkpt>
<trkpt lat="31.3438000" lon="34.4252800">
<ele>64.570000</ele>
<time>2023-02-16T12:36:57.888Z</time>
</trkpt>
<trkpt lat="31.3437100" lon="34.4253100">
<ele>67.199997</ele>
<time>2023-02-16T12:36:57.888Z</time>
</trkpt>
<trkpt lat="31.3436300" lon="34.4252600">
<ele>69.449997</ele>
<time>2023-02-16T12:36:57.888Z</time>
</trkpt>
<trkpt lat="31.3437200" lon="34.4248800">
<ele>65.220001</ele>
<time>2023-02-16T12:36:57.888Z</time>
</trkpt>
<trkpt lat="31.3435700" lon="34.4246300">
<ele>65.860001</ele>
<time>2023-02-16T12:36:57.888Z</time>
</trkpt>
<trkpt lat="31.3435700" lon="34.4244800">
<ele>62.860001</ele>
<time>2023-02-16T12:36:57.888Z</time>
</trkpt>
<trkpt lat="31.3431800" lon="34.4239400">
<ele>61.129997</ele>
<time>2023-02-16T12:36:57.888Z</time>
</trkpt>
<trkpt lat="31.3429500" lon="34.4239000">
<ele>61.750000</ele>
<time>2023-02-16T12:36:57.888Z</time>
</trkpt>
<trkpt lat="31.3426300" lon="34.4235500">
<ele>59.740002</ele>
<time>2023-02-16T12:36:57.888Z</time>
</trkpt>
<trkpt lat="31.3426000" lon="34.4232500">
<ele>58.560001</ele>
<time>2023-02-16T12:36:57.888Z</time>
</trkpt>
<trkpt lat="31.3423700" lon="34.4229500">
<ele>59.699997</ele>
<time>2023-02-16T12:36:57.888Z</time>
</trkpt>
<trkpt lat="31.3421400" lon="34.4229000">
<ele>64.139999</ele>
<time>2023-02-16T12:36:57.888Z</time>
</trkpt>
<trkpt lat="31.3419700" lon="34.4226900">
<ele>66.750000</ele>
<time>2023-02-16T12:36:57.888Z</time>
</trkpt>
<trkpt lat="31.3417500" lon="34.4224200">
<ele>67.540001</ele>
<time>2023-02-16T12:36:57.888Z</time>
</trkpt>
<trkpt lat="31.3415500" lon="34.4222600">
<ele>65.449997</ele>
<time>2023-02-16T12:36:57.888Z</time>
</trkpt>
<trkpt lat="31.3409300" lon="34.4218600">
<ele>61.930000</ele>
<time>2023-02-16T12:36:57.888Z</time>
</trkpt>
<trkpt lat="31.3406700" lon="34.4215200">
<ele>60.609997</ele>
<time>2023-02-16T12:36:57.888Z</time>
</trkpt>
<trkpt lat="31.3407500" lon="34.4213100">
<ele>58.730000</ele>
<time>2023-02-16T12:36:57.888Z</time>
</trkpt>
<trkpt lat="31.3404100" lon="34.4207400">
<ele>62.349998</ele>
<time>2023-02-16T12:36:57.888Z</time>
</trkpt>
<trkpt lat="31.3400700" lon="34.4201700">
<ele>69.010002</ele>
<time>2023-02-16T12:36:57.888Z</time>
</trkpt>
<trkpt lat="31.3401800" lon="34.4200500">
<ele>70.589996</ele>
<time>2023-02-16T12:36:57.888Z</time>
</trkpt>
<trkpt lat="31.3404100" lon="34.4198500">
<ele>66.959999</ele>
<time>2023-02-16T12:36:57.888Z</time>
</trkpt>
<trkpt lat="31.3405500" lon="34.4195900">
<ele>61.650002</ele>
<time>2023-02-16T12:36:57.888Z</time>
</trkpt>
<trkpt lat="31.3406700" lon="34.4191200">
<ele>60.950001</ele>
<time>2023-02-16T12:36:57.888Z</time>
</trkpt>
<trkpt lat="31.3405700" lon="34.4189200">
<ele>63.509998</ele>
<time>2023-02-16T12:36:57.888Z</time>
</trkpt>
<trkpt lat="31.3405200" lon="34.4187000">
<ele>66.080002</ele>
<time>2023-02-16T12:36:57.888Z</time>
</trkpt>
<trkpt lat="31.3404800" lon="34.4184800">
<ele>68.110001</ele>
<time>2023-02-16T12:36:57.888Z</time>
</trkpt>
<trkpt lat="31.3405500" lon="34.4183900">
<ele>67.879997</ele>
<time>2023-02-16T12:36:57.888Z</time>
</trkpt>
<trkpt lat="31.3408100" lon="34.4181900">
<ele>69.430000</ele>
<time>2023-02-16T12:36:57.894Z</time>
</trkpt>
<trkpt lat="31.3409800" lon="34.4180300">
<ele>74.320000</ele>
<time>2023-02-16T12:36:57.894Z</time>
</trkpt>
<trkpt lat="31.3411800" lon="34.4179000">
<ele>77.639999</ele>
<time>2023-02-16T12:36:57.894Z</time>
</trkpt>
<trkpt lat="31.3413300" lon="34.4177600">
<ele>78.349998</ele>
<time>2023-02-16T12:36:57.894Z</time>
</trkpt>
<trkpt lat="31.3415600" lon="34.4170200">
<ele>77.790001</ele>
<time>2023-02-16T12:36:57.894Z</time>
</trkpt>
<trkpt lat="31.3418100" lon="34.4166500">
<ele>76.639999</ele>
<time>2023-02-16T12:36:57.894Z</time>
</trkpt>
<trkpt lat="31.3417600" lon="34.4162100">
<ele>73.209999</ele>
<time>2023-02-16T12:36:57.894Z</time>
</trkpt>
<trkpt lat="31.3421400" lon="34.4144100">
<ele>69.349998</ele>
<time>2023-02-16T12:36:57.894Z</time>
</trkpt>
<trkpt lat="31.3422000" lon="34.4141700">
<ele>72.639999</ele>
<time>2023-02-16T12:36:57.895Z</time>
</trkpt>
<trkpt lat="31.3422000" lon="34.4141700">
<ele>72.639999</ele>
<time>2023-02-16T12:36:57.895Z</time>
</trkpt>
<trkpt lat="31.3422000" lon="34.4141700">
<ele>72.639999</ele>
<time>2023-02-16T12:36:57.895Z</time>
</trkpt>
<trkpt lat="31.3423300" lon="34.4137300">
<ele>71.129997</ele>
<time>2023-02-16T12:36:57.895Z</time>
</trkpt>
<trkpt lat="31.3426700" lon="34.4132800">
<ele>73.370003</ele>
<time>2023-02-16T12:36:57.895Z</time>
</trkpt>
<trkpt lat="31.3425700" lon="34.4128100">
<ele>74.449997</ele>
<time>2023-02-16T12:36:57.895Z</time>
</trkpt>
<trkpt lat="31.3430700" lon="34.4118900">
<ele>75.309998</ele>
<time>2023-02-16T12:36:57.895Z</time>
</trkpt>
<trkpt lat="31.3432300" lon="34.4113100">
<ele>80.199997</ele>
<time>2023-02-16T12:36:57.895Z</time>
</trkpt>
<trkpt lat="31.3431100" lon="34.4111100">
<ele>81.239998</ele>
<time>2023-02-16T12:36:57.895Z</time>
</trkpt>
<trkpt lat="31.3433900" lon="34.4107900">
<ele>100.400002</ele>
<time>2023-02-16T12:36:57.895Z</time>
</trkpt>
<trkpt lat="31.3436700" lon="34.4106800">
<ele>101.130005</ele>
<time>2023-02-16T12:36:57.895Z</time>
</trkpt>
<trkpt lat="31.3436000" lon="34.4104800">
<ele>99.070000</ele>
<time>2023-02-16T12:36:57.895Z</time>
</trkpt>
<trkpt lat="31.3435500" lon="34.4103500">
<ele>97.980003</ele>
<time>2023-02-16T12:36:57.895Z</time>
</trkpt>
<trkpt lat="31.3435500" lon="34.4103000">
<ele>97.759995</ele>
<time>2023-02-16T12:36:57.895Z</time>
</trkpt>
<trkpt lat="31.3438800" lon="34.4102600">
<ele>99.800003</ele>
<time>2023-02-16T12:36:57.895Z</time>
</trkpt>
<trkpt lat="31.3439400" lon="34.4100800">
<ele>87.689995</ele>
<time>2023-02-16T12:36:57.895Z</time>
</trkpt>
<trkpt lat="31.3438600" lon="34.4094900">
<ele>79.790001</ele>
<time>2023-02-16T12:36:57.895Z</time>
</trkpt>
<trkpt lat="31.3439800" lon="34.4089200">
<ele>85.029999</ele>
<time>2023-02-16T12:36:57.895Z</time>
</trkpt>
<trkpt lat="31.3442700" lon="34.4086000">
<ele>86.410004</ele>
<time>2023-02-16T12:36:57.895Z</time>
</trkpt>
<trkpt lat="31.3445100" lon="34.4085600">
<ele>86.599998</ele>
<time>2023-02-16T12:36:57.895Z</time>
</trkpt>
<trkpt lat="31.3448300" lon="34.4085500">
<ele>86.149994</ele>
<time>2023-02-16T12:36:57.895Z</time>
</trkpt>
<trkpt lat="31.3450400" lon="34.4082600">
<ele>88.930008</ele>
<time>2023-02-16T12:36:57.896Z</time>
</trkpt>
<trkpt lat="31.3451200" lon="34.4080200">
<ele>94.209999</ele>
<time>2023-02-16T12:36:57.896Z</time>
</trkpt>
<trkpt lat="31.3452600" lon="34.4077600">
<ele>93.070000</ele>
<time>2023-02-16T12:36:57.896Z</time>
</trkpt>
<trkpt lat="31.3454200" lon="34.4076300">
<ele>88.660004</ele>
<time>2023-02-16T12:36:57.896Z</time>
</trkpt>
<trkpt lat="31.3456400" lon="34.4073100">
<ele>87.019997</ele>
<time>2023-02-16T12:36:57.896Z</time>
</trkpt>
<trkpt lat="31.3459500" lon="34.4068300">
<ele>89.509995</ele>
<time>2023-02-16T12:36:57.896Z</time>
</trkpt>
<trkpt lat="31.3461800" lon="34.4066400">
<ele>87.399994</ele>
<time>2023-02-16T12:36:57.896Z</time>
</trkpt>
<trkpt lat="31.3463100" lon="34.4065100">
<ele>86.169998</ele>
<time>2023-02-16T12:36:57.896Z</time>
</trkpt>
<trkpt lat="31.3463900" lon="34.4063400">
<ele>85.689995</ele>
<time>2023-02-16T12:36:57.896Z</time>
</trkpt>
<trkpt lat="31.3471600" lon="34.4066900">
<ele>76.369995</ele>
<time>2023-02-16T12:36:57.896Z</time>
</trkpt>
<trkpt lat="31.3486600" lon="34.4073700">
<ele>59.110001</ele>
<time>2023-02-16T12:36:57.896Z</time>
</trkpt>
<trkpt lat="31.3496700" lon="34.4078400">
<ele>80.650002</ele>
<time>2023-02-16T12:36:57.896Z</time>
</trkpt>
<trkpt lat="31.3496700" lon="34.4078400">
<ele>80.650002</ele>
<time>2023-02-16T12:36:57.896Z</time>
</trkpt>
<trkpt lat="31.3496700" lon="34.4078400">
<ele>80.650002</ele>
<time>2023-02-16T12:36:57.896Z</time>
</trkpt>
<trkpt lat="31.3506200" lon="34.4082800">
<ele>82.479996</ele>
<time>2023-02-16T12:36:57.896Z</time>
</trkpt>
<trkpt lat="31.3514100" lon="34.4087000">
<ele>84.110001</ele>
<time>2023-02-16T12:36:57.896Z</time>
</trkpt>
<trkpt lat="31.3517600" lon="34.4088400">
<ele>89.620003</ele>
<time>2023-02-16T12:36:57.896Z</time>
</trkpt>
<trkpt lat="31.3520400" lon="34.4090100">
<ele>87.360001</ele>
<time>2023-02-16T12:36:57.896Z</time>
</trkpt>
<trkpt lat="31.3524400" lon="34.4091900">
<ele>78.529999</ele>
<time>2023-02-16T12:36:57.896Z</time>
</trkpt>
<trkpt lat="31.3528900" lon="34.4094300">
<ele>73.110001</ele>
<time>2023-02-16T12:36:57.896Z</time>
</trkpt>
<trkpt lat="31.3531800" lon="34.4095600">
<ele>71.220001</ele>
<time>2023-02-16T12:36:57.896Z</time>
</trkpt>
<trkpt lat="31.3535600" lon="34.4097500">
<ele>74.470001</ele>
<time>2023-02-16T12:36:57.896Z</time>
</trkpt>
<trkpt lat="31.3543900" lon="34.4102600">
<ele>86.800003</ele>
<time>2023-02-16T12:36:57.896Z</time>
</trkpt>
<trkpt lat="31.3545000" lon="34.4099100">
<ele>87.489998</ele>
<time>2023-02-16T12:36:57.897Z</time>
</trkpt>
<trkpt lat="31.3549900" lon="34.4102600">
<ele>82.329994</ele>
<time>2023-02-16T12:36:57.897Z</time>
</trkpt>
<trkpt lat="31.3566800" lon="34.4063700">
<ele>90.020004</ele>
<time>2023-02-16T12:36:57.897Z</time>
</trkpt>
<trkpt lat="31.3568400" lon="34.4061400">
<ele>90.830002</ele>
<time>2023-02-16T12:36:57.897Z</time>
</trkpt>
<trkpt lat="31.3569900" lon="34.4060800">
<ele>92.229996</ele>
<time>2023-02-16T12:36:57.897Z</time>
</trkpt>
<trkpt lat="31.3570800" lon="34.4059900">
<ele>95.009995</ele>
<time>2023-02-16T12:36:57.898Z</time>
</trkpt>
<trkpt lat="31.3576000" lon="34.4058800">
<ele>96.940002</ele>
<time>2023-02-16T12:36:57.898Z</time>
</trkpt>
<trkpt lat="31.3578200" lon="34.4057400">
<ele>97.669998</ele>
<time>2023-02-16T12:36:57.898Z</time>
</trkpt>
<trkpt lat="31.3579300" lon="34.4054200">
<ele>98.000000</ele>
<time>2023-02-16T12:36:57.898Z</time>
</trkpt>
<trkpt lat="31.3580300" lon="34.4053000">
<ele>98.690002</ele>
<time>2023-02-16T12:36:57.898Z</time>
</trkpt>
<trkpt lat="31.3581800" lon="34.4053500">
<ele>97.020004</ele>
<time>2023-02-16T12:36:57.898Z</time>
</trkpt>
<trkpt lat="31.3585700" lon="34.4051400">
<ele>90.250000</ele>
<time>2023-02-16T12:36:57.898Z</time>
</trkpt>
<trkpt lat="31.3589900" lon="34.4052100">
<ele>85.059998</ele>
<time>2023-02-16T12:36:57.898Z</time>
</trkpt>
<trkpt lat="31.3594800" lon="34.4052600">
<ele>86.759995</ele>
<time>2023-02-16T12:36:57.898Z</time>
</trkpt>
<trkpt lat="31.3596500" lon="34.4053000">
<ele>85.859993</ele>
<time>2023-02-16T12:36:57.898Z</time>
</trkpt>
<trkpt lat="31.3597800" lon="34.4050900">
<ele>86.139999</ele>
<time>2023-02-16T12:36:57.898Z</time>
</trkpt>
<trkpt lat="31.3599500" lon="34.4050300">
<ele>85.959999</ele>
<time>2023-02-16T12:36:57.898Z</time>
</trkpt>
<trkpt lat="31.3602800" lon="34.4051200">
<ele>78.399994</ele>
<time>2023-02-16T12:36:57.898Z</time>
</trkpt>
<trkpt lat="31.3604300" lon="34.4051400">
<ele>76.580002</ele>
<time>2023-02-16T12:36:57.898Z</time>
</trkpt>
<trkpt lat="31.3605700" lon="34.4051000">
<ele>75.059998</ele>
<time>2023-02-16T12:36:57.898Z</time>
</trkpt>
<trkpt lat="31.3608900" lon="34.4047900">
<ele>77.879997</ele>
<time>2023-02-16T12:36:57.898Z</time>
</trkpt>
<trkpt lat="31.3610300" lon="34.4045400">
<ele>80.070000</ele>
<time>2023-02-16T12:36:57.898Z</time>
</trkpt>
<trkpt lat="31.3613200" lon="34.4043900">
<ele>85.050003</ele>
<time>2023-02-16T12:36:57.898Z</time>
</trkpt>
<trkpt lat="31.3614200" lon="34.4040400">
<ele>90.709999</ele>
<time>2023-02-16T12:36:57.899Z</time>
</trkpt>
<trkpt lat="31.3614800" lon="34.4038900">
<ele>94.970001</ele>
<time>2023-02-16T12:36:57.899Z</time>
</trkpt>
<trkpt lat="31.3615000" lon="34.4035900">
<ele>94.680000</ele>
<time>2023-02-16T12:36:57.899Z</time>
</trkpt>
<trkpt lat="31.3614600" lon="34.4034400">
<ele>87.290001</ele>
<time>2023-02-16T12:36:57.899Z</time>
</trkpt>
<trkpt lat="31.3615200" lon="34.4032400">
<ele>80.639999</ele>
<time>2023-02-16T12:36:57.899Z</time>
</trkpt>
<trkpt lat="31.3619300" lon="34.4029000">
<ele>79.510002</ele>
<time>2023-02-16T12:36:57.899Z</time>
</trkpt>
<trkpt lat="31.3620600" lon="34.4023100">
<ele>79.020004</ele>
<time>2023-02-16T12:36:57.899Z</time>
</trkpt>
<trkpt lat="31.3620900" lon="34.4018800">
<ele>78.450005</ele>
<time>2023-02-16T12:36:57.899Z</time>
</trkpt>
<trkpt lat="31.3621900" lon="34.4016900">
<ele>79.129997</ele>
<time>2023-02-16T12:36:57.899Z</time>
</trkpt>
<trkpt lat="31.3623800" lon="34.4016200">
<ele>75.760002</ele>
<time>2023-02-16T12:36:57.899Z</time>
</trkpt>
<trkpt lat="31.3625500" lon="34.4018300">
<ele>77.209999</ele>
<time>2023-02-16T12:36:57.899Z</time>
</trkpt>
<trkpt lat="31.3627000" lon="34.4020600">
<ele>81.349998</ele>
<time>2023-02-16T12:36:57.899Z</time>
</trkpt>
<trkpt lat="31.3629100" lon="34.4019200">
<ele>83.950005</ele>
<time>2023-02-16T12:36:57.899Z</time>
</trkpt>
<trkpt lat="31.3631300" lon="34.4017100">
<ele>83.930000</ele>
<time>2023-02-16T12:36:57.899Z</time>
</trkpt>
<trkpt lat="31.3631300" lon="34.4012800">
<ele>80.760002</ele>
<time>2023-02-16T12:36:57.899Z</time>
</trkpt>
<trkpt lat="31.3629600" lon="34.4007600">
<ele>80.969994</ele>
<time>2023-02-16T12:36:57.899Z</time>
</trkpt>
<trkpt lat="31.3630000" lon="34.4001500">
<ele>80.209999</ele>
<time>2023-02-16T12:36:57.899Z</time>
</trkpt>
<trkpt lat="31.3630000" lon="34.4001500">
<ele>80.209999</ele>
<time>2023-02-16T12:36:57.899Z</time>
</trkpt>
<trkpt lat="31.3630000" lon="34.4001500">
<ele>80.209999</ele>
<time>2023-02-16T12:36:57.899Z</time>
</trkpt>
<trkpt lat="31.3630100" lon="34.4000200">
<ele>77.529999</ele>
<time>2023-02-16T12:36:57.899Z</time>
</trkpt>
<trkpt lat="31.3631600" lon="34.3997300">
<ele>77.830002</ele>
<time>2023-02-16T12:36:57.899Z</time>
</trkpt>
<trkpt lat="31.3633900" lon="34.3995000">
<ele>83.279999</ele>
<time>2023-02-16T12:36:57.899Z</time>
</trkpt>
<trkpt lat="31.3638000" lon="34.3995700">
<ele>83.910004</ele>
<time>2023-02-16T12:36:57.899Z</time>
</trkpt>
<trkpt lat="31.3638400" lon="34.3998000">
<ele>83.269997</ele>
<time>2023-02-16T12:36:57.899Z</time>
</trkpt>
<trkpt lat="31.3639100" lon="34.4001000">
<ele>82.489998</ele>
<time>2023-02-16T12:36:57.899Z</time>
</trkpt>
<trkpt lat="31.3640800" lon="34.4001900">
<ele>83.950005</ele>
<time>2023-02-16T12:36:57.899Z</time>
</trkpt>
<trkpt lat="31.3643600" lon="34.4000400">
<ele>88.080002</ele>
<time>2023-02-16T12:36:57.899Z</time>
</trkpt>
<trkpt lat="31.3646100" lon="34.3997900">
<ele>92.900002</ele>
<time>2023-02-16T12:36:57.899Z</time>
</trkpt>
<trkpt lat="31.3648900" lon="34.3996400">
<ele>93.580002</ele>
<time>2023-02-16T12:36:57.899Z</time>
</trkpt>
<trkpt lat="31.3651000" lon="34.3998900">
<ele>88.289993</ele>
<time>2023-02-16T12:36:57.899Z</time>
</trkpt>
<trkpt lat="31.3653600" lon="34.4003600">
<ele>85.349998</ele>
<time>2023-02-16T12:36:57.899Z</time>
</trkpt>
<trkpt lat="31.3655000" lon="34.4006900">
<ele>88.879997</ele>
<time>2023-02-16T12:36:57.899Z</time>
</trkpt>
<trkpt lat="31.3655800" lon="34.4007600">
<ele>89.760002</ele>
<time>2023-02-16T12:36:57.899Z</time>
</trkpt>
<trkpt lat="31.3660900" lon="34.4005700">
<ele>88.879997</ele>
<time>2023-02-16T12:36:57.899Z</time>
</trkpt>
<trkpt lat="31.3662900" lon="34.4004700">
<ele>87.710007</ele>
<time>2023-02-16T12:36:57.899Z</time>
</trkpt>
<trkpt lat="31.3664300" lon="34.4001600">
<ele>86.849998</ele>
<time>2023-02-16T12:36:57.899Z</time>
</trkpt>
<trkpt lat="31.3665000" lon="34.3996900">
<ele>88.320007</ele>
<time>2023-02-16T12:36:57.899Z</time>
</trkpt>
<trkpt lat="31.3666600" lon="34.3980400">
<ele>84.970001</ele>
<time>2023-02-16T12:36:57.899Z</time>
</trkpt>
<trkpt lat="31.3667800" lon="34.3970000">
<ele>84.649994</ele>
<time>2023-02-16T12:36:57.899Z</time>
</trkpt>
<trkpt lat="31.3668400" lon="34.3962900">
<ele>86.739998</ele>
<time>2023-02-16T12:36:57.899Z</time>
</trkpt>
<trkpt lat="31.3670800" lon="34.3957800">
<ele>89.590004</ele>
<time>2023-02-16T12:36:57.899Z</time>
</trkpt>
<trkpt lat="31.3673500" lon="34.3957800">
<ele>90.000008</ele>
<time>2023-02-16T12:36:57.899Z</time>
</trkpt>
<trkpt lat="31.3675800" lon="34.3957900">
<ele>89.669998</ele>
<time>2023-02-16T12:36:57.899Z</time>
</trkpt>
<trkpt lat="31.3676000" lon="34.3958700">
<ele>89.509995</ele>
<time>2023-02-16T12:36:57.899Z</time>
</trkpt>
<trkpt lat="31.3674500" lon="34.3962500">
<ele>87.770004</ele>
<time>2023-02-16T12:36:57.899Z</time>
</trkpt>
<trkpt lat="31.3671100" lon="34.3989500">
<ele>84.809998</ele>
<time>2023-02-16T12:36:57.899Z</time>
</trkpt>
<trkpt lat="31.3671700" lon="34.3992100">
<ele>83.190002</ele>
<time>2023-02-16T12:36:57.899Z</time>
</trkpt>
<trkpt lat="31.3669900" lon="34.4006200">
<ele>82.180000</ele>
<time>2023-02-16T12:36:57.899Z</time>
</trkpt>
<trkpt lat="31.3671400" lon="34.4009700">
<ele>80.519997</ele>
<time>2023-02-16T12:36:57.899Z</time>
</trkpt>
<trkpt lat="31.3670900" lon="34.4012600">
<ele>78.629997</ele>
<time>2023-02-16T12:36:57.899Z</time>
</trkpt>
<trkpt lat="31.3672400" lon="34.4013100">
<ele>76.720001</ele>
<time>2023-02-16T12:36:57.899Z</time>
</trkpt>
<trkpt lat="31.3676000" lon="34.4013000">
<ele>73.760002</ele>
<time>2023-02-16T12:36:57.901Z</time>
</trkpt>
<trkpt lat="31.3679000" lon="34.4013200">
<ele>70.290001</ele>
<time>2023-02-16T12:36:57.901Z</time>
</trkpt>
<trkpt lat="31.3681300" lon="34.4015100">
<ele>70.559998</ele>
<time>2023-02-16T12:36:57.901Z</time>
</trkpt>
<trkpt lat="31.3684500" lon="34.4015400">
<ele>76.449997</ele>
<time>2023-02-16T12:36:57.901Z</time>
</trkpt>
<trkpt lat="31.3685700" lon="34.4016900">
<ele>77.410004</ele>
<time>2023-02-16T12:36:57.901Z</time>
</trkpt>
<trkpt lat="31.3687900" lon="34.4016400">
<ele>78.600006</ele>
<time>2023-02-16T12:36:57.901Z</time>
</trkpt>
<trkpt lat="31.3691000" lon="34.4018100">
<ele>76.050003</ele>
<time>2023-02-16T12:36:57.901Z</time>
</trkpt>
<trkpt lat="31.3691200" lon="34.4019100">
<ele>74.730003</ele>
<time>2023-02-16T12:36:57.902Z</time>
</trkpt>
<trkpt lat="31.3693600" lon="34.4021700">
<ele>71.879997</ele>
<time>2023-02-16T12:36:57.902Z</time>
</trkpt>
<trkpt lat="31.3696100" lon="34.4022100">
<ele>74.939995</ele>
<time>2023-02-16T12:36:57.902Z</time>
</trkpt>
<trkpt lat="31.3696100" lon="34.4022100">
<ele>74.939995</ele>
<time>2023-02-16T12:36:57.902Z</time>
</trkpt>
<trkpt lat="31.3696100" lon="34.4022100">
<ele>74.939995</ele>
<time>2023-02-16T12:36:57.902Z</time>
</trkpt>
<trkpt lat="31.3697500" lon="34.4022300">
<ele>77.070000</ele>
<time>2023-02-16T12:36:57.902Z</time>
</trkpt>
<trkpt lat="31.3696600" lon="34.4027100">
<ele>74.040001</ele>
<time>2023-02-16T12:36:57.902Z</time>
</trkpt>
<trkpt lat="31.3704300" lon="34.4033600">
<ele>77.239998</ele>
<time>2023-02-16T12:36:57.902Z</time>
</trkpt>
<trkpt lat="31.3708800" lon="34.4033100">
<ele>85.620003</ele>
<time>2023-02-16T12:36:57.902Z</time>
</trkpt>
<trkpt lat="31.3714100" lon="34.4034800">
<ele>81.209999</ele>
<time>2023-02-16T12:36:57.902Z</time>
</trkpt>
<trkpt lat="31.3719800" lon="34.4039000">
<ele>75.519997</ele>
<time>2023-02-16T12:36:57.902Z</time>
</trkpt>
<trkpt lat="31.3721400" lon="34.4038500">
<ele>72.810005</ele>
<time>2023-02-16T12:36:57.902Z</time>
</trkpt>
<trkpt lat="31.3723000" lon="34.4035000">
<ele>69.470001</ele>
<time>2023-02-16T12:36:57.902Z</time>
</trkpt>
<trkpt lat="31.3726600" lon="34.4034200">
<ele>69.510002</ele>
<time>2023-02-16T12:36:57.902Z</time>
</trkpt>
<trkpt lat="31.3728200" lon="34.4034400">
<ele>70.269997</ele>
<time>2023-02-16T12:36:57.902Z</time>
</trkpt>
<trkpt lat="31.3730800" lon="34.4033300">
<ele>73.370003</ele>
<time>2023-02-16T12:36:57.902Z</time>
</trkpt>
<trkpt lat="31.3732900" lon="34.4034000">
<ele>76.340004</ele>
<time>2023-02-16T12:36:57.903Z</time>
</trkpt>
<trkpt lat="31.3736200" lon="34.4031900">
<ele>78.900002</ele>
<time>2023-02-16T12:36:57.903Z</time>
</trkpt>
<trkpt lat="31.3736800" lon="34.4029600">
<ele>79.269997</ele>
<time>2023-02-16T12:36:57.903Z</time>
</trkpt>
<trkpt lat="31.3738900" lon="34.4024900">
<ele>81.050003</ele>
<time>2023-02-16T12:36:57.903Z</time>
</trkpt>
<trkpt lat="31.3739800" lon="34.4023900">
<ele>80.339996</ele>
<time>2023-02-16T12:36:57.903Z</time>
</trkpt>
<trkpt lat="31.3741600" lon="34.4024200">
<ele>76.839996</ele>
<time>2023-02-16T12:36:57.903Z</time>
</trkpt>
<trkpt lat="31.3742000" lon="34.4025000">
<ele>75.360001</ele>
<time>2023-02-16T12:36:57.903Z</time>
</trkpt>
<trkpt lat="31.3743400" lon="34.4026000">
<ele>75.839996</ele>
<time>2023-02-16T12:36:57.903Z</time>
</trkpt>
<trkpt lat="31.3744200" lon="34.4025700">
<ele>76.790001</ele>
<time>2023-02-16T12:36:57.903Z</time>
</trkpt>
<trkpt lat="31.3747400" lon="34.4024500">
<ele>80.130005</ele>
<time>2023-02-16T12:36:57.903Z</time>
</trkpt>
<trkpt lat="31.3750100" lon="34.4024300">
<ele>79.500000</ele>
<time>2023-02-16T12:36:57.903Z</time>
</trkpt>
<trkpt lat="31.3751600" lon="34.4023800">
<ele>79.860001</ele>
<time>2023-02-16T12:36:57.903Z</time>
</trkpt>
<trkpt lat="31.3752800" lon="34.4024000">
<ele>79.720001</ele>
<time>2023-02-16T12:36:57.903Z</time>
</trkpt>
<trkpt lat="31.3753900" lon="34.4025300">
<ele>78.270004</ele>
<time>2023-02-16T12:36:57.903Z</time>
</trkpt>
<trkpt lat="31.3757400" lon="34.4027000">
<ele>71.129997</ele>
<time>2023-02-16T12:36:57.903Z</time>
</trkpt>
<trkpt lat="31.3759000" lon="34.4027900">
<ele>69.129997</ele>
<time>2023-02-16T12:36:57.903Z</time>
</trkpt>
<trkpt lat="31.3761000" lon="34.4030500">
<ele>66.120003</ele>
<time>2023-02-16T12:36:57.904Z</time>
</trkpt>
<trkpt lat="31.3763900" lon="34.4029400">
<ele>71.260002</ele>
<time>2023-02-16T12:36:57.904Z</time>
</trkpt>
<trkpt lat="31.3766700" lon="34.4029100">
<ele>74.110001</ele>
<time>2023-02-16T12:36:57.904Z</time>
</trkpt>
<trkpt lat="31.3769000" lon="34.4027600">
<ele>76.159996</ele>
<time>2023-02-16T12:36:57.904Z</time>
</trkpt>
<trkpt lat="31.3770000" lon="34.4027800">
<ele>76.340004</ele>
<time>2023-02-16T12:36:57.904Z</time>
</trkpt>
<trkpt lat="31.3772100" lon="34.4028800">
<ele>76.709999</ele>
<time>2023-02-16T12:36:57.904Z</time>
</trkpt>
<trkpt lat="31.3772900" lon="34.4028700">
<ele>77.000000</ele>
<time>2023-02-16T12:36:57.904Z</time>
</trkpt>
<trkpt lat="31.3776600" lon="34.4025700">
<ele>76.870003</ele>
<time>2023-02-16T12:36:57.904Z</time>
</trkpt>
<trkpt lat="31.3778500" lon="34.4026900">
<ele>73.849998</ele>
<time>2023-02-16T12:36:57.904Z</time>
</trkpt>
<trkpt lat="31.3777500" lon="34.4034100">
<ele>71.900002</ele>
<time>2023-02-16T12:36:57.904Z</time>
</trkpt>
<trkpt lat="31.3778000" lon="34.4038200">
<ele>70.029999</ele>
<time>2023-02-16T12:36:57.904Z</time>
</trkpt>
<trkpt lat="31.3780100" lon="34.4042600">
<ele>67.159996</ele>
<time>2023-02-16T12:36:57.904Z</time>
</trkpt>
<trkpt lat="31.3781300" lon="34.4049100">
<ele>62.969997</ele>
<time>2023-02-16T12:36:57.904Z</time>
</trkpt>
<trkpt lat="31.3781900" lon="34.4052200">
<ele>66.500000</ele>
<time>2023-02-16T12:36:57.904Z</time>
</trkpt>
<trkpt lat="31.3781200" lon="34.4054900">
<ele>70.010002</ele>
<time>2023-02-16T12:36:57.904Z</time>
</trkpt>
<trkpt lat="31.3782100" lon="34.4057600">
<ele>69.150002</ele>
<time>2023-02-16T12:36:57.905Z</time>
</trkpt>
<trkpt lat="31.3780700" lon="34.4066800">
<ele>60.020000</ele>
<time>2023-02-16T12:36:57.905Z</time>
</trkpt>
<trkpt lat="31.3779300" lon="34.4069800">
<ele>56.470001</ele>
<time>2023-02-16T12:36:57.905Z</time>
</trkpt>
<trkpt lat="31.3779800" lon="34.4074800">
<ele>55.690002</ele>
<time>2023-02-16T12:36:57.905Z</time>
</trkpt>
<trkpt lat="31.3778300" lon="34.4080500">
<ele>55.000000</ele>
<time>2023-02-16T12:36:57.905Z</time>
</trkpt>
<trkpt lat="31.3779300" lon="34.4084200">
<ele>56.160000</ele>
<time>2023-02-16T12:36:57.905Z</time>
</trkpt>
<trkpt lat="31.3778700" lon="34.4086800">
<ele>54.000000</ele>
<time>2023-02-16T12:36:57.905Z</time>
</trkpt>
<trkpt lat="31.3781900" lon="34.4089600">
<ele>53.570000</ele>
<time>2023-02-16T12:36:57.905Z</time>
</trkpt>
<trkpt lat="31.3780000" lon="34.4093700">
<ele>51.350002</ele>
<time>2023-02-16T12:36:57.905Z</time>
</trkpt>
<trkpt lat="31.3778500" lon="34.4096700">
<ele>52.480000</ele>
<time>2023-02-16T12:36:57.905Z</time>
</trkpt>
<trkpt lat="31.3778500" lon="34.4098000">
<ele>52.759998</ele>
<time>2023-02-16T12:36:57.905Z</time>
</trkpt>
<trkpt lat="31.3779100" lon="34.4100200">
<ele>53.260002</ele>
<time>2023-02-16T12:36:57.905Z</time>
</trkpt>
<trkpt lat="31.3778900" lon="34.4101400">
<ele>54.700001</ele>
<time>2023-02-16T12:36:57.905Z</time>
</trkpt>
<trkpt lat="31.3778900" lon="34.4101400">
<ele>54.700001</ele>
<time>2023-02-16T12:36:57.905Z</time>
</trkpt>
<trkpt lat="31.3778900" lon="34.4101400">
<ele>54.700001</ele>
<time>2023-02-16T12:36:57.905Z</time>
</trkpt>
<trkpt lat="31.3778600" lon="34.4104100">
<ele>56.350002</ele>
<time>2023-02-16T12:36:57.905Z</time>
</trkpt>
<trkpt lat="31.3781600" lon="34.4107700">
<ele>55.920002</ele>
<time>2023-02-16T12:36:57.905Z</time>
</trkpt>
<trkpt lat="31.3785700" lon="34.4117600">
<ele>53.990002</ele>
<time>2023-02-16T12:36:57.905Z</time>
</trkpt>
<trkpt lat="31.3789000" lon="34.4122500">
<ele>47.959999</ele>
<time>2023-02-16T12:36:57.905Z</time>
</trkpt>
<trkpt lat="31.3794400" lon="34.4136700">
<ele>43.190002</ele>
<time>2023-02-16T12:36:57.905Z</time>
</trkpt>
<trkpt lat="31.3795100" lon="34.4143200">
<ele>41.270000</ele>
<time>2023-02-16T12:36:57.905Z</time>
</trkpt>
<trkpt lat="31.3797800" lon="34.4144700">
<ele>39.360001</ele>
<time>2023-02-16T12:36:57.905Z</time>
</trkpt>
<trkpt lat="31.3799000" lon="34.4147300">
<ele>38.430000</ele>
<time>2023-02-16T12:36:57.905Z</time>
</trkpt>
<trkpt lat="31.3804200" lon="34.4152100">
<ele>41.759998</ele>
<time>2023-02-16T12:36:57.905Z</time>
</trkpt>
<trkpt lat="31.3808000" lon="34.4152800">
<ele>45.369999</ele>
<time>2023-02-16T12:36:57.905Z</time>
</trkpt>
<trkpt lat="31.3810600" lon="34.4152000">
<ele>47.090000</ele>
<time>2023-02-16T12:36:57.905Z</time>
</trkpt>
<trkpt lat="31.3812000" lon="34.4152700">
<ele>46.180000</ele>
<time>2023-02-16T12:36:57.905Z</time>
</trkpt>
<trkpt lat="31.3813000" lon="34.4155100">
<ele>44.799999</ele>
<time>2023-02-16T12:36:57.905Z</time>
</trkpt>
<trkpt lat="31.3814200" lon="34.4157400">
<ele>44.149998</ele>
<time>2023-02-16T12:36:57.905Z</time>
</trkpt>
<trkpt lat="31.3815700" lon="34.4158800">
<ele>42.590000</ele>
<time>2023-02-16T12:36:57.905Z</time>
</trkpt>
<trkpt lat="31.3816400" lon="34.4160400">
<ele>40.990002</ele>
<time>2023-02-16T12:36:57.905Z</time>
</trkpt>
<trkpt lat="31.3817600" lon="34.4160400">
<ele>40.680000</ele>
<time>2023-02-16T12:36:57.905Z</time>
</trkpt>
<trkpt lat="31.3819500" lon="34.4159100">
<ele>41.029999</ele>
<time>2023-02-16T12:36:57.905Z</time>
</trkpt>
<trkpt lat="31.3821300" lon="34.4158300">
<ele>42.350002</ele>
<time>2023-02-16T12:36:57.905Z</time>
</trkpt>
<trkpt lat="31.3823900" lon="34.4158900">
<ele>40.299999</ele>
<time>2023-02-16T12:36:57.905Z</time>
</trkpt>
<trkpt lat="31.3828400" lon="34.4161200">
<ele>36.930000</ele>
<time>2023-02-16T12:36:57.905Z</time>
</trkpt>
<trkpt lat="31.3831600" lon="34.4162600">
<ele>40.250000</ele>
<time>2023-02-16T12:36:57.905Z</time>
</trkpt>
<trkpt lat="31.3834100" lon="34.4163300">
<ele>40.900002</ele>
<time>2023-02-16T12:36:57.905Z</time>
</trkpt>
<trkpt lat="31.3836800" lon="34.4165600">
<ele>47.419998</ele>
<time>2023-02-16T12:36:57.905Z</time>
</trkpt>
<trkpt lat="31.3837600" lon="34.4168600">
<ele>42.360001</ele>
<time>2023-02-16T12:36:57.905Z</time>
</trkpt>
<trkpt lat="31.3837500" lon="34.4171900">
<ele>40.879997</ele>
<time>2023-02-16T12:36:57.905Z</time>
</trkpt>
<trkpt lat="31.3836900" lon="34.4174800">
<ele>40.770000</ele>
<time>2023-02-16T12:36:57.905Z</time>
</trkpt>
<trkpt lat="31.3836400" lon="34.4177400">
<ele>40.990002</ele>
<time>2023-02-16T12:36:57.905Z</time>
</trkpt>
<trkpt lat="31.3836100" lon="34.4179700">
<ele>43.060001</ele>
<time>2023-02-16T12:36:57.905Z</time>
</trkpt>
<trkpt lat="31.3834200" lon="34.4182200">
<ele>38.500000</ele>
<time>2023-02-16T12:36:57.905Z</time>
</trkpt>
<trkpt lat="31.3833100" lon="34.4183400">
<ele>36.209999</ele>
<time>2023-02-16T12:36:57.905Z</time>
</trkpt>
<trkpt lat="31.3834200" lon="34.4187000">
<ele>34.820000</ele>
<time>2023-02-16T12:36:57.905Z</time>
</trkpt>
<trkpt lat="31.3835500" lon="34.4189300">
<ele>34.660000</ele>
<time>2023-02-16T12:36:57.905Z</time>
</trkpt>
<trkpt lat="31.3835900" lon="34.4190900">
<ele>33.020000</ele>
<time>2023-02-16T12:36:57.905Z</time>
</trkpt>
<trkpt lat="31.3838600" lon="34.4200800">
<ele>36.959999</ele>
<time>2023-02-16T12:36:57.905Z</time>
</trkpt>
<trkpt lat="31.3838900" lon="34.4207700">
<ele>34.580002</ele>
<time>2023-02-16T12:36:57.905Z</time>
</trkpt>
<trkpt lat="31.3838900" lon="34.4210000">
<ele>37.430000</ele>
<time>2023-02-16T12:36:57.905Z</time>
</trkpt>
<trkpt lat="31.3837100" lon="34.4212200">
<ele>36.310001</ele>
<time>2023-02-16T12:36:57.905Z</time>
</trkpt>
<trkpt lat="31.3837300" lon="34.4214700">
<ele>37.440002</ele>
<time>2023-02-16T12:36:57.905Z</time>
</trkpt>
<trkpt lat="31.3837300" lon="34.4216100">
<ele>37.230000</ele>
<time>2023-02-16T12:36:57.905Z</time>
</trkpt>
<trkpt lat="31.3836400" lon="34.4219000">
<ele>35.169998</ele>
<time>2023-02-16T12:36:57.905Z</time>
</trkpt>
<trkpt lat="31.3836300" lon="34.4222000">
<ele>32.730000</ele>
<time>2023-02-16T12:36:57.905Z</time>
</trkpt>
<trkpt lat="31.3838400" lon="34.4224500">
<ele>28.439999</ele>
<time>2023-02-16T12:36:57.905Z</time>
</trkpt>
<trkpt lat="31.3839900" lon="34.4225700">
<ele>25.820002</ele>
<time>2023-02-16T12:36:57.905Z</time>
</trkpt>
<trkpt lat="31.3840800" lon="34.4226800">
<ele>23.870001</ele>
<time>2023-02-16T12:36:57.905Z</time>
</trkpt>
<trkpt lat="31.3840800" lon="34.4226800">
<ele>23.870001</ele>
<time>2023-02-16T12:36:57.905Z</time>
</trkpt>
<trkpt lat="31.3840800" lon="34.4226800">
<ele>23.870001</ele>
<time>2023-02-16T12:36:57.905Z</time>
</trkpt>
<trkpt lat="31.3841200" lon="34.4227200">
<ele>23.010000</ele>
<time>2023-02-16T12:36:57.905Z</time>
</trkpt>
<trkpt lat="31.3842800" lon="34.4229400">
<ele>27.380001</ele>
<time>2023-02-16T12:36:57.905Z</time>
</trkpt>
<trkpt lat="31.3844900" lon="34.4230900">
<ele>28.850000</ele>
<time>2023-02-16T12:36:57.905Z</time>
</trkpt>
<trkpt lat="31.3845600" lon="34.4232500">
<ele>31.559999</ele>
<time>2023-02-16T12:36:57.905Z</time>
</trkpt>
<trkpt lat="31.3847300" lon="34.4235000">
<ele>32.020000</ele>
<time>2023-02-16T12:36:57.905Z</time>
</trkpt>
<trkpt lat="31.3848700" lon="34.4235900">
<ele>34.110001</ele>
<time>2023-02-16T12:36:57.905Z</time>
</trkpt>
<trkpt lat="31.3849800" lon="34.4237100">
<ele>38.689999</ele>
<time>2023-02-16T12:36:57.905Z</time>
</trkpt>
<trkpt lat="31.3850300" lon="34.4239000">
<ele>46.430000</ele>
<time>2023-02-16T12:36:57.905Z</time>
</trkpt>
<trkpt lat="31.3851200" lon="34.4240100">
<ele>47.090000</ele>
<time>2023-02-16T12:36:57.905Z</time>
</trkpt>
<trkpt lat="31.3853100" lon="34.4243100">
<ele>37.520000</ele>
<time>2023-02-16T12:36:57.905Z</time>
</trkpt>
<trkpt lat="31.3854800" lon="34.4250900">
<ele>33.970001</ele>
<time>2023-02-16T12:36:57.905Z</time>
</trkpt>
<trkpt lat="31.3854100" lon="34.4254000">
<ele>34.220001</ele>
<time>2023-02-16T12:36:57.905Z</time>
</trkpt>
<trkpt lat="31.3852800" lon="34.4257400">
<ele>29.689999</ele>
<time>2023-02-16T12:36:57.905Z</time>
</trkpt>
<trkpt lat="31.3851700" lon="34.4259600">
<ele>31.040001</ele>
<time>2023-02-16T12:36:57.905Z</time>
</trkpt>
<trkpt lat="31.3852200" lon="34.4261400">
<ele>32.040001</ele>
<time>2023-02-16T12:36:57.905Z</time>
</trkpt>
<trkpt lat="31.3854400" lon="34.4262800">
<ele>30.109999</ele>
<time>2023-02-16T12:36:57.905Z</time>
</trkpt>
<trkpt lat="31.3855300" lon="34.4264400">
<ele>29.719999</ele>
<time>2023-02-16T12:36:57.905Z</time>
</trkpt>
<trkpt lat="31.3855000" lon="34.4268200">
<ele>32.810001</ele>
<time>2023-02-16T12:36:57.905Z</time>
</trkpt>
<trkpt lat="31.3857600" lon="34.4270500">
<ele>26.419998</ele>
<time>2023-02-16T12:36:57.905Z</time>
</trkpt>
<trkpt lat="31.3860400" lon="34.4273000">
<ele>29.100000</ele>
<time>2023-02-16T12:36:57.905Z</time>
</trkpt>
<trkpt lat="31.3866700" lon="34.4274300">
<ele>30.520000</ele>
<time>2023-02-16T12:36:57.905Z</time>
</trkpt>
<trkpt lat="31.3867400" lon="34.4275200">
<ele>30.280001</ele>
<time>2023-02-16T12:36:57.905Z</time>
</trkpt>
<trkpt lat="31.3867500" lon="34.4275700">
<ele>30.330000</ele>
<time>2023-02-16T12:36:57.905Z</time>
</trkpt>
<trkpt lat="31.3874200" lon="34.4299000">
<ele>20.830000</ele>
<time>2023-02-16T12:36:57.905Z</time>
</trkpt>
<trkpt lat="31.3873700" lon="34.4300400">
<ele>20.350000</ele>
<time>2023-02-16T12:36:57.905Z</time>
</trkpt>
<trkpt lat="31.3872800" lon="34.4301500">
<ele>20.500000</ele>
<time>2023-02-16T12:36:57.905Z</time>
</trkpt>
<trkpt lat="31.3871800" lon="34.4301900">
<ele>20.720001</ele>
<time>2023-02-16T12:36:57.905Z</time>
</trkpt>
<trkpt lat="31.3870700" lon="34.4304100">
<ele>23.829998</ele>
<time>2023-02-16T12:36:57.905Z</time>
</trkpt>
<trkpt lat="31.3869100" lon="34.4305500">
<ele>29.520000</ele>
<time>2023-02-16T12:36:57.905Z</time>
</trkpt>
<trkpt lat="31.3868400" lon="34.4306200">
<ele>33.780003</ele>
<time>2023-02-16T12:36:57.905Z</time>
</trkpt>
<trkpt lat="31.3868700" lon="34.4307300">
<ele>34.660000</ele>
<time>2023-02-16T12:36:57.905Z</time>
</trkpt>
<trkpt lat="31.3867900" lon="34.4308400">
<ele>37.060001</ele>
<time>2023-02-16T12:36:57.905Z</time>
</trkpt>
<trkpt lat="31.3860600" lon="34.4313900">
<ele>33.730000</ele>
<time>2023-02-16T12:36:57.905Z</time>
</trkpt>
<trkpt lat="31.3855700" lon="34.4320800">
<ele>31.480000</ele>
<time>2023-02-16T12:36:57.905Z</time>
</trkpt>
<trkpt lat="31.3853300" lon="34.4322600">
<ele>31.850000</ele>
<time>2023-02-16T12:36:57.905Z</time>
</trkpt>
<trkpt lat="31.3853700" lon="34.4326600">
<ele>27.650002</ele>
<time>2023-02-16T12:36:57.905Z</time>
</trkpt>
<trkpt lat="31.3853700" lon="34.4326600">
<ele>27.650002</ele>
<time>2023-02-16T12:36:57.905Z</time>
</trkpt>
<trkpt lat="31.3853700" lon="34.4326600">
<ele>27.650002</ele>
<time>2023-02-16T12:36:57.905Z</time>
</trkpt>
<trkpt lat="31.3853700" lon="34.4326600">
<ele>27.650002</ele>
<time>2023-02-16T12:36:57.905Z</time>
</trkpt>
<trkpt lat="31.3855300" lon="34.4330300">
<ele>25.180000</ele>
<time>2023-02-16T12:36:57.905Z</time>
</trkpt>
<trkpt lat="31.3857300" lon="34.4332000">
<ele>24.589998</ele>
<time>2023-02-16T12:36:57.905Z</time>
</trkpt>
<trkpt lat="31.3858400" lon="34.4332800">
<ele>24.690001</ele>
<time>2023-02-16T12:36:57.905Z</time>
</trkpt>
<trkpt lat="31.3860800" lon="34.4333100">
<ele>27.500000</ele>
<time>2023-02-16T12:36:57.905Z</time>
</trkpt>
<trkpt lat="31.3860900" lon="34.4334600">
<ele>28.750000</ele>
<time>2023-02-16T12:36:57.905Z</time>
</trkpt>
<trkpt lat="31.3865100" lon="34.4331600">
<ele>28.400000</ele>
<time>2023-02-16T12:36:57.905Z</time>
</trkpt>
<trkpt lat="31.3867500" lon="34.4329900">
<ele>30.630001</ele>
<time>2023-02-16T12:36:57.905Z</time>
</trkpt>
<trkpt lat="31.3871300" lon="34.4331100">
<ele>33.070000</ele>
<time>2023-02-16T12:36:57.905Z</time>
</trkpt>
<trkpt lat="31.3874300" lon="34.4328500">
<ele>35.299999</ele>
<time>2023-02-16T12:36:57.905Z</time>
</trkpt>
<trkpt lat="31.3875700" lon="34.4329700">
<ele>33.970001</ele>
<time>2023-02-16T12:36:57.905Z</time>
</trkpt>
<trkpt lat="31.3875600" lon="34.4332600">
<ele>31.709999</ele>
<time>2023-02-16T12:36:57.905Z</time>
</trkpt>
<trkpt lat="31.3877900" lon="34.4335200">
<ele>33.740002</ele>
<time>2023-02-16T12:36:57.905Z</time>
</trkpt>
<trkpt lat="31.3878000" lon="34.4338900">
<ele>34.820000</ele>
<time>2023-02-16T12:36:57.905Z</time>
</trkpt>
<trkpt lat="31.3882000" lon="34.4343400">
<ele>27.660000</ele>
<time>2023-02-16T12:36:57.905Z</time>
</trkpt>
<trkpt lat="31.3887400" lon="34.4345000">
<ele>29.990000</ele>
<time>2023-02-16T12:36:57.905Z</time>
</trkpt>
<trkpt lat="31.3889300" lon="34.4345100">
<ele>29.790001</ele>
<time>2023-02-16T12:36:57.905Z</time>
</trkpt>
<trkpt lat="31.3892900" lon="34.4341000">
<ele>33.469997</ele>
<time>2023-02-16T12:36:57.905Z</time>
</trkpt>
<trkpt lat="31.3895100" lon="34.4339900">
<ele>34.430000</ele>
<time>2023-02-16T12:36:57.905Z</time>
</trkpt>
<trkpt lat="31.3898800" lon="34.4341200">
<ele>30.770000</ele>
<time>2023-02-16T12:36:57.905Z</time>
</trkpt>
<trkpt lat="31.3901100" lon="34.4340500">
<ele>33.060001</ele>
<time>2023-02-16T12:36:57.905Z</time>
</trkpt>
<trkpt lat="31.3907400" lon="34.4339100">
<ele>44.590000</ele>
<time>2023-02-16T12:36:57.905Z</time>
</trkpt>
<trkpt lat="31.3911000" lon="34.4335500">
<ele>30.559999</ele>
<time>2023-02-16T12:36:57.905Z</time>
</trkpt>
<trkpt lat="31.3915300" lon="34.4333400">
<ele>30.719999</ele>
<time>2023-02-16T12:36:57.905Z</time>
</trkpt>
<trkpt lat="31.3919500" lon="34.4330200">
<ele>35.090000</ele>
<time>2023-02-16T12:36:57.905Z</time>
</trkpt>
<trkpt lat="31.3923500" lon="34.4329300">
<ele>39.559998</ele>
<time>2023-02-16T12:36:57.905Z</time>
</trkpt>
<trkpt lat="31.3925300" lon="34.4331300">
<ele>37.900002</ele>
<time>2023-02-16T12:36:57.905Z</time>
</trkpt>
<trkpt lat="31.3929600" lon="34.4332400">
<ele>37.730000</ele>
<time>2023-02-16T12:36:57.905Z</time>
</trkpt>
<trkpt lat="31.3933600" lon="34.4329600">
<ele>37.469997</ele>
<time>2023-02-16T12:36:57.905Z</time>
</trkpt>
<trkpt lat="31.3938100" lon="34.4329400">
<ele>30.050001</ele>
<time>2023-02-16T12:36:57.905Z</time>
</trkpt>
<trkpt lat="31.3942900" lon="34.4330500">
<ele>25.580000</ele>
<time>2023-02-16T12:36:57.905Z</time>
</trkpt>
<trkpt lat="31.3947400" lon="34.4325900">
<ele>25.639999</ele>
<time>2023-02-16T12:36:57.905Z</time>
</trkpt>
<trkpt lat="31.3950200" lon="34.4325100">
<ele>25.849998</ele>
<time>2023-02-16T12:36:57.905Z</time>
</trkpt>
<trkpt lat="31.3954300" lon="34.4326400">
<ele>24.080000</ele>
<time>2023-02-16T12:36:57.905Z</time>
</trkpt>
<trkpt lat="31.3957500" lon="34.4325800">
<ele>25.230000</ele>
<time>2023-02-16T12:36:57.905Z</time>
</trkpt>
<trkpt lat="31.3966500" lon="34.4327600">
<ele>25.999998</ele>
<time>2023-02-16T12:36:57.905Z</time>
</trkpt>
<trkpt lat="31.3971500" lon="34.4336200">
<ele>20.740000</ele>
<time>2023-02-16T12:36:57.905Z</time>
</trkpt>
<trkpt lat="31.3971900" lon="34.4337800">
<ele>17.280001</ele>
<time>2023-02-16T12:36:57.905Z</time>
</trkpt>
<trkpt lat="31.3978800" lon="34.4343300">
<ele>16.780001</ele>
<time>2023-02-16T12:36:57.905Z</time>
</trkpt>
<trkpt lat="31.3981600" lon="34.4348500">
<ele>16.969999</ele>
<time>2023-02-16T12:36:57.905Z</time>
</trkpt>
<trkpt lat="31.3981100" lon="34.4350100">
<ele>15.410000</ele>
<time>2023-02-16T12:36:57.905Z</time>
</trkpt>
<trkpt lat="31.3982600" lon="34.4352500">
<ele>18.459999</ele>
<time>2023-02-16T12:36:57.905Z</time>
</trkpt>
<trkpt lat="31.3988100" lon="34.4349100">
<ele>24.459999</ele>
<time>2023-02-16T12:36:57.905Z</time>
</trkpt>
<trkpt lat="31.3993300" lon="34.4347700">
<ele>22.730001</ele>
<time>2023-02-16T12:36:57.905Z</time>
</trkpt>
<trkpt lat="31.3992900" lon="34.4351200">
<ele>20.019999</ele>
<time>2023-02-16T12:36:57.905Z</time>
</trkpt>
<trkpt lat="31.3993700" lon="34.4351800">
<ele>19.150000</ele>
<time>2023-02-16T12:36:57.905Z</time>
</trkpt>
<trkpt lat="31.3994100" lon="34.4352500">
<ele>18.309999</ele>
<time>2023-02-16T12:36:57.905Z</time>
</trkpt>
<trkpt lat="31.3994400" lon="34.4353200">
<ele>17.850000</ele>
<time>2023-02-16T12:36:57.905Z</time>
</trkpt>
<trkpt lat="31.3993600" lon="34.4356300">
<ele>17.520000</ele>
<time>2023-02-16T12:36:57.905Z</time>
</trkpt>
<trkpt lat="31.3994400" lon="34.4357300">
<ele>19.469999</ele>
<time>2023-02-16T12:36:57.905Z</time>
</trkpt>
<trkpt lat="31.3994800" lon="34.4357800">
<ele>20.539999</ele>
<time>2023-02-16T12:36:57.905Z</time>
</trkpt>
<trkpt lat="31.3995300" lon="34.4358300">
<ele>21.580000</ele>
<time>2023-02-16T12:36:57.905Z</time>
</trkpt>
<trkpt lat="31.3997900" lon="34.4359400">
<ele>23.620001</ele>
<time>2023-02-16T12:36:57.905Z</time>
</trkpt>
<trkpt lat="31.3998400" lon="34.4359800">
<ele>23.859999</ele>
<time>2023-02-16T12:36:57.905Z</time>
</trkpt>
<trkpt lat="31.3998900" lon="34.4360400">
<ele>24.330002</ele>
<time>2023-02-16T12:36:57.905Z</time>
</trkpt>
<trkpt lat="31.3999500" lon="34.4361800">
<ele>25.110001</ele>
<time>2023-02-16T12:36:57.905Z</time>
</trkpt>
<trkpt lat="31.4000000" lon="34.4364200">
<ele>26.219999</ele>
<time>2023-02-16T12:36:57.905Z</time>
</trkpt>
<trkpt lat="31.3999100" lon="34.4364500">
<ele>25.539999</ele>
<time>2023-02-16T12:36:57.905Z</time>
</trkpt>
<trkpt lat="31.3995800" lon="34.4366000">
<ele>28.110001</ele>
<time>2023-02-16T12:36:57.905Z</time>
</trkpt>
<trkpt lat="31.3993800" lon="34.4366600">
<ele>31.430000</ele>
<time>2023-02-16T12:36:57.905Z</time>
</trkpt>
<trkpt lat="31.3992300" lon="34.4367300">
<ele>32.030003</ele>
<time>2023-02-16T12:36:57.905Z</time>
</trkpt>
<trkpt lat="31.3991200" lon="34.4368000">
<ele>30.630001</ele>
<time>2023-02-16T12:36:57.905Z</time>
</trkpt>
<trkpt lat="31.3989800" lon="34.4369400">
<ele>25.210001</ele>
<time>2023-02-16T12:36:57.905Z</time>
</trkpt>
<trkpt lat="31.3988800" lon="34.4370100">
<ele>21.730000</ele>
<time>2023-02-16T12:36:57.905Z</time>
</trkpt>
<trkpt lat="31.3986300" lon="34.4371500">
<ele>19.430000</ele>
<time>2023-02-16T12:36:57.905Z</time>
</trkpt>
<trkpt lat="31.3985900" lon="34.4371900">
<ele>19.639999</ele>
<time>2023-02-16T12:36:57.905Z</time>
</trkpt>
<trkpt lat="31.3985600" lon="34.4372200">
<ele>20.160000</ele>
<time>2023-02-16T12:36:57.905Z</time>
</trkpt>
<trkpt lat="31.3985300" lon="34.4372900">
<ele>20.950001</ele>
<time>2023-02-16T12:36:57.905Z</time>
</trkpt>
<trkpt lat="31.3984700" lon="34.4374600">
<ele>22.639999</ele>
<time>2023-02-16T12:36:57.905Z</time>
</trkpt>
<trkpt lat="31.3983800" lon="34.4377700">
<ele>19.599998</ele>
<time>2023-02-16T12:36:57.905Z</time>
</trkpt>
<trkpt lat="31.3983700" lon="34.4382300">
<ele>19.280001</ele>
<time>2023-02-16T12:36:57.905Z</time>
</trkpt>
<trkpt lat="31.3984400" lon="34.4388400">
<ele>15.520000</ele>
<time>2023-02-16T12:36:57.905Z</time>
</trkpt>
<trkpt lat="31.3985400" lon="34.4392800">
<ele>15.379999</ele>
<time>2023-02-16T12:36:57.905Z</time>
</trkpt>
<trkpt lat="31.3988100" lon="34.4402400">
<ele>14.750000</ele>
<time>2023-02-16T12:36:57.905Z</time>
</trkpt>
<trkpt lat="31.3989900" lon="34.4406600">
<ele>15.719999</ele>
<time>2023-02-16T12:36:57.905Z</time>
</trkpt>
<trkpt lat="31.3990500" lon="34.4407900">
<ele>15.900001</ele>
<time>2023-02-16T12:36:57.905Z</time>
</trkpt>
<trkpt lat="31.3991800" lon="34.4409900">
<ele>16.430000</ele>
<time>2023-02-16T12:36:57.905Z</time>
</trkpt>
<trkpt lat="31.3994600" lon="34.4414900">
<ele>13.900001</ele>
<time>2023-02-16T12:36:57.905Z</time>
</trkpt>
<trkpt lat="31.3996400" lon="34.4419600">
<ele>17.030001</ele>
<time>2023-02-16T12:36:57.905Z</time>
</trkpt>
<trkpt lat="31.3997600" lon="34.4421600">
<ele>17.260000</ele>
<time>2023-02-16T12:36:57.905Z</time>
</trkpt>
<trkpt lat="31.3998700" lon="34.4423800">
<ele>18.619999</ele>
<time>2023-02-16T12:36:57.905Z</time>
</trkpt>
<trkpt lat="31.4001000" lon="34.4427300">
<ele>17.270000</ele>
<time>2023-02-16T12:36:57.905Z</time>
</trkpt>
<trkpt lat="31.4001700" lon="34.4429400">
<ele>16.770000</ele>
<time>2023-02-16T12:36:57.905Z</time>
</trkpt>
<trkpt lat="31.4002400" lon="34.4432200">
<ele>16.430000</ele>
<time>2023-02-16T12:36:57.905Z</time>
</trkpt>
<trkpt lat="31.4002400" lon="34.4433500">
<ele>15.629999</ele>
<time>2023-02-16T12:36:57.905Z</time>
</trkpt>
<trkpt lat="31.4002200" lon="34.4435200">
<ele>14.660001</ele>
<time>2023-02-16T12:36:57.905Z</time>
</trkpt>
<trkpt lat="31.4002400" lon="34.4437800">
<ele>13.610000</ele>
<time>2023-02-16T12:36:57.905Z</time>
</trkpt>
<trkpt lat="31.4003600" lon="34.4446300">
<ele>15.310000</ele>
<time>2023-02-16T12:36:57.905Z</time>
</trkpt>
<trkpt lat="31.4003200" lon="34.4450000">
<ele>16.280001</ele>
<time>2023-02-16T12:36:57.905Z</time>
</trkpt>
<trkpt lat="31.4003300" lon="34.4451400">
<ele>17.160000</ele>
<time>2023-02-16T12:36:57.905Z</time>
</trkpt>
<trkpt lat="31.4003700" lon="34.4452700">
<ele>18.670000</ele>
<time>2023-02-16T12:36:57.905Z</time>
</trkpt>
<trkpt lat="31.4004100" lon="34.4454700">
<ele>19.840000</ele>
<time>2023-02-16T12:36:57.905Z</time>
</trkpt>
<trkpt lat="31.4004400" lon="34.4455300">
<ele>20.520000</ele>
<time>2023-02-16T12:36:57.905Z</time>
</trkpt>
<trkpt lat="31.4005200" lon="34.4456300">
<ele>23.469999</ele>
<time>2023-02-16T12:36:57.905Z</time>
</trkpt>
<trkpt lat="31.4008000" lon="34.4458300">
<ele>26.240000</ele>
<time>2023-02-16T12:36:57.905Z</time>
</trkpt>
<trkpt lat="31.4008300" lon="34.4458400">
<ele>26.090000</ele>
<time>2023-02-16T12:36:57.905Z</time>
</trkpt>
<trkpt lat="31.4010800" lon="34.4458600">
<ele>29.580000</ele>
<time>2023-02-16T12:36:57.914Z</time>
</trkpt>
<trkpt lat="31.4011100" lon="34.4458800">
<ele>29.990000</ele>
<time>2023-02-16T12:36:57.914Z</time>
</trkpt>
<trkpt lat="31.4012200" lon="34.4458900">
<ele>29.530001</ele>
<time>2023-02-16T12:36:57.914Z</time>
</trkpt>
<trkpt lat="31.4013800" lon="34.4459800">
<ele>28.520000</ele>
<time>2023-02-16T12:36:57.914Z</time>
</trkpt>
<trkpt lat="31.4017900" lon="34.4463900">
<ele>29.450001</ele>
<time>2023-02-16T12:36:57.914Z</time>
</trkpt>
<trkpt lat="31.4018200" lon="34.4464500">
<ele>30.039999</ele>
<time>2023-02-16T12:36:57.914Z</time>
</trkpt>
<trkpt lat="31.4018200" lon="34.4464500">
<ele>30.039999</ele>
<time>2023-02-16T12:36:57.914Z</time>
</trkpt>
<trkpt lat="31.4018200" lon="34.4464500">
<ele>30.039999</ele>
<time>2023-02-16T12:36:57.914Z</time>
</trkpt>
<trkpt lat="31.4019100" lon="34.4466500">
<ele>33.170002</ele>
<time>2023-02-16T12:36:57.914Z</time>
</trkpt>
<trkpt lat="31.4020300" lon="34.4470000">
<ele>30.630001</ele>
<time>2023-02-16T12:36:57.915Z</time>
</trkpt>
<trkpt lat="31.4021700" lon="34.4472400">
<ele>29.799999</ele>
<time>2023-02-16T12:36:57.915Z</time>
</trkpt>
<trkpt lat="31.4022400" lon="34.4473900">
<ele>33.040001</ele>
<time>2023-02-16T12:36:57.915Z</time>
</trkpt>
<trkpt lat="31.4024100" lon="34.4479000">
<ele>42.410004</ele>
<time>2023-02-16T12:36:57.915Z</time>
</trkpt>
<trkpt lat="31.4025600" lon="34.4482400">
<ele>43.060001</ele>
<time>2023-02-16T12:36:57.915Z</time>
</trkpt>
<trkpt lat="31.4026000" lon="34.4484000">
<ele>42.130001</ele>
<time>2023-02-16T12:36:57.915Z</time>
</trkpt>
<trkpt lat="31.4025900" lon="34.4485300">
<ele>41.340004</ele>
<time>2023-02-16T12:36:57.915Z</time>
</trkpt>
<trkpt lat="31.4025600" lon="34.4487300">
<ele>40.540001</ele>
<time>2023-02-16T12:36:57.915Z</time>
</trkpt>
<trkpt lat="31.4024500" lon="34.4492700">
<ele>41.079998</ele>
<time>2023-02-16T12:36:57.915Z</time>
</trkpt>
<trkpt lat="31.4023900" lon="34.4494200">
<ele>41.930000</ele>
<time>2023-02-16T12:36:57.915Z</time>
</trkpt>
<trkpt lat="31.4020400" lon="34.4498400">
<ele>38.079998</ele>
<time>2023-02-16T12:36:57.915Z</time>
</trkpt>
<trkpt lat="31.4018800" lon="34.4499300">
<ele>36.710003</ele>
<time>2023-02-16T12:36:57.915Z</time>
</trkpt>
<trkpt lat="31.4018000" lon="34.4500200">
<ele>36.450001</ele>
<time>2023-02-16T12:36:57.915Z</time>
</trkpt>
<trkpt lat="31.4014800" lon="34.4504700">
<ele>33.330002</ele>
<time>2023-02-16T12:36:57.915Z</time>
</trkpt>
<trkpt lat="31.4011400" lon="34.4509100">
<ele>26.620001</ele>
<time>2023-02-16T12:36:57.915Z</time>
</trkpt>
<trkpt lat="31.4009900" lon="34.4511400">
<ele>23.439999</ele>
<time>2023-02-16T12:36:57.915Z</time>
</trkpt>
<trkpt lat="31.4008900" lon="34.4514100">
<ele>25.500000</ele>
<time>2023-02-16T12:36:57.915Z</time>
</trkpt>
<trkpt lat="31.4008100" lon="34.4515500">
<ele>25.570000</ele>
<time>2023-02-16T12:36:57.915Z</time>
</trkpt>
<trkpt lat="31.4007800" lon="34.4516700">
<ele>25.809999</ele>
<time>2023-02-16T12:36:57.915Z</time>
</trkpt>
<trkpt lat="31.4008000" lon="34.4517900">
<ele>25.830000</ele>
<time>2023-02-16T12:36:57.915Z</time>
</trkpt>
<trkpt lat="31.4009000" lon="34.4520600">
<ele>27.559999</ele>
<time>2023-02-16T12:36:57.915Z</time>
</trkpt>
<trkpt lat="31.4009600" lon="34.4523100">
<ele>28.859999</ele>
<time>2023-02-16T12:36:57.915Z</time>
</trkpt>
<trkpt lat="31.4011200" lon="34.4526800">
<ele>33.560001</ele>
<time>2023-02-16T12:36:57.915Z</time>
</trkpt>
<trkpt lat="31.4012100" lon="34.4530400">
<ele>35.169998</ele>
<time>2023-02-16T12:36:57.915Z</time>
</trkpt>
<trkpt lat="31.4012100" lon="34.4531700">
<ele>35.099998</ele>
<time>2023-02-16T12:36:57.915Z</time>
</trkpt>
<trkpt lat="31.4011000" lon="34.4533900">
<ele>36.209999</ele>
<time>2023-02-16T12:36:57.915Z</time>
</trkpt>
<trkpt lat="31.4010800" lon="34.4536400">
<ele>37.750000</ele>
<time>2023-02-16T12:36:57.915Z</time>
</trkpt>
<trkpt lat="31.4010000" lon="34.4540100">
<ele>35.770000</ele>
<time>2023-02-16T12:36:57.915Z</time>
</trkpt>
<trkpt lat="31.4009800" lon="34.4542200">
<ele>31.510000</ele>
<time>2023-02-16T12:36:57.915Z</time>
</trkpt>
<trkpt lat="31.4009900" lon="34.4545500">
<ele>33.349998</ele>
<time>2023-02-16T12:36:57.915Z</time>
</trkpt>
<trkpt lat="31.4009500" lon="34.4548500">
<ele>33.139999</ele>
<time>2023-02-16T12:36:57.915Z</time>
</trkpt>
<trkpt lat="31.4009700" lon="34.4551000">
<ele>33.989998</ele>
<time>2023-02-16T12:36:57.915Z</time>
</trkpt>
<trkpt lat="31.4011500" lon="34.4559100">
<ele>38.299999</ele>
<time>2023-02-16T12:36:57.915Z</time>
</trkpt>
<trkpt lat="31.4013200" lon="34.4563800">
<ele>34.610001</ele>
<time>2023-02-16T12:36:57.915Z</time>
</trkpt>
<trkpt lat="31.4015400" lon="34.4572700">
<ele>33.500000</ele>
<time>2023-02-16T12:36:57.915Z</time>
</trkpt>
<trkpt lat="31.4016400" lon="34.4577600">
<ele>31.900000</ele>
<time>2023-02-16T12:36:57.915Z</time>
</trkpt>
<trkpt lat="31.4017300" lon="34.4583800">
<ele>36.680000</ele>
<time>2023-02-16T12:36:57.915Z</time>
</trkpt>
<trkpt lat="31.4017300" lon="34.4584700">
<ele>36.500000</ele>
<time>2023-02-16T12:36:57.915Z</time>
</trkpt>
<trkpt lat="31.4016900" lon="34.4585800">
<ele>36.180000</ele>
<time>2023-02-16T12:36:57.915Z</time>
</trkpt>
<trkpt lat="31.4015300" lon="34.4589400">
<ele>35.790001</ele>
<time>2023-02-16T12:36:57.915Z</time>
</trkpt>
<trkpt lat="31.4014800" lon="34.4591100">
<ele>36.389999</ele>
<time>2023-02-16T12:36:57.915Z</time>
</trkpt>
<trkpt lat="31.4014000" lon="34.4592600">
<ele>36.110001</ele>
<time>2023-02-16T12:36:57.915Z</time>
</trkpt>
<trkpt lat="31.4013100" lon="34.4595300">
<ele>35.899998</ele>
<time>2023-02-16T12:36:57.915Z</time>
</trkpt>
<trkpt lat="31.4012900" lon="34.4597400">
<ele>38.320000</ele>
<time>2023-02-16T12:36:57.915Z</time>
</trkpt>
<trkpt lat="31.4012900" lon="34.4602100">
<ele>45.730000</ele>
<time>2023-02-16T12:36:57.915Z</time>
</trkpt>
<trkpt lat="31.4012500" lon="34.4604100">
<ele>47.000000</ele>
<time>2023-02-16T12:36:57.915Z</time>
</trkpt>
<trkpt lat="31.4010600" lon="34.4609600">
<ele>39.340000</ele>
<time>2023-02-16T12:36:57.915Z</time>
</trkpt>
<trkpt lat="31.4009500" lon="34.4611200">
<ele>36.520000</ele>
<time>2023-02-16T12:36:57.915Z</time>
</trkpt>
<trkpt lat="31.4004900" lon="34.4616500">
<ele>32.370003</ele>
<time>2023-02-16T12:36:57.915Z</time>
</trkpt>
<trkpt lat="31.4004000" lon="34.4617300">
<ele>31.750000</ele>
<time>2023-02-16T12:36:57.915Z</time>
</trkpt>
<trkpt lat="31.4002700" lon="34.4618100">
<ele>30.010000</ele>
<time>2023-02-16T12:36:57.915Z</time>
</trkpt>
<trkpt lat="31.4001600" lon="34.4619100">
<ele>30.020000</ele>
<time>2023-02-16T12:36:57.915Z</time>
</trkpt>
<trkpt lat="31.4001000" lon="34.4620100">
<ele>29.780001</ele>
<time>2023-02-16T12:36:57.915Z</time>
</trkpt>
<trkpt lat="31.3999800" lon="34.4624100">
<ele>29.400002</ele>
<time>2023-02-16T12:36:57.915Z</time>
</trkpt>
<trkpt lat="31.3999100" lon="34.4626900">
<ele>32.169998</ele>
<time>2023-02-16T12:36:57.915Z</time>
</trkpt>
<trkpt lat="31.3999000" lon="34.4628200">
<ele>33.360001</ele>
<time>2023-02-16T12:36:57.915Z</time>
</trkpt>
<trkpt lat="31.3999200" lon="34.4629000">
<ele>34.520000</ele>
<time>2023-02-16T12:36:57.915Z</time>
</trkpt>
<trkpt lat="31.3999500" lon="34.4629700">
<ele>35.849998</ele>
<time>2023-02-16T12:36:57.915Z</time>
</trkpt>
<trkpt lat="31.4000100" lon="34.4630300">
<ele>37.740002</ele>
<time>2023-02-16T12:36:57.915Z</time>
</trkpt>
<trkpt lat="31.4001500" lon="34.4630700">
<ele>39.799999</ele>
<time>2023-02-16T12:36:57.915Z</time>
</trkpt>
<trkpt lat="31.4002400" lon="34.4631300">
<ele>41.629997</ele>
<time>2023-02-16T12:36:57.915Z</time>
</trkpt>
<trkpt lat="31.4002700" lon="34.4631600">
<ele>42.410004</ele>
<time>2023-02-16T12:36:57.915Z</time>
</trkpt>
<trkpt lat="31.4003000" lon="34.4632700">
<ele>44.200001</ele>
<time>2023-02-16T12:36:57.915Z</time>
</trkpt>
<trkpt lat="31.4002800" lon="34.4633300">
<ele>44.959999</ele>
<time>2023-02-16T12:36:57.915Z</time>
</trkpt>
<trkpt lat="31.4002700" lon="34.4634000">
<ele>45.829998</ele>
<time>2023-02-16T12:36:57.915Z</time>
</trkpt>
<trkpt lat="31.4002100" lon="34.4635000">
<ele>46.129997</ele>
<time>2023-02-16T12:36:57.915Z</time>
</trkpt>
<trkpt lat="31.3998900" lon="34.4638400">
<ele>34.680000</ele>
<time>2023-02-16T12:36:57.915Z</time>
</trkpt>
<trkpt lat="31.3997000" lon="34.4640300">
<ele>31.830000</ele>
<time>2023-02-16T12:36:57.915Z</time>
</trkpt>
<trkpt lat="31.3996600" lon="34.4641000">
<ele>32.420002</ele>
<time>2023-02-16T12:36:57.915Z</time>
</trkpt>
<trkpt lat="31.3996500" lon="34.4641400">
<ele>32.520000</ele>
<time>2023-02-16T12:36:57.915Z</time>
</trkpt>
<trkpt lat="31.3996600" lon="34.4641800">
<ele>32.090000</ele>
<time>2023-02-16T12:36:57.915Z</time>
</trkpt>
<trkpt lat="31.3997400" lon="34.4642700">
<ele>28.640001</ele>
<time>2023-02-16T12:36:57.915Z</time>
</trkpt>
<trkpt lat="31.3999200" lon="34.4644000">
<ele>26.010000</ele>
<time>2023-02-16T12:36:57.915Z</time>
</trkpt>
<trkpt lat="31.4000200" lon="34.4645800">
<ele>25.370001</ele>
<time>2023-02-16T12:36:57.915Z</time>
</trkpt>
<trkpt lat="31.4001200" lon="34.4646900">
<ele>24.580000</ele>
<time>2023-02-16T12:36:57.915Z</time>
</trkpt>
<trkpt lat="31.4003000" lon="34.4648300">
<ele>25.180000</ele>
<time>2023-02-16T12:36:57.919Z</time>
</trkpt>
<trkpt lat="31.4006100" lon="34.4653000">
<ele>31.559999</ele>
<time>2023-02-16T12:36:57.919Z</time>
</trkpt>
<trkpt lat="31.4008100" lon="34.4654800">
<ele>34.220001</ele>
<time>2023-02-16T12:36:57.919Z</time>
</trkpt>
<trkpt lat="31.4010400" lon="34.4657500">
<ele>32.340000</ele>
<time>2023-02-16T12:36:57.919Z</time>
</trkpt>
<trkpt lat="31.4010900" lon="34.4658600">
<ele>33.809998</ele>
<time>2023-02-16T12:36:57.919Z</time>
</trkpt>
<trkpt lat="31.4011200" lon="34.4660200">
<ele>33.540001</ele>
<time>2023-02-16T12:36:57.919Z</time>
</trkpt>
<trkpt lat="31.4011700" lon="34.4661300">
<ele>34.290001</ele>
<time>2023-02-16T12:36:57.919Z</time>
</trkpt>
<trkpt lat="31.4014800" lon="34.4663500">
<ele>38.900002</ele>
<time>2023-02-16T12:36:57.919Z</time>
</trkpt>
<trkpt lat="31.4015800" lon="34.4664600">
<ele>41.619999</ele>
<time>2023-02-16T12:36:57.920Z</time>
</trkpt>
<trkpt lat="31.4016200" lon="34.4664700">
<ele>43.030003</ele>
<time>2023-02-16T12:36:57.920Z</time>
</trkpt>
<trkpt lat="31.4017300" lon="34.4666500">
<ele>41.329998</ele>
<time>2023-02-16T12:36:57.920Z</time>
</trkpt>
<trkpt lat="31.4020200" lon="34.4666900">
<ele>38.980000</ele>
<time>2023-02-16T12:36:57.920Z</time>
</trkpt>
<trkpt lat="31.4021700" lon="34.4668700">
<ele>35.959999</ele>
<time>2023-02-16T12:36:57.920Z</time>
</trkpt>
<trkpt lat="31.4023300" lon="34.4668900">
<ele>38.130001</ele>
<time>2023-02-16T12:36:57.920Z</time>
</trkpt>
<trkpt lat="31.4026500" lon="34.4667900">
<ele>47.419998</ele>
<time>2023-02-16T12:36:57.920Z</time>
</trkpt>
<trkpt lat="31.4031100" lon="34.4667800">
<ele>41.440002</ele>
<time>2023-02-16T12:36:57.920Z</time>
</trkpt>
<trkpt lat="31.4032500" lon="34.4668100">
<ele>41.489998</ele>
<time>2023-02-16T12:36:57.920Z</time>
</trkpt>
<trkpt lat="31.4034500" lon="34.4667000">
<ele>43.190002</ele>
<time>2023-02-16T12:36:57.920Z</time>
</trkpt>
<trkpt lat="31.4035500" lon="34.4667100">
<ele>44.309998</ele>
<time>2023-02-16T12:36:57.920Z</time>
</trkpt>
<trkpt lat="31.4036700" lon="34.4669000">
<ele>45.700001</ele>
<time>2023-02-16T12:36:57.920Z</time>
</trkpt>
<trkpt lat="31.4038500" lon="34.4670400">
<ele>46.690002</ele>
<time>2023-02-16T12:36:57.920Z</time>
</trkpt>
<trkpt lat="31.4039000" lon="34.4673000">
<ele>45.080002</ele>
<time>2023-02-16T12:36:57.920Z</time>
</trkpt>
<trkpt lat="31.4038900" lon="34.4676300">
<ele>44.989998</ele>
<time>2023-02-16T12:36:57.920Z</time>
</trkpt>
<trkpt lat="31.4038500" lon="34.4677700">
<ele>44.590000</ele>
<time>2023-02-16T12:36:57.920Z</time>
</trkpt>
<trkpt lat="31.4038500" lon="34.4677700">
<ele>44.590000</ele>
<time>2023-02-16T12:36:57.920Z</time>
</trkpt>
<trkpt lat="31.4038500" lon="34.4677700">
<ele>44.590000</ele>
<time>2023-02-16T12:36:57.920Z</time>
</trkpt>
<trkpt lat="31.4038300" lon="34.4678500">
<ele>43.899998</ele>
<time>2023-02-16T12:36:57.920Z</time>
</trkpt>
<trkpt lat="31.4038600" lon="34.4682100">
<ele>41.179996</ele>
<time>2023-02-16T12:36:57.920Z</time>
</trkpt>
<trkpt lat="31.4039000" lon="34.4685200">
<ele>37.299999</ele>
<time>2023-02-16T12:36:57.920Z</time>
</trkpt>
<trkpt lat="31.4038900" lon="34.4687600">
<ele>34.930000</ele>
<time>2023-02-16T12:36:57.920Z</time>
</trkpt>
<trkpt lat="31.4038700" lon="34.4688500">
<ele>34.029999</ele>
<time>2023-02-16T12:36:57.920Z</time>
</trkpt>
<trkpt lat="31.4038200" lon="34.4689800">
<ele>32.760002</ele>
<time>2023-02-16T12:36:57.920Z</time>
</trkpt>
<trkpt lat="31.4036300" lon="34.4692100">
<ele>30.340000</ele>
<time>2023-02-16T12:36:57.920Z</time>
</trkpt>
<trkpt lat="31.4032500" lon="34.4694500">
<ele>32.930000</ele>
<time>2023-02-16T12:36:57.920Z</time>
</trkpt>
<trkpt lat="31.4031700" lon="34.4694800">
<ele>33.869999</ele>
<time>2023-02-16T12:36:57.920Z</time>
</trkpt>
<trkpt lat="31.4028900" lon="34.4694800">
<ele>33.959999</ele>
<time>2023-02-16T12:36:57.920Z</time>
</trkpt>
<trkpt lat="31.4028100" lon="34.4695100">
<ele>33.649998</ele>
<time>2023-02-16T12:36:57.920Z</time>
</trkpt>
<trkpt lat="31.4026900" lon="34.4696000">
<ele>33.270000</ele>
<time>2023-02-16T12:36:57.920Z</time>
</trkpt>
<trkpt lat="31.4026300" lon="34.4696200">
<ele>32.720001</ele>
<time>2023-02-16T12:36:57.920Z</time>
</trkpt>
<trkpt lat="31.4025700" lon="34.4696300">
<ele>32.090000</ele>
<time>2023-02-16T12:36:57.920Z</time>
</trkpt>
<trkpt lat="31.4024600" lon="34.4697100">
<ele>31.040001</ele>
<time>2023-02-16T12:36:57.920Z</time>
</trkpt>
<trkpt lat="31.4022700" lon="34.4697700">
<ele>31.200001</ele>
<time>2023-02-16T12:36:57.920Z</time>
</trkpt>
<trkpt lat="31.4021200" lon="34.4699000">
<ele>31.430000</ele>
<time>2023-02-16T12:36:57.920Z</time>
</trkpt>
<trkpt lat="31.4020300" lon="34.4700300">
<ele>30.470001</ele>
<time>2023-02-16T12:36:57.920Z</time>
</trkpt>
<trkpt lat="31.4020000" lon="34.4701900">
<ele>29.309999</ele>
<time>2023-02-16T12:36:57.920Z</time>
</trkpt>
<trkpt lat="31.4019900" lon="34.4702800">
<ele>28.680000</ele>
<time>2023-02-16T12:36:57.920Z</time>
</trkpt>
<trkpt lat="31.4020100" lon="34.4703600">
<ele>29.689999</ele>
<time>2023-02-16T12:36:57.920Z</time>
</trkpt>
<trkpt lat="31.4020700" lon="34.4704600">
<ele>31.179998</ele>
<time>2023-02-16T12:36:57.920Z</time>
</trkpt>
<trkpt lat="31.4021000" lon="34.4704900">
<ele>31.679998</ele>
<time>2023-02-16T12:36:57.920Z</time>
</trkpt>
<trkpt lat="31.4024100" lon="34.4707100">
<ele>37.060001</ele>
<time>2023-02-16T12:36:57.920Z</time>
</trkpt>
<trkpt lat="31.4024900" lon="34.4707900">
<ele>38.480000</ele>
<time>2023-02-16T12:36:57.920Z</time>
</trkpt>
<trkpt lat="31.4025900" lon="34.4709200">
<ele>38.250000</ele>
<time>2023-02-16T12:36:57.920Z</time>
</trkpt>
<trkpt lat="31.4026900" lon="34.4711000">
<ele>36.980000</ele>
<time>2023-02-16T12:36:57.920Z</time>
</trkpt>
<trkpt lat="31.4027400" lon="34.4712500">
<ele>36.270000</ele>
<time>2023-02-16T12:36:57.920Z</time>
</trkpt>
<trkpt lat="31.4028000" lon="34.4716700">
<ele>34.970001</ele>
<time>2023-02-16T12:36:57.920Z</time>
</trkpt>
<trkpt lat="31.4030100" lon="34.4721700">
<ele>35.029999</ele>
<time>2023-02-16T12:36:57.920Z</time>
</trkpt>
<trkpt lat="31.4031000" lon="34.4724700">
<ele>37.000000</ele>
<time>2023-02-16T12:36:57.920Z</time>
</trkpt>
<trkpt lat="31.4031000" lon="34.4724700">
<ele>37.000000</ele>
<time>2023-02-16T12:36:57.920Z</time>
</trkpt>
<trkpt lat="31.4031000" lon="34.4724700">
<ele>37.000000</ele>
<time>2023-02-16T12:36:57.920Z</time>
</trkpt>
<trkpt lat="31.4031600" lon="34.4726900">
<ele>33.440002</ele>
<time>2023-02-16T12:36:57.920Z</time>
</trkpt>
<trkpt lat="31.4032100" lon="34.4729300">
<ele>33.349998</ele>
<time>2023-02-16T12:36:57.920Z</time>
</trkpt>
<trkpt lat="31.4032100" lon="34.4732300">
<ele>35.119999</ele>
<time>2023-02-16T12:36:57.920Z</time>
</trkpt>
<trkpt lat="31.4032300" lon="34.4733600">
<ele>35.910000</ele>
<time>2023-02-16T12:36:57.920Z</time>
</trkpt>
<trkpt lat="31.4032800" lon="34.4734200">
<ele>36.080002</ele>
<time>2023-02-16T12:36:57.920Z</time>
</trkpt>
<trkpt lat="31.4036500" lon="34.4737600">
<ele>39.570000</ele>
<time>2023-02-16T12:36:57.920Z</time>
</trkpt>
<trkpt lat="31.4036900" lon="34.4738300">
<ele>40.949997</ele>
<time>2023-02-16T12:36:57.920Z</time>
</trkpt>
<trkpt lat="31.4037100" lon="34.4740000">
<ele>41.290001</ele>
<time>2023-02-16T12:36:57.920Z</time>
</trkpt>
<trkpt lat="31.4037400" lon="34.4740800">
<ele>40.510002</ele>
<time>2023-02-16T12:36:57.920Z</time>
</trkpt>
<trkpt lat="31.4039100" lon="34.4744000">
<ele>40.900002</ele>
<time>2023-02-16T12:36:57.920Z</time>
</trkpt>
<trkpt lat="31.4040800" lon="34.4746000">
<ele>42.570000</ele>
<time>2023-02-16T12:36:57.920Z</time>
</trkpt>
<trkpt lat="31.4041400" lon="34.4746300">
<ele>44.100002</ele>
<time>2023-02-16T12:36:57.920Z</time>
</trkpt>
<trkpt lat="31.4044100" lon="34.4746400">
<ele>45.930000</ele>
<time>2023-02-16T12:36:57.920Z</time>
</trkpt>
<trkpt lat="31.4046500" lon="34.4747500">
<ele>49.299999</ele>
<time>2023-02-16T12:36:57.920Z</time>
</trkpt>
<trkpt lat="31.4048900" lon="34.4749600">
<ele>47.730000</ele>
<time>2023-02-16T12:36:57.920Z</time>
</trkpt>
<trkpt lat="31.4050000" lon="34.4747500">
<ele>53.400002</ele>
<time>2023-02-16T12:36:57.920Z</time>
</trkpt>
<trkpt lat="31.4051300" lon="34.4747300">
<ele>52.950001</ele>
<time>2023-02-16T12:36:57.920Z</time>
</trkpt>
<trkpt lat="31.4051700" lon="34.4747600">
<ele>52.289997</ele>
<time>2023-02-16T12:36:57.920Z</time>
</trkpt>
<trkpt lat="31.4052800" lon="34.4747800">
<ele>51.490002</ele>
<time>2023-02-16T12:36:57.920Z</time>
</trkpt>
<trkpt lat="31.4054000" lon="34.4748300">
<ele>46.289997</ele>
<time>2023-02-16T12:36:57.920Z</time>
</trkpt>
<trkpt lat="31.4054800" lon="34.4748200">
<ele>43.070000</ele>
<time>2023-02-16T12:36:57.920Z</time>
</trkpt>
<trkpt lat="31.4055400" lon="34.4748100">
<ele>40.639999</ele>
<time>2023-02-16T12:36:57.920Z</time>
</trkpt>
<trkpt lat="31.4056100" lon="34.4748000">
<ele>40.890003</ele>
<time>2023-02-16T12:36:57.920Z</time>
</trkpt>
<trkpt lat="31.4057200" lon="34.4748500">
<ele>42.910000</ele>
<time>2023-02-16T12:36:57.920Z</time>
</trkpt>
<trkpt lat="31.4057800" lon="34.4748700">
<ele>44.090000</ele>
<time>2023-02-16T12:36:57.920Z</time>
</trkpt>
<trkpt lat="31.4059300" lon="34.4748600">
<ele>48.470001</ele>
<time>2023-02-16T12:36:57.920Z</time>
</trkpt>
<trkpt lat="31.4061300" lon="34.4747100">
<ele>51.660000</ele>
<time>2023-02-16T12:36:57.920Z</time>
</trkpt>
<trkpt lat="31.4062800" lon="34.4747400">
<ele>50.480000</ele>
<time>2023-02-16T12:36:57.920Z</time>
</trkpt>
<trkpt lat="31.4064800" lon="34.4747300">
<ele>48.779999</ele>
<time>2023-02-16T12:36:57.920Z</time>
</trkpt>
<trkpt lat="31.4066400" lon="34.4746900">
<ele>47.610001</ele>
<time>2023-02-16T12:36:57.920Z</time>
</trkpt>
<trkpt lat="31.4067100" lon="34.4746400">
<ele>46.610001</ele>
<time>2023-02-16T12:36:57.920Z</time>
</trkpt>
<trkpt lat="31.4068800" lon="34.4744200">
<ele>42.130001</ele>
<time>2023-02-16T12:36:57.920Z</time>
</trkpt>
<trkpt lat="31.4069300" lon="34.4743500">
<ele>40.760002</ele>
<time>2023-02-16T12:36:57.920Z</time>
</trkpt>
<trkpt lat="31.4070000" lon="34.4743100">
<ele>39.559998</ele>
<time>2023-02-16T12:36:57.920Z</time>
</trkpt>
<trkpt lat="31.4072500" lon="34.4743100">
<ele>37.709999</ele>
<time>2023-02-16T12:36:57.920Z</time>
</trkpt>
<trkpt lat="31.4074800" lon="34.4742700">
<ele>37.910000</ele>
<time>2023-02-16T12:36:57.920Z</time>
</trkpt>
<trkpt lat="31.4076100" lon="34.4743000">
<ele>41.060001</ele>
<time>2023-02-16T12:36:57.920Z</time>
</trkpt>
<trkpt lat="31.4076900" lon="34.4743200">
<ele>43.000000</ele>
<time>2023-02-16T12:36:57.920Z</time>
</trkpt>
<trkpt lat="31.4081700" lon="34.4745300">
<ele>41.660000</ele>
<time>2023-02-16T12:36:57.920Z</time>
</trkpt>
<trkpt lat="31.4085500" lon="34.4747600">
<ele>39.700001</ele>
<time>2023-02-16T12:36:57.920Z</time>
</trkpt>
<trkpt lat="31.4086600" lon="34.4747900">
<ele>40.419998</ele>
<time>2023-02-16T12:36:57.924Z</time>
</trkpt>
<trkpt lat="31.4087400" lon="34.4747700">
<ele>40.639999</ele>
<time>2023-02-16T12:36:57.924Z</time>
</trkpt>
<trkpt lat="31.4088500" lon="34.4746900">
<ele>40.939999</ele>
<time>2023-02-16T12:36:57.924Z</time>
</trkpt>
<trkpt lat="31.4089700" lon="34.4745800">
<ele>42.650002</ele>
<time>2023-02-16T12:36:57.924Z</time>
</trkpt>
<trkpt lat="31.4090600" lon="34.4745500">
<ele>43.490002</ele>
<time>2023-02-16T12:36:57.924Z</time>
</trkpt>
<trkpt lat="31.4092800" lon="34.4746000">
<ele>44.959999</ele>
<time>2023-02-16T12:36:57.924Z</time>
</trkpt>
<trkpt lat="31.4094100" lon="34.4746000">
<ele>43.849998</ele>
<time>2023-02-16T12:36:57.924Z</time>
</trkpt>
<trkpt lat="31.4095400" lon="34.4745500">
<ele>44.850002</ele>
<time>2023-02-16T12:36:57.924Z</time>
</trkpt>
<trkpt lat="31.4096800" lon="34.4745300">
<ele>46.570000</ele>
<time>2023-02-16T12:36:57.924Z</time>
</trkpt>
<trkpt lat="31.4098500" lon="34.4745500">
<ele>53.449997</ele>
<time>2023-02-16T12:36:57.924Z</time>
</trkpt>
<trkpt lat="31.4099900" lon="34.4745400">
<ele>59.849998</ele>
<time>2023-02-16T12:36:57.924Z</time>
</trkpt>
<trkpt lat="31.4101600" lon="34.4744900">
<ele>58.840000</ele>
<time>2023-02-16T12:36:57.924Z</time>
</trkpt>
<trkpt lat="31.4102600" lon="34.4744400">
<ele>57.280003</ele>
<time>2023-02-16T12:36:57.924Z</time>
</trkpt>
<trkpt lat="31.4103500" lon="34.4743500">
<ele>55.419998</ele>
<time>2023-02-16T12:36:57.924Z</time>
</trkpt>
<trkpt lat="31.4104200" lon="34.4742400">
<ele>53.620003</ele>
<time>2023-02-16T12:36:57.924Z</time>
</trkpt>
<trkpt lat="31.4104900" lon="34.4742000">
<ele>51.299999</ele>
<time>2023-02-16T12:36:57.924Z</time>
</trkpt>
<trkpt lat="31.4106900" lon="34.4742200">
<ele>49.970001</ele>
<time>2023-02-16T12:36:57.924Z</time>
</trkpt>
<trkpt lat="31.4108800" lon="34.4739500">
<ele>51.870003</ele>
<time>2023-02-16T12:36:57.924Z</time>
</trkpt>
<trkpt lat="31.4110800" lon="34.4737200">
<ele>54.040001</ele>
<time>2023-02-16T12:36:57.924Z</time>
</trkpt>
<trkpt lat="31.4111600" lon="34.4736600">
<ele>55.380001</ele>
<time>2023-02-16T12:36:57.924Z</time>
</trkpt>
<trkpt lat="31.4112500" lon="34.4736300">
<ele>56.900002</ele>
<time>2023-02-16T12:36:57.924Z</time>
</trkpt>
<trkpt lat="31.4115900" lon="34.4736100">
<ele>56.840000</ele>
<time>2023-02-16T12:36:57.924Z</time>
</trkpt>
<trkpt lat="31.4118800" lon="34.4735500">
<ele>57.600002</ele>
<time>2023-02-16T12:36:57.924Z</time>
</trkpt>
<trkpt lat="31.4120300" lon="34.4735400">
<ele>58.950001</ele>
<time>2023-02-16T12:36:57.924Z</time>
</trkpt>
<trkpt lat="31.4121600" lon="34.4735700">
<ele>59.919998</ele>
<time>2023-02-16T12:36:57.924Z</time>
</trkpt>
<trkpt lat="31.4126200" lon="34.4738500">
<ele>55.080002</ele>
<time>2023-02-16T12:36:57.924Z</time>
</trkpt>
<trkpt lat="31.4128500" lon="34.4740500">
<ele>55.600002</ele>
<time>2023-02-16T12:36:57.924Z</time>
</trkpt>
<trkpt lat="31.4131100" lon="34.4741800">
<ele>61.360001</ele>
<time>2023-02-16T12:36:57.924Z</time>
</trkpt>
<trkpt lat="31.4133200" lon="34.4742300">
<ele>63.790001</ele>
<time>2023-02-16T12:36:57.924Z</time>
</trkpt>
<trkpt lat="31.4139400" lon="34.4741000">
<ele>69.360001</ele>
<time>2023-02-16T12:36:57.924Z</time>
</trkpt>
<trkpt lat="31.4140800" lon="34.4741000">
<ele>70.349998</ele>
<time>2023-02-16T12:36:57.924Z</time>
</trkpt>
<trkpt lat="31.4142500" lon="34.4741500">
<ele>70.540001</ele>
<time>2023-02-16T12:36:57.924Z</time>
</trkpt>
<trkpt lat="31.4145000" lon="34.4741800">
<ele>71.799995</ele>
<time>2023-02-16T12:36:57.924Z</time>
</trkpt>
<trkpt lat="31.4147400" lon="34.4741800">
<ele>76.269997</ele>
<time>2023-02-16T12:36:57.924Z</time>
</trkpt>
<trkpt lat="31.4149200" lon="34.4742200">
<ele>78.000000</ele>
<time>2023-02-16T12:36:57.924Z</time>
</trkpt>
<trkpt lat="31.4151200" lon="34.4742300">
<ele>80.150002</ele>
<time>2023-02-16T12:36:57.924Z</time>
</trkpt>
<trkpt lat="31.4152400" lon="34.4742100">
<ele>81.839996</ele>
<time>2023-02-16T12:36:57.924Z</time>
</trkpt>
<trkpt lat="31.4155900" lon="34.4740400">
<ele>73.889999</ele>
<time>2023-02-16T12:36:57.924Z</time>
</trkpt>
<trkpt lat="31.4157000" lon="34.4741600">
<ele>68.120003</ele>
<time>2023-02-16T12:36:57.924Z</time>
</trkpt>
<trkpt lat="31.4157600" lon="34.4741600">
<ele>67.239998</ele>
<time>2023-02-16T12:36:57.924Z</time>
</trkpt>
<trkpt lat="31.4159400" lon="34.4742100">
<ele>67.989998</ele>
<time>2023-02-16T12:36:57.924Z</time>
</trkpt>
<trkpt lat="31.4163900" lon="34.4744000">
<ele>65.639999</ele>
<time>2023-02-16T12:36:57.924Z</time>
</trkpt>
<trkpt lat="31.4165400" lon="34.4744400">
<ele>66.110001</ele>
<time>2023-02-16T12:36:57.924Z</time>
</trkpt>
<trkpt lat="31.4166900" lon="34.4744400">
<ele>67.150002</ele>
<time>2023-02-16T12:36:57.924Z</time>
</trkpt>
<trkpt lat="31.4167900" lon="34.4744200">
<ele>67.720001</ele>
<time>2023-02-16T12:36:57.924Z</time>
</trkpt>
<trkpt lat="31.4169600" lon="34.4743600">
<ele>68.320000</ele>
<time>2023-02-16T12:36:57.924Z</time>
</trkpt>
<trkpt lat="31.4172400" lon="34.4742300">
<ele>69.970001</ele>
<time>2023-02-16T12:36:57.924Z</time>
</trkpt>
<trkpt lat="31.4185100" lon="34.4735700">
<ele>74.419998</ele>
<time>2023-02-16T12:36:57.924Z</time>
</trkpt>
<trkpt lat="31.4185600" lon="34.4736600">
<ele>74.629997</ele>
<time>2023-02-16T12:36:57.924Z</time>
</trkpt>
<trkpt lat="31.4186900" lon="34.4738100">
<ele>76.540001</ele>
<time>2023-02-16T12:36:57.924Z</time>
</trkpt>
<trkpt lat="31.4190000" lon="34.4743900">
<ele>76.940002</ele>
<time>2023-02-16T12:36:57.924Z</time>
</trkpt>
<trkpt lat="31.4191300" lon="34.4745700">
<ele>79.469994</ele>
<time>2023-02-16T12:36:57.924Z</time>
</trkpt>
<trkpt lat="31.4191500" lon="34.4745900">
<ele>80.070000</ele>
<time>2023-02-16T12:36:57.924Z</time>
</trkpt>
<trkpt lat="31.4191500" lon="34.4745900">
<ele>80.070000</ele>
<time>2023-02-16T12:36:57.924Z</time>
</trkpt>
<trkpt lat="31.4191500" lon="34.4745900">
<ele>80.070000</ele>
<time>2023-02-16T12:36:57.924Z</time>
</trkpt>
<trkpt lat="31.4192500" lon="34.4747200">
<ele>81.889999</ele>
<time>2023-02-16T12:36:57.924Z</time>
</trkpt>
<trkpt lat="31.4193000" lon="34.4747700">
<ele>82.690002</ele>
<time>2023-02-16T12:36:57.924Z</time>
</trkpt>
<trkpt lat="31.4206500" lon="34.4762500">
<ele>76.029999</ele>
<time>2023-02-16T12:36:57.924Z</time>
</trkpt>
<trkpt lat="31.4208600" lon="34.4765500">
<ele>80.979996</ele>
<time>2023-02-16T12:36:57.924Z</time>
</trkpt>
<trkpt lat="31.4218500" lon="34.4779300">
<ele>82.649994</ele>
<time>2023-02-16T12:36:57.924Z</time>
</trkpt>
<trkpt lat="31.4224500" lon="34.4788000">
<ele>75.139999</ele>
<time>2023-02-16T12:36:57.924Z</time>
</trkpt>
<trkpt lat="31.4228900" lon="34.4794400">
<ele>79.570000</ele>
<time>2023-02-16T12:36:57.924Z</time>
</trkpt>
<trkpt lat="31.4229700" lon="34.4796000">
<ele>81.720001</ele>
<time>2023-02-16T12:36:57.924Z</time>
</trkpt>
<trkpt lat="31.4231400" lon="34.4801800">
<ele>78.680000</ele>
<time>2023-02-16T12:36:57.924Z</time>
</trkpt>
<trkpt lat="31.4234000" lon="34.4810200">
<ele>75.470001</ele>
<time>2023-02-16T12:36:57.924Z</time>
</trkpt>
<trkpt lat="31.4237500" lon="34.4823400">
<ele>76.360001</ele>
<time>2023-02-16T12:36:57.924Z</time>
</trkpt>
<trkpt lat="31.4241700" lon="34.4837200">
<ele>71.199997</ele>
<time>2023-02-16T12:36:57.924Z</time>
</trkpt>
<trkpt lat="31.4242600" lon="34.4839600">
<ele>70.690002</ele>
<time>2023-02-16T12:36:57.924Z</time>
</trkpt>
<trkpt lat="31.4243700" lon="34.4843000">
<ele>74.970001</ele>
<time>2023-02-16T12:36:57.924Z</time>
</trkpt>
<trkpt lat="31.4245000" lon="34.4846700">
<ele>77.659996</ele>
<time>2023-02-16T12:36:57.924Z</time>
</trkpt>
<trkpt lat="31.4245900" lon="34.4849200">
<ele>77.970001</ele>
<time>2023-02-16T12:36:57.924Z</time>
</trkpt>
<trkpt lat="31.4246700" lon="34.4851500">
<ele>78.760002</ele>
<time>2023-02-16T12:36:57.924Z</time>
</trkpt>
<trkpt lat="31.4247700" lon="34.4854700">
<ele>78.600006</ele>
<time>2023-02-16T12:36:57.924Z</time>
</trkpt>
<trkpt lat="31.4248300" lon="34.4856900">
<ele>77.739998</ele>
<time>2023-02-16T12:36:57.924Z</time>
</trkpt>
<trkpt lat="31.4249200" lon="34.4860100">
<ele>76.849998</ele>
<time>2023-02-16T12:36:57.924Z</time>
</trkpt>
<trkpt lat="31.4249600" lon="34.4862100">
<ele>77.250000</ele>
<time>2023-02-16T12:36:57.924Z</time>
</trkpt>
<trkpt lat="31.4250200" lon="34.4864900">
<ele>78.169998</ele>
<time>2023-02-16T12:36:57.924Z</time>
</trkpt>
<trkpt lat="31.4250600" lon="34.4866700">
<ele>78.590004</ele>
<time>2023-02-16T12:36:57.924Z</time>
</trkpt>
<trkpt lat="31.4251200" lon="34.4869000">
<ele>79.090004</ele>
<time>2023-02-16T12:36:57.924Z</time>
</trkpt>
<trkpt lat="31.4251600" lon="34.4870400">
<ele>79.529999</ele>
<time>2023-02-16T12:36:57.924Z</time>
</trkpt>
<trkpt lat="31.4252100" lon="34.4871800">
<ele>79.879997</ele>
<time>2023-02-16T12:36:57.924Z</time>
</trkpt>
<trkpt lat="31.4252800" lon="34.4874300">
<ele>81.209999</ele>
<time>2023-02-16T12:36:57.924Z</time>
</trkpt>
<trkpt lat="31.4253000" lon="34.4874800">
<ele>81.330002</ele>
<time>2023-02-16T12:36:57.924Z</time>
</trkpt>
<trkpt lat="31.4253400" lon="34.4875900">
<ele>80.620003</ele>
<time>2023-02-16T12:36:57.924Z</time>
</trkpt>
<trkpt lat="31.4254600" lon="34.4878400">
<ele>80.199997</ele>
<time>2023-02-16T12:36:57.924Z</time>
</trkpt>
<trkpt lat="31.4255600" lon="34.4880100">
<ele>82.359993</ele>
<time>2023-02-16T12:36:57.924Z</time>
</trkpt>
<trkpt lat="31.4257300" lon="34.4879600">
<ele>82.250000</ele>
<time>2023-02-16T12:36:57.924Z</time>
</trkpt>
<trkpt lat="31.4259000" lon="34.4878600">
<ele>82.000000</ele>
<time>2023-02-16T12:36:57.924Z</time>
</trkpt>
<trkpt lat="31.4268100" lon="34.4871200">
<ele>81.660004</ele>
<time>2023-02-16T12:36:57.924Z</time>
</trkpt>
<trkpt lat="31.4269400" lon="34.4871400">
<ele>81.020004</ele>
<time>2023-02-16T12:36:57.924Z</time>
</trkpt>
<trkpt lat="31.4270000" lon="34.4874100">
<ele>82.969994</ele>
<time>2023-02-16T12:36:57.924Z</time>
</trkpt>
<trkpt lat="31.4271000" lon="34.4875100">
<ele>82.830002</ele>
<time>2023-02-16T12:36:57.924Z</time>
</trkpt>
<trkpt lat="31.4270900" lon="34.4877900">
<ele>84.879997</ele>
<time>2023-02-16T12:36:57.924Z</time>
</trkpt>
<trkpt lat="31.4272800" lon="34.4878400">
<ele>82.400002</ele>
<time>2023-02-16T12:36:57.924Z</time>
</trkpt>
<trkpt lat="31.4274100" lon="34.4878200">
<ele>81.239998</ele>
<time>2023-02-16T12:36:57.924Z</time>
</trkpt>
<trkpt lat="31.4275900" lon="34.4878900">
<ele>77.250000</ele>
<time>2023-02-16T12:36:57.924Z</time>
</trkpt>
<trkpt lat="31.4278400" lon="34.4878200">
<ele>73.349998</ele>
<time>2023-02-16T12:36:57.924Z</time>
</trkpt>
<trkpt lat="31.4279800" lon="34.4879700">
<ele>71.699997</ele>
<time>2023-02-16T12:36:57.924Z</time>
</trkpt>
<trkpt lat="31.4279800" lon="34.4879700">
<ele>71.699997</ele>
<time>2023-02-16T12:36:57.924Z</time>
</trkpt>
<trkpt lat="31.4279800" lon="34.4879700">
<ele>71.699997</ele>
<time>2023-02-16T12:36:57.924Z</time>
</trkpt>
<trkpt lat="31.4281200" lon="34.4881100">
<ele>69.770004</ele>
<time>2023-02-16T12:36:57.924Z</time>
</trkpt>
<trkpt lat="31.4283500" lon="34.4884400">
<ele>67.430000</ele>
<time>2023-02-16T12:36:57.924Z</time>
</trkpt>
<trkpt lat="31.4286500" lon="34.4887700">
<ele>70.570000</ele>
<time>2023-02-16T12:36:57.924Z</time>
</trkpt>
<trkpt lat="31.4286300" lon="34.4891100">
<ele>72.590004</ele>
<time>2023-02-16T12:36:57.924Z</time>
</trkpt>
<trkpt lat="31.4284700" lon="34.4894100">
<ele>72.189995</ele>
<time>2023-02-16T12:36:57.924Z</time>
</trkpt>
<trkpt lat="31.4286500" lon="34.4895700">
<ele>71.670006</ele>
<time>2023-02-16T12:36:57.924Z</time>
</trkpt>
<trkpt lat="31.4288700" lon="34.4897900">
<ele>72.669998</ele>
<time>2023-02-16T12:36:57.924Z</time>
</trkpt>
<trkpt lat="31.4290700" lon="34.4900100">
<ele>73.239998</ele>
<time>2023-02-16T12:36:57.924Z</time>
</trkpt>
<trkpt lat="31.4290800" lon="34.4903300">
<ele>71.889999</ele>
<time>2023-02-16T12:36:57.924Z</time>
</trkpt>
<trkpt lat="31.4289400" lon="34.4904800">
<ele>70.860001</ele>
<time>2023-02-16T12:36:57.924Z</time>
</trkpt>
<trkpt lat="31.4290500" lon="34.4908600">
<ele>74.930000</ele>
<time>2023-02-16T12:36:57.924Z</time>
</trkpt>
<trkpt lat="31.4289500" lon="34.4912200">
<ele>76.769997</ele>
<time>2023-02-16T12:36:57.924Z</time>
</trkpt>
<trkpt lat="31.4286700" lon="34.4912900">
<ele>74.099998</ele>
<time>2023-02-16T12:36:57.924Z</time>
</trkpt>
<trkpt lat="31.4283000" lon="34.4914700">
<ele>75.159996</ele>
<time>2023-02-16T12:36:57.924Z</time>
</trkpt>
<trkpt lat="31.4281800" lon="34.4916800">
<ele>76.240005</ele>
<time>2023-02-16T12:36:57.924Z</time>
</trkpt>
<trkpt lat="31.4282000" lon="34.4920300">
<ele>79.630005</ele>
<time>2023-02-16T12:36:57.924Z</time>
</trkpt>
<trkpt lat="31.4280500" lon="34.4920400">
<ele>79.340004</ele>
<time>2023-02-16T12:36:57.924Z</time>
</trkpt>
<trkpt lat="31.4279800" lon="34.4921100">
<ele>79.380005</ele>
<time>2023-02-16T12:36:57.924Z</time>
</trkpt>
<trkpt lat="31.4280000" lon="34.4926100">
<ele>80.880005</ele>
<time>2023-02-16T12:36:57.924Z</time>
</trkpt>
<trkpt lat="31.4280900" lon="34.4929300">
<ele>81.889999</ele>
<time>2023-02-16T12:36:57.924Z</time>
</trkpt>
<trkpt lat="31.4279800" lon="34.4929700">
<ele>81.330002</ele>
<time>2023-02-16T12:36:57.924Z</time>
</trkpt>
</trkseg>
</trk>
</gpx>
